Date StartTime U_cm/s V_cm/s W_cm/s Ustd_cm/s Vstd_cm/s Wstd_cm/s Uvar_(cm/s)^2 Vvar_(cm/s)^2 Wvar_(cm/s)^2 KE_(m/s)^2 TurbulentKE_(m/s)^2 HorizWindSpeed_cm/s FrictionSpeec_cm/s DragCoef SpeedOfSound_m/s SonicTemperature_C Pressure_mb 
05/11/2013  00:00:00       34.753       31.023       -7.008       11.342       22.556        9.796      128.640      508.781       95.967        0.148        0.037       46.585        9.099        0.038      343.382       19.452      867.984
05/11/2013  00:01:00       21.628       11.382       -2.212        8.702       21.516       10.678       75.729      462.935      114.010        0.063        0.033       24.440       10.667        0.190      343.410       19.502      867.966
05/11/2013  00:02:00       12.027      -32.804        1.934       15.265       17.687       15.448      233.006      312.813      238.629        0.100        0.039       34.939       14.198        0.165      343.554       19.748      867.949
05/11/2013  00:03:00       -2.775      -43.880       -5.464       24.234       18.440       13.042      587.264      340.022      170.094        0.153        0.055       43.967       13.436        0.093      343.393       19.473      867.929
05/11/2013  00:04:00      -56.905      -44.535      -10.532       17.402       28.636       13.782      302.837      820.010      189.954        0.332        0.066       72.260       15.451        0.046      343.178       19.106      867.932
05/11/2013  00:05:00      -71.289     -130.956       -5.205       34.245       34.612       19.581     1172.711     1197.966      383.414        1.251        0.138      149.103       15.078        0.010      343.940       20.409      867.940
05/11/2013  00:06:00      -89.831      -87.376       -3.966       52.968       74.612       21.689     2805.630     5566.923      470.420        1.228        0.442      125.316       26.217        0.044      343.795       20.157      867.949
05/11/2013  00:07:00     -107.160      -30.497       -1.902       42.232       38.850       19.777     1783.544     1509.343      391.148        0.805        0.184      111.415       19.497        0.031      343.317       19.343      867.965
05/11/2013  00:08:00      -89.399       17.085       -8.652       14.583       14.184       10.729      212.675      201.182      115.108        0.444        0.026       91.017        6.791        0.006      343.148       19.056      867.993
05/11/2013  00:09:00      -45.322        1.508       -6.621       17.623       13.230       10.801      310.576      175.034      116.671        0.135        0.030       45.347       10.556        0.054      343.122       19.010      868.012
05/11/2013  00:10:00      -62.116      -22.953       -3.019       26.313       19.712       14.692      692.397      388.563      215.842        0.285        0.065       66.221       14.067        0.045      343.052       18.892      868.017
05/11/2013  00:11:00      -44.498      -45.008       -5.197       27.457       22.246       13.349      753.882      494.875      178.204        0.273        0.071       63.291        5.189        0.007      343.122       19.012      868.011
05/11/2013  00:12:00      -18.422      -42.744        8.670       25.422       12.855       12.581      646.259      165.252      158.279        0.161        0.048       46.545        5.423        0.014      343.169       19.090      867.999
05/11/2013  00:13:00      -24.677      -69.082       -6.362       23.333       48.108       14.525      544.441     2314.401      210.971        0.425        0.153       73.357       18.416        0.063      343.176       19.104      867.999
05/11/2013  00:14:00      -26.733     -104.252        5.745       29.940       31.792       21.228      896.382     1010.721      450.607        0.699        0.118      107.625       20.800        0.037      343.638       19.892      868.009
05/11/2013  00:15:00      -32.318      -81.958        0.685       37.871       22.022       17.985     1434.234      484.950      323.476        0.500        0.112       88.100       19.889        0.051      343.650       19.911      868.024
05/11/2013  00:16:00      -56.611       19.789        0.975       36.469       37.474       18.612     1329.995     1404.300      346.416        0.334        0.154       59.970       19.241        0.103      343.159       19.073      868.032
05/11/2013  00:17:00      -97.759       16.579       -5.754       22.840       20.209       11.759      521.660      408.413      138.281        0.547        0.053       99.155        9.790        0.010      343.197       19.140      868.035
05/11/2013  00:18:00      -72.219      -14.922       -6.148       34.929       30.565       14.891     1220.030      934.242      221.744        0.393        0.119       73.745       15.714        0.045      342.939       18.699      868.045
05/11/2013  00:19:00      -93.052      -35.219        0.736       60.833       24.965       18.254     3700.601      623.233      333.199        0.728        0.233       99.494       28.728        0.083      342.653       18.212      868.060
05/11/2013  00:20:00     -102.557      -28.887       -5.960       28.261       25.799       17.604      798.708      665.602      309.916        0.658        0.089      106.548       16.712        0.025      342.519       17.985      868.058
05/11/2013  00:21:00      -88.168      -24.820        0.044       29.613       24.138       14.473      876.949      582.631      209.481        0.503        0.083       91.595       10.541        0.013      342.482       17.922      868.062
05/11/2013  00:22:00      -63.801       -4.143        0.860       31.099       22.330       13.287      967.143      498.646      176.537        0.287        0.082       63.936       13.219        0.043      342.519       17.985      868.067
05/11/2013  00:23:00      -88.053      -16.321       -7.151       26.100       14.523        9.091      681.193      210.916       82.648        0.452        0.049       89.552        7.258        0.007      342.679       18.257      868.072
05/11/2013  00:24:00      -43.263      -21.979       -0.940       14.699       13.128        7.469      216.065      172.334       55.789        0.140        0.022       48.526        7.611        0.025      342.702       18.297      868.084
05/11/2013  00:25:00      -57.901      -14.220       -5.297       27.596       15.903       12.536      761.560      252.917      157.143        0.238        0.059       59.621       13.345        0.050      342.749       18.376      868.091
05/11/2013  00:26:00      -77.659       -8.729       -2.589       24.454       12.856       11.489      597.975      165.289      131.994        0.350        0.045       78.148       13.345        0.029      342.640       18.190      868.091
05/11/2013  00:27:00      -78.697      -25.966        0.955       30.914       16.603       12.442      955.699      275.671      154.812        0.413        0.069       82.870       15.014        0.033      342.585       18.098      868.093
05/11/2013  00:28:00      -85.156      -35.286       -5.403       29.364       20.120       17.453      862.266      404.815      304.613        0.505        0.079       92.178       20.816        0.051      342.699       18.292      868.097
05/11/2013  00:29:00      -56.175      -40.286       -2.727       22.932       19.995       12.788      525.887      399.817      163.545        0.294        0.054       69.128        9.612        0.019      342.717       18.321      868.095
05/11/2013  00:30:00     -110.622      -22.873       -1.711       44.990       23.745       22.183     2024.121      563.834      492.106        0.792        0.154      112.962       26.003        0.053      343.088       18.954      868.099
05/11/2013  00:31:00      -61.586      -33.473        4.257       34.629       25.164       19.060     1199.136      633.242      363.301        0.356        0.110       70.095       16.523        0.056      342.802       18.468      868.106
05/11/2013  00:32:00      -61.561      -34.032        1.252       32.401       22.871       13.466     1049.844      523.073      181.336        0.335        0.088       70.341       12.077        0.029      342.795       18.456      868.109
05/11/2013  00:33:00      -22.945      -41.496        5.243       43.011       15.133       12.054     1849.961      228.999      145.296        0.225        0.111       47.417       17.361        0.134      342.663       18.229      868.114
05/11/2013  00:34:00      -52.694      -54.846        1.761       28.382       19.841       16.388      805.547      393.680      268.574        0.363        0.073       76.057       15.942        0.044      342.900       18.632      868.121
05/11/2013  00:35:00      -34.964      -50.162        0.658       29.990       27.619       13.075      899.412      762.812      170.964        0.279        0.092       61.145       15.755        0.066      342.914       18.658      868.118
05/11/2013  00:36:00      -47.081      -68.617        1.781       31.622       30.760       14.831      999.944      946.169      219.960        0.455        0.108       83.216       12.896        0.024      343.032       18.858      868.113
05/11/2013  00:37:00      -85.334      -84.586       -2.903       24.207       29.185       16.769      585.974      851.790      281.213        0.808        0.086      120.153       14.167        0.014      343.213       19.167      868.124
05/11/2013  00:38:00      -55.385      -45.486        4.023       45.735       32.163       23.833     2091.723     1034.448      568.008        0.442        0.185       71.669       22.792        0.101      343.110       18.991      868.130
05/11/2013  00:39:00      -61.013        2.515        3.965       24.991       38.851       18.499      624.562     1509.397      342.203        0.311        0.124       61.065       15.088        0.061      342.769       18.411      868.130
05/11/2013  00:40:00      -69.427       41.461       -5.301       28.114       21.578       17.328      790.414      465.604      300.270        0.406        0.078       80.864       11.900        0.022      342.146       17.351      868.131
05/11/2013  00:41:00      -79.378       -1.822       -9.617       16.789       16.501       10.028      281.855      272.274      100.565        0.353        0.033       79.398        4.084        0.003      342.190       17.427      868.126
05/11/2013  00:42:00      -81.254      -15.160       -3.875       22.876       19.249       12.367      523.321      370.532      152.945        0.395        0.052       82.656       10.582        0.016      342.253       17.534      868.112
05/11/2013  00:43:00      -75.437      -19.700       -3.186       24.140       23.633       10.740      582.758      558.522      115.355        0.367        0.063       77.967       10.879        0.019      342.224       17.485      868.098
05/11/2013  00:44:00      -89.097      -10.253       -0.702       25.534       22.855       13.364      651.998      522.361      178.600        0.470        0.068       89.685       11.137        0.015      342.196       17.437      868.092
05/11/2013  00:45:00      -40.304      -10.602        3.537       20.466       17.836       15.608      418.862      318.125      243.615        0.136        0.049       41.675       11.678        0.079      342.205       17.451      868.100
05/11/2013  00:46:00      -80.891       -4.115      -10.957       31.334       15.876       12.129      981.843      252.043      147.113        0.403        0.069       80.996       13.467        0.028      342.298       17.611      868.103
05/11/2013  00:47:00      -87.907        0.265      -10.711       26.703       23.864       14.397      713.030      569.479      207.281        0.467        0.074       87.907        5.861        0.004      342.186       17.419      868.112
05/11/2013  00:48:00      -91.870       11.016       -4.048       31.576       26.112       18.620      997.049      681.840      346.701        0.530        0.101       92.528       16.896        0.033      342.099       17.273      868.116
05/11/2013  00:49:00      -94.889       32.567      -10.982       37.736       22.490       20.236     1424.039      505.781      409.481        0.626        0.117      100.322       18.097        0.033      342.215       17.469      868.125
05/11/2013  00:50:00      -92.755      -35.430       -4.515       42.026       44.703       20.612     1766.144     1998.387      424.839        0.703        0.209       99.291       22.123        0.050      342.155       17.366      868.134
05/11/2013  00:51:00      -71.377        1.680       -0.055       30.545       29.850       18.318      932.999      891.019      335.562        0.363        0.108       71.397       17.131        0.058      342.131       17.326      868.122
05/11/2013  00:52:00      -74.643      -23.467      -11.369       18.697       15.172       10.889      349.571      230.183      118.573        0.347        0.035       78.245        3.562        0.002      342.217       17.472      868.101
05/11/2013  00:53:00      -97.627      -42.492       -3.320       22.757       20.368       16.615      517.886      414.838      276.049        0.628        0.060      106.473       11.089        0.011      342.157       17.371      868.101
05/11/2013  00:54:00     -128.749      -11.419       -7.607       46.940       24.439       19.035     2203.382      597.265      362.314        0.996        0.158      129.255       21.403        0.027      342.048       17.185      868.108
05/11/2013  00:55:00     -189.372      -13.246      -16.157       35.198       33.932       20.570     1238.882     1151.410      423.112        1.956        0.141      189.835       21.269        0.013      341.994       17.093      868.115
05/11/2013  00:56:00     -186.742      -67.665       -2.710       40.881       30.498       19.767     1671.251      930.151      390.736        2.122        0.150      198.623       20.890        0.011      341.977       17.064      868.113
05/11/2013  00:57:00     -141.322      -39.853        0.141       40.680       32.112       26.157     1654.877     1031.149      684.193        1.246        0.169      146.834       22.785        0.024      341.917       16.962      868.112
05/11/2013  00:58:00     -148.468      -33.457        0.310       42.012       39.646       26.960     1765.026     1571.767      726.818        1.361        0.203      152.191       24.521        0.026      341.917       16.962      868.112
05/11/2013  00:59:00      -86.404      -42.440       -8.387       52.780       32.522       22.294     2785.683     1057.649      497.013        0.684        0.217       96.265       28.390        0.087      341.958       17.033      868.109
05/11/2013  01:00:00      -35.647      -19.694        8.403       53.124       38.413       22.257     2822.184     1475.553      495.364        0.326        0.240       40.726       28.522        0.490      341.920       16.969      868.113
05/11/2013  01:01:00     -118.249      -27.192       -2.496       41.214       27.808       19.955     1698.581      773.312      398.201        0.880        0.144      121.335       21.492        0.031      341.906       16.944      868.124
05/11/2013  01:02:00     -109.783       -6.463       -0.618       52.477       33.584       29.959     2753.803     1127.897      897.537        0.844        0.239      109.973       31.507        0.082      341.884       16.907      868.122
05/11/2013  01:03:00     -131.001       -3.763       -8.737       51.730       26.682       21.517     2675.969      711.914      462.961        1.055        0.193      131.055       21.770        0.028      341.816       16.792      868.127
05/11/2013  01:04:00     -103.983       -8.700       -6.096       29.196       26.770       22.749      852.400      716.611      517.515        0.651        0.104      104.347       19.529        0.035      341.858       16.862      868.128
05/11/2013  01:05:00     -120.755      -22.596      -10.906       21.828       18.582       13.289      476.455      345.288      176.602        0.810        0.050      122.851       11.953        0.009      341.888       16.913      868.120
05/11/2013  01:06:00      -88.181      -24.792       -9.561       28.961       20.646       15.192      838.725      426.260      230.812        0.499        0.075       91.600       10.851        0.014      341.922       16.971      868.109
05/11/2013  01:07:00      -88.475      -47.532       -4.067       22.452       16.195       11.370      504.080      262.277      129.277        0.550        0.045      100.435       10.258        0.010      341.911       16.950      868.109
05/11/2013  01:08:00     -120.149      -42.563      -11.954       10.962       10.556        7.417      120.173      111.429       55.012        0.834        0.014      127.466        3.013        0.001      341.914       16.960      868.108
05/11/2013  01:09:00     -137.143      -43.843       -2.706       30.328       24.981       16.975      919.790      624.068      288.144        1.128        0.092      143.981       17.159        0.014      341.900       16.934      868.097
05/11/2013  01:10:00     -142.578      -32.219       -3.885       40.982       20.192       18.703     1679.516      407.715      349.789        1.191        0.122      146.173       18.138        0.015      341.801       16.764      868.105
05/11/2013  01:11:00      -98.352       -4.829       -8.057       41.029       24.686       22.807     1683.359      609.412      520.157        0.629        0.141       98.470       23.450        0.057      341.718       16.626      868.107
05/11/2013  01:12:00      -99.798        4.536      -14.239       32.086       32.359       19.779     1029.537     1047.098      391.204        0.633        0.123       99.901       14.477        0.021      341.719       16.627      868.091
05/11/2013  01:13:00     -123.849      -35.919      -13.644       23.856       28.990       18.247      569.125      840.448      332.960        0.928        0.087      128.953        8.644        0.004      341.751       16.680      868.090
05/11/2013  01:14:00     -137.151      -27.507      -13.560       29.737       25.132       14.121      884.306      631.600      199.414        1.073        0.086      139.882       11.875        0.007      341.779       16.729      868.096
05/11/2013  01:15:00      -95.594        8.820      -17.295       39.702       43.627       24.230     1576.228     1903.278      587.083        0.679        0.203       96.000       19.250        0.040      341.713       16.616      868.092
05/11/2013  01:16:00      -85.158       12.869      -15.287       28.471       30.035       25.660      810.613      902.088      658.449        0.501        0.119       86.125       16.803        0.038      341.765       16.704      868.091
05/11/2013  01:17:00     -106.275       20.568       -6.078       44.815       40.562       26.661     2008.363     1645.265      710.799        0.806        0.218      108.247       22.908        0.045      341.724       16.636      868.094
05/11/2013  01:18:00     -116.711       23.663      -13.836       37.429       29.675       25.197     1400.906      880.617      634.882        0.864        0.146      119.085       14.760        0.015      341.752       16.683      868.086
05/11/2013  01:19:00      -96.935       -3.765      -20.760       27.517       29.047       16.943      757.202      843.734      287.055        0.586        0.094       97.008        7.806        0.006      341.852       16.854      868.083
05/11/2013  01:20:00      -54.932      -30.028      -11.264       28.966       18.277       17.962      839.022      334.032      322.645        0.277        0.075       62.604       11.484        0.034      341.766       16.706      868.095
05/11/2013  01:21:00     -106.219       -0.028      -18.760       36.884       25.481       17.162     1360.407      649.278      294.537        0.697        0.115      106.219       16.855        0.025      341.717       16.623      868.101
05/11/2013  01:22:00     -111.468       -5.214      -21.761       31.677       24.955       16.135     1003.451      622.734      260.331        0.741        0.094      111.590       14.469        0.017      341.720       16.628      868.101
05/11/2013  01:23:00     -107.015      -11.099      -13.593       31.227       32.649       21.694      975.112     1065.963      470.628        0.714        0.126      107.589       17.320        0.026      341.720       16.629      868.110
05/11/2013  01:24:00      -90.380      -22.049      -13.991       36.000       32.662       19.231     1296.035     1066.832      369.848        0.579        0.137       93.030       19.678        0.045      341.735       16.654      868.104
05/11/2013  01:25:00      -52.090      -25.635       -2.194       50.058       34.285       19.949     2505.843     1175.489      397.956        0.373        0.204       58.056       20.642        0.126      341.721       16.631      868.097
05/11/2013  01:26:00      -14.219        3.488        0.961       23.117       18.288       16.353      534.390      334.444      267.417        0.068        0.057       14.641       16.567        1.281      341.732       16.650      868.099
05/11/2013  01:27:00      -40.836       20.049       -7.151       19.354       17.351        9.243      374.564      301.063       85.434        0.144        0.038       45.493        9.182        0.041      341.947       17.013      868.089
05/11/2013  01:28:00      -45.698      -14.393       -9.600       10.749       12.175        8.174      115.532      148.220       66.812        0.136        0.017       47.911        3.468        0.005      341.987       17.082      868.086
05/11/2013  01:29:00      -76.186      -19.524      -11.458       25.517       13.487        8.611      651.139      181.894       74.153        0.361        0.045       78.648        9.790        0.015      341.857       16.861      868.089
05/11/2013  01:30:00     -108.166      -39.643      -14.656       23.527       15.184       14.683      553.514      230.561      215.577        0.724        0.050      115.202       13.292        0.013      341.747       16.673      868.091
05/11/2013  01:31:00     -127.322      -51.115      -13.605       29.855       25.522       18.089      891.296      651.370      327.206        1.044        0.093      137.200       13.134        0.009      341.698       16.593      868.096
05/11/2013  01:32:00     -118.349      -43.726       -9.217       36.961       31.462       17.287     1366.082      989.854      298.844        0.933        0.133      126.168       14.031        0.012      341.674       16.550      868.100
05/11/2013  01:33:00      -67.939      -51.837        0.310       43.872       23.737       19.943     1924.714      563.435      397.704        0.509        0.144       85.456       22.396        0.069      341.557       16.352      868.097
05/11/2013  01:34:00      -46.466      -29.832       -6.547       31.634       12.814       12.883     1000.681      164.201      165.962        0.221        0.067       55.218        9.611        0.030      341.636       16.487      868.090
05/11/2013  01:35:00      -12.435      -46.190        5.637       26.390       26.581       14.859      696.446      706.530      220.803        0.197        0.081       47.835       15.655        0.107      341.831       16.818      868.088
05/11/2013  01:36:00      -50.839      -35.260      -12.879       18.171       18.466        8.232      330.173      340.981       67.761        0.237        0.037       61.870        5.046        0.007      341.933       16.990      868.091
05/11/2013  01:37:00      -59.433      -28.789        2.094       26.538       24.088       14.871      704.276      580.214      221.143        0.294        0.075       66.038       12.050        0.033      341.957       17.031      868.082
05/11/2013  01:38:00     -103.692      -35.420       -0.138       41.264       26.089       18.751     1702.719      680.618      351.617        0.737        0.137      109.575       17.503        0.026      341.826       16.808      868.077
05/11/2013  01:39:00      -92.738      -49.290       -1.091       17.861       17.255       14.862      319.009      297.745      220.888        0.593        0.042      105.023        7.585        0.005      341.685       16.570      868.085
05/11/2013  01:40:00      -70.933      -44.544        4.569       26.178       21.557       16.001      685.279      464.703      256.040        0.422        0.070       83.760       14.233        0.029      341.697       16.589      868.069
05/11/2013  01:41:00      -51.091      -38.395        2.395       27.304       19.661       15.685      745.483      386.542      246.020        0.273        0.069       63.910       15.445        0.058      341.727       16.641      868.057
05/11/2013  01:42:00      -68.914      -32.362       -5.049       20.184       15.333       11.104      407.388      235.111      123.298        0.329        0.038       76.134        7.610        0.010      341.699       16.594      868.050
05/11/2013  01:43:00     -110.690      -26.716      -16.952       15.609       12.879        8.809      243.641      165.859       77.592        0.687        0.024      113.869        5.891        0.003      341.730       16.647      868.042
05/11/2013  01:44:00     -119.769      -25.539      -17.917       26.577       18.294       14.940      706.349      334.685      223.196        0.829        0.063      122.461       12.049        0.010      341.710       16.612      868.031
05/11/2013  01:45:00     -146.270      -39.037       -8.510       34.022       19.343       16.951     1157.520      374.165      287.347        1.240        0.091      151.389       18.373        0.015      341.563       16.362      868.016
05/11/2013  01:46:00     -131.946      -73.273      -12.695       45.853       25.570       25.087     2102.526      653.811      629.368        1.316        0.169      150.926       13.776        0.008      341.435       16.145      868.011
05/11/2013  01:47:00     -130.001      -86.545       -3.215       45.850       29.124       20.999     2102.250      848.212      440.953        1.390        0.170      156.174       21.402        0.019      341.456       16.180      868.011
05/11/2013  01:48:00     -107.957      -75.559       -4.048       42.725       35.866       23.936     1825.393     1286.395      572.939        1.053        0.184      131.773       16.624        0.016      341.472       16.208      868.016
05/11/2013  01:49:00     -139.372      -69.057       -6.679       30.139       27.211       17.749      908.386      740.451      315.011        1.310        0.098      155.543       13.867        0.008      341.469       16.203      868.012
05/11/2013  01:50:00     -113.363      -48.743       -1.210       37.771       31.397       20.155     1426.672      985.743      406.232        0.902        0.141      123.398       20.248        0.027      341.499       16.253      868.014
05/11/2013  01:51:00      -91.573      -64.449       -2.208       37.175       33.738       20.513     1381.970     1138.237      420.795        0.774        0.147      111.978       16.482        0.022      341.480       16.220      868.020
05/11/2013  01:52:00     -110.770      -51.899       -6.815       24.895       27.012       19.529      619.781      729.668      381.365        0.837        0.087      122.325       14.898        0.015      341.471       16.205      868.031
05/11/2013  01:53:00     -137.345      -59.341      -11.721       17.238       23.620       15.301      297.139      557.882      234.133        1.181        0.054      149.617        9.373        0.004      341.450       16.170      868.030
05/11/2013  01:54:00      -81.344      -53.913        3.299       45.306       29.079       19.886     2052.620      845.579      395.445        0.641        0.165       97.588       17.477        0.032      341.429       16.134      868.027
05/11/2013  01:55:00      -94.243      -38.722       -3.408       21.578       14.535       13.594      465.599      211.256      184.795        0.563        0.043      101.888       12.006        0.014      341.460       16.186      868.029
05/11/2013  01:56:00     -114.965      -32.136       -9.389       13.447       12.505       11.784      180.817      156.382      138.871        0.741        0.024      119.372        6.295        0.003      341.442       16.157      868.031
05/11/2013  01:57:00      -93.117      -36.887       -3.157       20.308       24.868       14.859      412.433      618.427      220.796        0.565        0.063      100.157       10.551        0.011      341.425       16.127      868.032
05/11/2013  01:58:00      -84.572      -52.519       -5.817       19.742       19.304       12.446      389.752      372.646      154.905        0.543        0.046       99.553        7.469        0.006      341.354       16.010      868.047
05/11/2013  01:59:00      -87.524      -40.282        0.299       37.523       23.961       16.163     1407.976      574.144      261.242        0.576        0.112       96.349       16.788        0.030      341.338       15.981      868.045
05/11/2013  02:00:00      -45.458      -24.379       -6.119       26.502       17.902       16.895      702.382      320.496      285.437        0.200        0.065       51.583       15.088        0.086      341.384       16.059      868.052
05/11/2013  02:01:00      -69.725      -26.761      -11.769       18.531       23.346       15.089      343.407      545.048      227.675        0.342        0.056       74.684       10.239        0.019      341.398       16.083      868.057
05/11/2013  02:02:00      -77.600      -46.532       -0.948       20.597       14.485       13.471      424.232      209.802      181.471        0.450        0.041       90.482        7.724        0.007      341.306       15.927      868.068
05/11/2013  02:03:00      -88.695      -31.608      -10.640       12.477       13.197       10.495      155.670      174.155      110.138        0.471        0.022       94.158        7.141        0.006      341.320       15.950      868.080
05/11/2013  02:04:00      -71.704      -17.175       -0.363       20.665       13.108       13.226      427.061      171.830      174.925        0.311        0.039       73.733       12.885        0.031      341.285       15.891      868.074
05/11/2013  02:05:00      -93.896       -9.881       -8.970       16.463       13.776       15.835      271.027      189.783      250.763        0.485        0.036       94.415       10.166        0.012      341.362       16.022      868.062
05/11/2013  02:06:00      -77.837      -27.258       -6.646       15.931       11.857       12.746      253.789      140.595      162.452        0.370        0.028       82.472        4.174        0.003      341.325       15.958      868.054
05/11/2013  02:07:00      -84.758      -23.246      -12.994       18.291       15.347        8.822      334.557      235.519       77.826        0.427        0.032       87.888        5.978        0.005      341.316       15.945      868.040
05/11/2013  02:08:00      -92.016       -9.427      -12.494       15.769        9.939        9.631      248.667       98.787       92.761        0.458        0.022       92.497        9.250        0.010      341.358       16.016      868.023
05/11/2013  02:09:00     -106.529      -27.862       -6.361       14.168       18.351       11.717      200.736      336.758      137.294        0.642        0.034      110.112        7.286        0.004      341.388       16.067      868.010
05/11/2013  02:10:00     -112.153      -27.606      -14.413       15.671       15.152        8.966      245.566      229.591       80.397        0.705        0.028      115.501        7.123        0.004      341.351       16.002      868.017
05/11/2013  02:11:00     -113.200      -30.915       -8.080       20.330       17.960       14.474      413.313      322.562      209.504        0.739        0.047      117.346        9.646        0.007      341.349       15.999      868.020
05/11/2013  02:12:00      -90.748      -52.310        2.710       36.274       23.099       16.849     1315.782      533.581      283.899        0.656        0.107      104.745       14.490        0.019      341.368       16.033      868.019
05/11/2013  02:13:00      -73.234      -42.668        6.176       38.506       30.580       23.288     1482.741      935.165      542.329        0.509        0.148       84.757       23.218        0.075      341.429       16.135      868.011
05/11/2013  02:14:00     -108.530      -43.697        3.825       30.862       23.040       17.471      952.445      530.853      305.220        0.775        0.089      116.996       14.989        0.016      341.416       16.114      868.029
05/11/2013  02:15:00     -103.300      -22.921       -4.977       31.566       28.635       17.595      996.436      819.978      309.593        0.667        0.106      105.812       17.800        0.028      341.373       16.040      868.043
05/11/2013  02:16:00      -81.813      -19.396       -0.086       28.026       24.468       12.075      785.466      598.679      145.809        0.430        0.076       84.081       11.690        0.019      341.414       16.111      868.047
05/11/2013  02:17:00      -93.204      -20.156       -0.742       31.714       22.864       14.622     1005.751      522.763      213.802        0.542        0.087       95.359       16.566        0.030      341.311       15.936      868.043
05/11/2013  02:18:00      -56.315      -25.832        2.531       17.286       17.712       13.204      298.789      313.710      174.357        0.232        0.039       61.957       10.213        0.027      341.357       16.013      868.032
05/11/2013  02:19:00      -38.232      -33.643        3.926       21.880       15.703       13.395      478.747      246.598      179.422        0.176        0.045       50.927       14.668        0.083      341.460       16.186      868.033
05/11/2013  02:20:00      -51.778      -18.659        2.681       24.341       18.466       12.492      592.463      340.993      156.043        0.206        0.054       55.038       10.713        0.038      341.460       16.188      868.032
05/11/2013  02:21:00     -123.460      -24.869       -7.726       27.243       15.243       13.828      742.208      232.348      191.200        0.854        0.058      125.940       14.939        0.014      341.345       15.993      868.035
05/11/2013  02:22:00      -93.040      -18.573        2.402       39.967       25.000       19.529     1597.381      625.016      381.375        0.581        0.130       94.876       19.058        0.040      341.214       15.772      868.033
05/11/2013  02:23:00     -114.052      -16.253        0.298       39.540       26.900       18.147     1563.445      723.601      329.328        0.794        0.131      115.204       17.257        0.022      341.255       15.841      868.020
05/11/2013  02:24:00      -81.113      -43.227        2.524       33.454       28.068       17.558     1119.195      787.821      308.278        0.533        0.111       91.912       18.305        0.040      341.263       15.853      868.021
05/11/2013  02:25:00      -86.987      -53.346       -8.267       29.410       25.365       17.310      864.962      643.358      299.648        0.614        0.090      102.042       13.314        0.017      341.364       16.024      868.018
05/11/2013  02:26:00      -53.920      -40.548        7.486       55.221       34.005       23.074     3049.331     1156.309      532.419        0.467        0.237       67.464       15.580        0.053      341.316       15.944      868.018
05/11/2013  02:27:00     -129.982      -80.764        1.318       38.748       34.223       24.658     1501.396     1171.231      608.011        1.335        0.164      153.030       16.639        0.012      341.406       16.097      868.023
05/11/2013  02:28:00      -87.615      -33.951        7.701       53.149       32.280       23.422     2824.774     1041.992      548.604        0.665        0.221       93.963       26.887        0.082      341.269       15.865      868.037
05/11/2013  02:29:00      -85.785      -44.486        5.271       38.468       28.594       20.865     1479.809      817.620      435.363        0.605        0.137       96.633       22.680        0.055      341.229       15.798      868.037
05/11/2013  02:30:00      -95.108      -22.206        2.660       40.512       28.138       20.578     1641.259      791.763      423.457        0.620        0.143       97.666       19.489        0.040      341.209       15.763      868.040
05/11/2013  02:31:00      -95.460      -18.169        1.501       41.440       38.852       23.722     1717.259     1509.459      562.735        0.662        0.189       97.173       24.504        0.064      341.181       15.716      868.041
05/11/2013  02:32:00     -124.486      -31.915       -0.986       48.020       36.306       19.070     2305.876     1318.103      363.651        1.025        0.199      128.512       16.674        0.017      341.143       15.652      868.059
05/11/2013  02:33:00     -112.938      -42.983        4.949       36.782       37.412       26.619     1352.904     1399.680      708.574        0.904        0.173      120.841       22.916        0.036      341.070       15.528      868.074
05/11/2013  02:34:00     -111.790      -42.537        1.030       36.710       28.930       19.797     1347.629      836.971      391.909        0.844        0.129      119.609       19.548        0.027      341.154       15.669      868.077
05/11/2013  02:35:00      -93.534      -49.637       -3.603       70.989       35.273       26.141     5039.391     1244.216      683.345        0.910        0.348      105.889       33.537        0.100      341.165       15.689      868.068
05/11/2013  02:36:00      -87.307      -85.531        3.089       53.041       46.180       29.599     2813.322     2132.634      876.102        1.038        0.291      122.222       29.686        0.059      341.145       15.655      868.060
05/11/2013  02:37:00     -113.332      -56.588       -5.444       35.795       30.265       21.083     1281.255      915.982      444.478        0.936        0.132      126.674       14.572        0.013      341.133       15.635      868.059
05/11/2013  02:38:00      -87.574      -85.903       12.509       49.385       52.366       36.130     2438.906     2742.220     1305.360        1.084        0.324      122.672       27.619        0.051      341.078       15.541      868.074
05/11/2013  02:39:00     -116.217      -41.627       -5.181       37.741       36.142       22.564     1424.403     1306.268      509.143        0.925        0.162      123.447       15.947        0.017      341.063       15.516      868.070
05/11/2013  02:40:00      -73.206      -59.663        0.648       42.399       33.608       18.653     1797.649     1129.522      347.945        0.610        0.164       94.440       16.812        0.032      341.083       15.552      868.066
05/11/2013  02:41:00      -61.092      -91.671       -1.609       41.834       46.147       19.434     1750.056     2129.519      377.679        0.820        0.213      110.163       14.758        0.018      341.123       15.618      868.067
05/11/2013  02:42:00     -114.723      -95.200       -4.105       40.087       30.174       20.753     1606.977      910.440      430.670        1.259        0.147      149.079       21.788        0.021      341.109       15.594      868.068
05/11/2013  02:43:00      -89.026      -70.752        2.159       39.386       24.549       25.551     1551.282      602.660      652.835        0.787        0.140      113.717       23.738        0.044      341.057       15.506      868.071
05/11/2013  02:44:00      -88.164      -79.879       -1.611       35.691       39.455       22.973     1273.859     1556.733      527.776        0.876        0.168      118.968       19.497        0.027      341.031       15.463      868.068
05/11/2013  02:45:00      -61.116      -71.811       -4.026       56.624       46.314       32.233     3206.261     2145.006     1038.986        0.765        0.320       94.297       32.994        0.122      341.034       15.468      868.073
05/11/2013  02:46:00      -81.572      -66.346        3.509       46.356       32.337       21.575     2148.849     1045.657      465.491        0.736        0.183      105.146       22.767        0.047      340.995       15.402      868.066
05/11/2013  02:47:00      -30.269      -25.162        9.024       40.241       22.662       23.546     1619.363      513.585      554.391        0.216        0.134       39.362       22.933        0.339      340.974       15.365      868.051
05/11/2013  02:48:00      -84.936      -13.992       -5.230       20.932       29.257       16.211      438.153      856.001      262.791        0.450        0.078       86.081       13.975        0.026      340.985       15.385      868.042
05/11/2013  02:49:00      -67.531      -11.550        1.625       28.581       21.968       16.995      816.897      482.609      288.830        0.314        0.079       68.512       15.722        0.053      340.857       15.166      868.046
05/11/2013  02:50:00      -68.471      -15.659        3.553       29.317       22.797       15.960      859.510      519.687      254.710        0.329        0.082       70.239       16.083        0.052      340.812       15.091      868.034
05/11/2013  02:51:00      -77.525       -2.253       -0.195       42.848       22.686       18.621     1835.908      514.652      346.736        0.436        0.135       77.558       18.885        0.059      340.789       15.052      868.023
05/11/2013  02:52:00      -67.986       -8.870        3.545       33.852       23.485       15.489     1145.948      551.553      239.911        0.333        0.097       68.562       18.601        0.074      340.718       14.933      868.019
05/11/2013  02:53:00      -64.160      -14.752        3.439       20.258       17.631       11.902      410.379      310.858      141.668        0.260        0.043       65.834        9.937        0.023      340.760       15.003      868.016
05/11/2013  02:54:00      -82.669      -42.953       -6.969       14.388       12.009        9.969      207.006      144.227       99.381        0.459        0.023       93.161        7.108        0.006      340.751       14.987      868.001
05/11/2013  02:55:00      -55.158      -45.106        4.793       35.543       28.366       17.526     1263.315      804.627      307.154        0.374        0.119       71.253       15.513        0.047      340.791       15.056      867.990
05/11/2013  02:56:00      -71.584      -67.997        0.538       37.133       22.264       20.048     1378.886      495.680      401.936        0.601        0.114       98.732       18.144        0.034      340.873       15.194      867.994
05/11/2013  02:57:00      -90.319      -69.967        0.461       39.253       35.174       23.706     1540.763     1237.209      561.961        0.820        0.167      114.249       22.012        0.037      340.861       15.173      867.985
05/11/2013  02:58:00      -84.144      -67.139        4.779       40.563       38.511       23.298     1645.322     1483.130      542.803        0.764        0.184      107.647       23.585        0.048      340.850       15.155      867.971
05/11/2013  02:59:00      -70.539      -36.533       -5.651       38.189       30.800       19.375     1458.407      948.640      375.397        0.456        0.139       79.438       17.488        0.048      340.764       15.009      867.968
05/11/2013  03:00:00      -99.823      -26.720       -1.194       28.437       23.524       19.043      808.668      553.374      362.654        0.620        0.086      103.337       15.463        0.022      340.711       14.918      867.972
05/11/2013  03:01:00     -112.960      -39.490       -3.611       25.181       32.982       16.295      634.087     1087.821      265.533        0.816        0.099      119.663       10.259        0.007      340.736       14.963      867.987
05/11/2013  03:02:00      -89.484      -69.650        2.315       25.861       23.878       17.195      668.801      570.177      295.655        0.720        0.077      113.396       11.168        0.010      340.803       15.075      867.991
05/11/2013  03:03:00     -113.944      -42.722        3.224       42.216       22.091       16.592     1782.210      488.015      275.299        0.868        0.127      121.690       17.941        0.022      340.777       15.030      867.984
05/11/2013  03:04:00     -154.955      -60.356       -5.895       29.523       33.098       24.424      871.632     1095.471      596.525        1.513        0.128      166.294       16.496        0.010      340.791       15.056      867.987
05/11/2013  03:05:00     -142.218      -37.512       -0.270       49.155       42.112       26.766     2416.179     1773.417      716.421        1.327        0.245      147.082       21.393        0.021      340.769       15.017      867.989
05/11/2013  03:06:00     -100.881      -62.220       -0.040       42.114       41.502       20.375     1773.611     1722.449      415.143        0.898        0.196      118.526       16.549        0.019      340.778       15.034      867.985
05/11/2013  03:07:00     -102.332      -50.224        0.604       45.181       37.134       21.646     2041.338     1378.928      468.533        0.844        0.194      113.992       23.518        0.043      340.791       15.054      867.976
05/11/2013  03:08:00     -123.195      -43.578       -4.516       33.257       34.460       20.365     1106.024     1187.494      414.715        0.990        0.135      130.675       16.514        0.016      340.814       15.093      867.981
05/11/2013  03:09:00     -149.405       -4.094       -5.235       46.756       33.928       26.488     2186.132     1151.141      701.630        1.320        0.202      149.461       26.405        0.031      340.606       14.744      867.988
05/11/2013  03:10:00     -146.287      -47.880        3.262       35.910       28.897       18.273     1289.515      835.014      333.888        1.308        0.123      153.923       14.521        0.009      340.678       14.865      867.987
05/11/2013  03:11:00     -120.983      -51.160       -1.033       36.334       41.781       21.629     1320.157     1745.628      467.821        1.039        0.177      131.355       18.578        0.020      340.698       14.899      867.994
05/11/2013  03:12:00     -152.096      -45.455       -7.906       27.969       27.814       19.547      782.283      773.611      382.072        1.360        0.097      158.743       14.486        0.008      340.652       14.820      867.996
05/11/2013  03:13:00     -131.804      -39.658        1.475       34.398       29.502       20.450     1183.228      870.352      418.219        1.071        0.124      137.641       20.436        0.022      340.582       14.702      868.003
05/11/2013  03:14:00     -119.003      -30.662       -2.390       41.318       28.427       19.832     1707.216      808.109      393.327        0.901        0.145      122.890       19.684        0.026      340.531       14.616      868.007
05/11/2013  03:15:00      -79.846      -59.240        4.912       42.656       26.452       17.562     1819.541      699.714      308.411        0.637        0.141       99.422       17.281        0.030      340.698       14.898      868.004
05/11/2013  03:16:00     -114.751      -59.963       -5.391       25.353       36.412       16.777      642.781     1325.802      281.473        0.952        0.113      129.473       14.985        0.013      340.754       14.993      868.015
05/11/2013  03:17:00      -87.926      -45.348        6.298       44.990       31.396       20.165     2024.123      985.708      406.617        0.662        0.171       98.931       22.926        0.054      340.703       14.906      868.033
05/11/2013  03:18:00     -102.954      -49.306       -1.574       32.393       27.886       17.163     1049.298      777.621      294.552        0.758        0.106      114.152       16.568        0.021      340.640       14.799      868.038
05/11/2013  03:19:00      -91.217      -53.526       -1.167       29.795       21.401       16.520      887.753      458.006      272.894        0.640        0.081      105.762       17.385        0.027      340.641       14.802      868.046
05/11/2013  03:20:00      -66.174      -45.074        0.486       24.335       24.295       15.529      592.170      590.233      241.157        0.392        0.071       80.067       12.680        0.025      340.746       14.980      868.052
05/11/2013  03:21:00      -17.394      -20.431       15.331       28.271       17.113       20.271      799.261      292.858      410.911        0.123        0.075       26.832       17.235        0.413      340.702       14.906      868.047
05/11/2013  03:22:00      -78.141      -41.843       -1.849       36.245       22.674       14.633     1313.701      514.102      214.128        0.495        0.102       88.639       12.650        0.020      340.707       14.914      868.046
05/11/2013  03:23:00      -75.782      -42.566        8.434       37.945       28.336       21.698     1439.859      802.926      470.811        0.517        0.136       86.919       20.720        0.057      340.655       14.826      868.056
05/11/2013  03:24:00     -107.786      -36.787       -2.680       29.387       21.860       16.959      863.570      477.870      287.620        0.730        0.081      113.890       13.274        0.014      340.610       14.749      868.072
05/11/2013  03:25:00      -57.861      -39.635        4.003       41.880       24.515       18.283     1753.945      600.997      334.267        0.381        0.134       70.134       15.383        0.048      340.723       14.941      868.077
05/11/2013  03:26:00      -43.523      -41.340        5.127       33.892       26.922       18.372     1148.656      724.802      337.526        0.292        0.111       60.027       20.601        0.118      340.743       14.975      868.074
05/11/2013  03:27:00      -70.347      -37.381       -3.111       28.635       25.666       14.695      819.989      658.719      215.939        0.402        0.085       79.662       16.839        0.045      340.789       15.052      868.073
05/11/2013  03:28:00      -58.791      -49.426        2.767       43.195       29.766       21.199     1865.834      886.019      449.391        0.455        0.160       76.807       23.370        0.093      340.806       15.081      868.084
05/11/2013  03:29:00      -71.113      -58.188        2.548       41.277       30.477       19.375     1703.769      928.878      375.386        0.573        0.150       91.885       18.759        0.042      340.808       15.084      868.074
05/11/2013  03:30:00      -46.660      -27.004        3.556       39.848       27.633       17.942     1587.857      763.604      321.910        0.280        0.134       53.911       18.208        0.114      340.797       15.066      868.062
05/11/2013  03:31:00      -72.750      -44.335       -1.047       18.594       17.527       13.159      345.731      307.205      173.158        0.404        0.041       85.195       10.968        0.017      340.809       15.084      868.059
05/11/2013  03:32:00      -82.662      -33.728       -5.818       22.574       16.203        9.477      509.571      262.525       89.812        0.443        0.043       89.278        8.470        0.009      340.786       15.049      868.069
05/11/2013  03:33:00      -98.476      -24.484       -5.959       24.796       24.375       15.451      614.863      594.121      238.726        0.589        0.072      101.474       13.118        0.017      340.678       14.865      868.066
05/11/2013  03:34:00      -47.029      -26.271        6.238       47.520       25.897       18.934     2258.124      670.652      358.484        0.311        0.164       53.869       22.848        0.180      340.610       14.750      868.073
05/11/2013  03:35:00     -114.088      -31.972       -0.573       40.384       22.634       16.036     1630.898      512.294      257.154        0.822        0.120      118.484       17.038        0.021      340.563       14.670      868.091
05/11/2013  03:36:00     -108.022      -31.232        1.403       51.495       22.699       18.186     2651.763      515.252      330.727        0.807        0.175      112.447       22.469        0.040      340.542       14.634      868.101
05/11/2013  03:37:00     -117.576      -42.856        8.788       46.286       32.214       20.355     2142.366     1037.739      414.306        0.967        0.180      125.143       22.096        0.031      340.606       14.742      868.103
05/11/2013  03:38:00     -129.153      -46.835       -7.034       19.535       18.782       12.555      381.618      352.752      157.616        0.991        0.045      137.383        3.401        0.001      340.592       14.719      868.115
05/11/2013  03:39:00      -83.857      -24.165        5.394       30.194       25.786       14.937      911.667      664.919      223.119        0.472        0.090       87.269       14.403        0.027      340.504       14.570      868.119
05/11/2013  03:40:00      -89.519      -23.628        2.735       47.282       29.477       18.899     2235.581      868.879      357.175        0.602        0.173       92.585       21.604        0.054      340.505       14.572      868.125
05/11/2013  03:41:00     -108.428      -37.405        0.941       35.583       27.921       20.105     1266.119      779.608      404.206        0.780        0.122      114.699       14.419        0.016      340.561       14.666      868.117
05/11/2013  03:42:00      -83.456      -24.393        3.071       46.306       29.513       22.429     2144.266      871.000      503.075        0.554        0.176       86.947       23.150        0.071      340.409       14.409      868.109
05/11/2013  03:43:00     -137.675      -19.538       -8.584       41.999       29.894       23.693     1763.885      893.635      561.343        1.131        0.161      139.054       21.037        0.023      340.290       14.208      868.106
05/11/2013  03:44:00     -110.342      -23.576        3.423       46.729       28.612       21.968     2183.568      818.651      482.608        0.811        0.174      112.832       23.140        0.042      340.270       14.174      868.110
05/11/2013  03:45:00     -125.975      -45.814       -4.397       31.555       24.178       18.412      995.732      584.567      338.995        0.995        0.096      134.047       15.128        0.013      340.404       14.401      868.113
05/11/2013  03:46:00     -126.820      -34.427       -6.267       17.499       20.077       13.580      306.208      403.101      184.428        0.910        0.045      131.410       12.222        0.009      340.495       14.555      868.104
05/11/2013  03:47:00      -96.679      -41.917       -4.225       32.061       18.547       15.685     1027.926      344.000      246.025        0.637        0.081      105.375        8.831        0.007      340.477       14.524      868.106
05/11/2013  03:48:00      -81.629       -3.103       -6.571       30.846       22.384       19.022      951.481      501.059      361.829        0.426        0.091       81.688       18.115        0.049      340.257       14.152      868.120
05/11/2013  03:49:00      -68.037      -21.688       -1.061       23.912       27.208       20.493      571.761      740.255      419.953        0.342        0.087       71.410       17.563        0.060      340.246       14.134      868.127
05/11/2013  03:50:00      -68.530      -23.775       -2.986       45.599       21.550       18.664     2079.310      464.386      348.350        0.408        0.145       72.537       22.602        0.097      340.288       14.206      868.119
05/11/2013  03:51:00      -81.460      -16.594       -2.408       24.256       23.504       13.524      588.371      552.460      182.900        0.412        0.066       83.133       11.918        0.021      340.292       14.211      868.096
05/11/2013  03:52:00     -104.132      -11.373       -5.738       18.449       15.527        9.649      340.348      241.096       93.109        0.584        0.034      104.751        6.486        0.004      340.251       14.142      868.090
05/11/2013  03:53:00     -107.860      -11.594       -6.745       24.428       16.068       12.635      596.713      258.173      159.642        0.641        0.051      108.481       10.263        0.009      340.165       13.996      868.073
05/11/2013  03:54:00      -84.365        1.559        0.973       45.538       22.135       20.807     2073.703      489.954      432.926        0.506        0.150       84.379       26.145        0.096      340.061       13.822      868.049
05/11/2013  03:55:00     -119.443       -2.553       -4.604       32.148       21.594       21.419     1033.477      466.291      458.756        0.813        0.098      119.471       21.487        0.032      340.051       13.806      868.031
05/11/2013  03:56:00     -109.884       -9.690       -1.905       32.328       23.399       17.077     1045.086      547.502      291.610        0.703        0.094      110.311       18.153        0.027      340.127       13.934      868.012
05/11/2013  03:57:00      -92.221      -21.226       -2.469       35.423       25.263       17.000     1254.774      638.209      289.013        0.557        0.109       94.633       16.999        0.032      340.094       13.878      868.016
05/11/2013  03:58:00     -116.375      -14.982       -4.134       36.943       25.338       22.236     1364.770      641.991      494.446        0.814        0.125      117.335       19.010        0.026      340.065       13.828      868.014
05/11/2013  03:59:00      -91.917       -0.635        0.778       41.996       29.041       21.363     1763.659      843.390      456.372        0.576        0.153       91.919       21.197        0.053      340.031       13.772      868.011
05/11/2013  04:00:00      -90.017      -18.528        1.966       31.377       25.703       18.637      984.547      660.644      347.340        0.522        0.100       91.904       16.117        0.031      340.065       13.828      868.008
05/11/2013  04:01:00     -108.407       -3.924       -2.028       34.678       25.464       18.871     1202.534      648.398      356.110        0.699        0.110      108.478       15.901        0.021      339.930       13.601      868.005
05/11/2013  04:02:00     -136.666        7.192      -13.380       38.082       23.538       18.588     1450.251      554.014      345.529        1.063        0.117      136.855       17.876        0.017      340.028       13.765      868.007
05/11/2013  04:03:00     -147.836       27.399      -14.087       29.734       23.489       16.446      884.113      551.732      270.475        1.226        0.085      150.353       11.128        0.005      340.176       14.016      868.008
05/11/2013  04:04:00     -113.280       32.556      -10.858       62.806       34.622       22.788     3944.632     1198.653      519.270        0.984        0.283      117.865       25.104        0.045      340.308       14.238      867.998
05/11/2013  04:05:00     -155.816        2.321      -18.563       26.958       39.665       19.494      726.720     1573.308      380.007        1.365        0.134      155.833       14.758        0.009      340.252       14.144      867.997
05/11/2013  04:06:00     -130.863      -15.325       -1.006       48.453       33.204       26.858     2347.719     1102.505      721.329        1.077        0.209      131.758       28.399        0.046      340.184       14.028      867.996
05/11/2013  04:07:00     -130.503      -32.108      -10.955       47.929       40.788       22.571     2297.163     1663.668      509.439        1.133        0.224      134.394       19.144        0.020      340.113       13.910      867.978
05/11/2013  04:08:00     -161.322        8.499      -13.172       38.801       27.726       22.881     1505.509      768.754      523.531        1.453        0.140      161.546       19.861        0.015      340.006       13.728      867.974
05/11/2013  04:09:00     -109.126       -5.128      -12.060       39.884       31.871       25.184     1590.719     1015.784      634.217        0.766        0.162      109.247       29.966        0.075      339.961       13.654      867.966
05/11/2013  04:10:00     -112.445       -0.490       -4.990       54.455       32.293       17.338     2965.326     1042.859      300.620        0.849        0.215      112.446       20.931        0.035      339.992       13.705      867.971
05/11/2013  04:11:00     -100.567      -15.210      -10.992       30.723       22.586       18.672      943.931      510.142      348.636        0.613        0.090      101.710       16.287        0.026      340.023       13.758      867.963
05/11/2013  04:12:00      -79.527      -17.458        1.418       36.890       25.186       19.260     1360.842      634.357      370.953        0.450        0.118       81.421       19.666        0.058      339.980       13.685      867.956
05/11/2013  04:13:00     -101.121      -11.514        2.508       40.902       23.501       17.651     1672.939      552.295      311.555        0.645        0.127      101.775       19.407        0.036      340.001       13.721      867.950
05/11/2013  04:14:00     -109.927      -40.399        6.260       40.623       23.073       20.038     1650.211      532.371      401.509        0.817        0.129      117.115       17.099        0.021      340.033       13.775      867.953
05/11/2013  04:15:00     -112.196      -56.117       -1.834       45.248       29.542       20.081     2047.389      872.733      403.232        0.953        0.166      125.447       17.782        0.020      340.081       13.855      867.946
05/11/2013  04:16:00     -143.431      -50.728       -6.674       56.554       38.360       24.978     3198.377     1471.459      623.892        1.424        0.265      152.137       29.576        0.038      340.075       13.845      867.936
05/11/2013  04:17:00     -120.804      -12.878       -0.581       40.935       28.256       24.544     1675.649      798.376      602.417        0.892        0.154      121.489       22.906        0.036      339.967       13.664      867.931
05/11/2013  04:18:00     -151.310      -18.817       -5.932       37.270       28.306       22.641     1389.047      801.249      512.595        1.299        0.135      152.475       16.632        0.012      339.902       13.552      867.934
05/11/2013  04:19:00     -145.368      -23.291       -5.243       37.531       34.800       22.699     1408.548     1211.020      515.245        1.242        0.157      147.222       20.056        0.019      339.888       13.530      867.937
05/11/2013  04:20:00     -125.966      -44.572       -9.003       29.221       27.042       19.410      853.858      731.288      376.764        0.995        0.098      133.620       17.538        0.017      339.956       13.644      867.937
05/11/2013  04:21:00     -131.815      -18.701      -14.094       27.286       34.822       19.726      744.514     1212.545      389.117        1.013        0.117      133.135       16.349        0.015      339.905       13.560      867.949
05/11/2013  04:22:00     -134.716      -75.452       -9.213       29.827       31.131       18.857      889.634      969.143      355.591        1.307        0.111      154.407       14.366        0.009      339.863       13.490      867.949
05/11/2013  04:23:00     -144.036      -31.705      -13.530       32.858       34.840       17.775     1079.647     1213.829      315.944        1.227        0.130      147.484       12.268        0.007      339.857       13.476      867.945
05/11/2013  04:24:00     -118.253      -11.697      -12.678       40.775       31.525       20.040     1662.576      993.810      401.619        0.867        0.153      118.830       20.038        0.028      339.846       13.461      867.938
05/11/2013  04:25:00     -127.922      -12.310      -13.527       31.344       24.132       19.243      982.465      582.364      370.280        0.932        0.097      128.513       16.321        0.016      339.798       13.380      867.947
05/11/2013  04:26:00     -139.294       27.770      -13.412       35.657       28.155       21.000     1271.405      792.688      440.997        1.143        0.125      142.035       17.593        0.015      339.868       13.498      867.940
05/11/2013  04:27:00     -159.382       20.474      -15.645       29.809       44.441       23.097      888.567     1975.027      533.467        1.473        0.170      160.692       15.546        0.009      339.929       13.599      867.925
05/11/2013  04:28:00     -120.413      -25.897      -14.809       28.455       39.134       22.226      809.708     1531.471      494.010        0.911        0.142      123.166       11.563        0.009      339.879       13.515      867.920
05/11/2013  04:29:00     -109.125      -24.734      -11.344       46.599       33.758       24.095     2171.483     1139.579      580.545        0.827        0.195      111.893       22.703        0.041      339.916       13.578      867.921
05/11/2013  04:30:00     -170.480       17.335      -14.584       39.940       33.831       18.054     1595.176     1144.564      325.958        1.632        0.153      171.359       14.884        0.008      339.962       13.655      867.927
05/11/2013  04:31:00     -160.205       34.265      -11.473       47.430       30.489       24.010     2249.637      929.552      576.497        1.536        0.188      163.828       22.885        0.020      339.966       13.661      867.926
05/11/2013  04:32:00     -152.220       47.877      -10.877       41.221       33.192       21.585     1699.174     1101.701      465.904        1.442        0.163      159.572       14.162        0.008      340.021       13.754      867.929
05/11/2013  04:33:00     -159.684       40.008      -11.107       42.005       34.461       17.873     1764.415     1187.544      319.451        1.525        0.164      164.620       16.547        0.010      340.039       13.785      867.934
05/11/2013  04:34:00     -142.100        1.061      -14.209       38.897       28.524       17.303     1513.008      813.645      299.386        1.151        0.131      142.104       19.045        0.018      340.015       13.744      867.926
05/11/2013  04:35:00     -122.996      -20.968      -18.490       34.562       36.406       17.739     1194.541     1325.409      314.685        0.937        0.142      124.770       10.722        0.007      339.946       13.628      867.925
05/11/2013  04:36:00     -129.169      -41.468       -9.095       32.010       33.863       24.642     1024.608     1146.684      607.205        1.063        0.139      135.662       20.751        0.023      339.822       13.419      867.932
05/11/2013  04:37:00     -115.649      -18.678       -5.819       34.312       32.009       21.189     1177.326     1024.567      448.953        0.820        0.133      117.148       19.168        0.027      339.765       13.322      867.937
05/11/2013  04:38:00     -105.163      -22.964       -3.020       29.479       19.308       18.064      869.017      372.785      326.299        0.658        0.078      107.641       15.590        0.021      339.831       13.434      867.943
05/11/2013  04:39:00     -101.636      -46.989       -5.061       29.103       26.698       18.378      846.978      712.761      337.757        0.723        0.095      111.972       14.795        0.017      339.940       13.618      867.960
05/11/2013  04:40:00      -84.951      -33.629       -2.469       35.811       30.256       16.791     1282.426      915.455      281.950        0.542        0.124       91.365       20.188        0.049      340.013       13.740      867.960
05/11/2013  04:41:00      -11.521      -11.901        9.007       18.176       16.947       11.676      330.378      287.185      136.319        0.055        0.038       16.564        7.765        0.220      340.108       13.902      867.959
05/11/2013  04:42:00       25.958       -6.671        6.234       21.519       15.701       15.737      463.088      246.534      247.653        0.086        0.048       26.801       14.130        0.278      340.182       14.025      867.975
05/11/2013  04:43:00       48.031       30.208        8.906       13.414       12.112       16.008      179.927      146.691      256.262        0.194        0.029       56.740        9.005        0.025      340.156       13.982      867.971
05/11/2013  04:44:00        2.096       -3.325       -0.888        9.592       22.786        8.217       91.998      519.197       67.525        0.035        0.034        3.931        3.791        0.930      340.230       14.107      867.971
05/11/2013  04:45:00        3.983      -32.659        5.310        9.805       12.809       11.156       96.138      164.080      124.459        0.075        0.019       32.901        2.888        0.008      340.383       14.368      867.983
05/11/2013  04:46:00        3.034      -35.691        2.488       19.400       46.718       26.030      376.363     2182.570      677.563        0.226        0.162       35.820       23.633        0.435      340.333       14.282      867.993
05/11/2013  04:47:00        0.652      -64.640      -23.213       34.709       31.801       17.176     1204.687     1011.327      295.004        0.361        0.126       64.643       19.098        0.087      340.295       14.218      868.000
05/11/2013  04:48:00      -25.444       -9.449       -6.670       15.867       14.740        8.202      251.768      217.259       67.278        0.066        0.027       27.142        6.686        0.061      340.249       14.140      868.017
05/11/2013  04:49:00        4.315       -1.804        5.301       11.172       19.823       16.488      124.817      392.963      271.842        0.042        0.039        4.677       14.406        9.488      340.277       14.188      868.019
05/11/2013  04:50:00      -35.883      -34.766       -1.155       27.123       31.057       15.632      735.667      964.547      244.356        0.222        0.097       49.963       16.786        0.113      340.575       14.692      868.024
05/11/2013  04:51:00      -31.933      -34.222        5.014       26.336       15.525       13.554      693.594      241.034      183.698        0.167        0.056       46.806       13.589        0.084      340.612       14.753      868.034
05/11/2013  04:52:00      -12.094       11.438       30.590       19.814       35.287       21.934      392.576     1245.189      481.084        0.167        0.106       16.647       23.979        2.075      340.395       14.387      868.066
05/11/2013  04:53:00      -32.953        3.427        8.652       14.206       17.569       17.122      201.799      308.685      293.169        0.099        0.040       33.131       10.903        0.108      340.295       14.216      868.087
05/11/2013  04:54:00      -37.103       -3.923        2.468       21.196       23.207       16.328      449.279      538.574      266.610        0.133        0.063       37.310        5.176        0.019      340.515       14.588      868.091
05/11/2013  04:55:00        9.597      -46.721       11.277       15.628       39.830       21.387      244.220     1586.445      457.391        0.234        0.114       47.697       13.747        0.083      340.600       14.733      868.090
05/11/2013  04:56:00        3.209        8.441       11.961       15.312       21.072       22.304      234.443      444.010      497.465        0.070        0.059        9.030       15.840        3.077      340.303       14.230      868.104
05/11/2013  04:57:00        5.313       -3.574       -6.327        7.910       13.371        7.897       62.571      178.771       62.370        0.019        0.015        6.403        7.135        1.242      340.224       14.097      868.123
05/11/2013  04:58:00        4.537        8.990        8.452        9.376       10.853        8.525       87.913      117.783       72.681        0.023        0.014       10.070        6.780        0.453      340.221       14.092      868.129
05/11/2013  04:59:00       17.180      -23.079        5.278       16.808       16.718        9.856      282.515      279.486       97.136        0.076        0.033       28.771        4.595        0.026      340.386       14.372      868.124
05/11/2013  05:00:00       16.180      -18.210        2.038       14.311       20.289       12.315      204.815      411.633      151.666        0.068        0.038       24.360        8.908        0.134      340.494       14.553      868.129
05/11/2013  05:01:00        3.625       18.865       13.810        9.489        7.040        8.079       90.041       49.566       65.277        0.038        0.010       19.210        5.899        0.094      340.357       14.323      868.131
05/11/2013  05:02:00       -3.909       17.568        2.816        6.538       13.162       10.197       42.742      173.241      103.978        0.033        0.016       17.997       10.065        0.313      340.264       14.163      868.129
05/11/2013  05:03:00       -5.940       14.798       -2.367        6.890       10.416        4.970       47.478      108.485       24.706        0.022        0.009       15.945        1.970        0.015      340.244       14.132      868.121
05/11/2013  05:04:00      -15.006       13.571        4.044        8.085        7.842        6.466       65.373       61.493       41.804        0.030        0.008       20.232        4.091        0.041      340.250       14.140      868.121
05/11/2013  05:05:00      -28.632       10.351       -3.964        8.053        6.642        5.276       64.855       44.113       27.839        0.054        0.007       30.445        4.522        0.022      340.242       14.126      868.131
05/11/2013  05:06:00      -54.038        8.218       -6.752       15.238       14.844        5.543      232.200      220.357       30.724        0.176        0.024       54.659        6.527        0.014      340.100       13.887      868.122
05/11/2013  05:07:00      -77.855       -5.569       -5.808       32.414       19.794        9.177     1050.669      391.804       84.224        0.383        0.076       78.054       11.430        0.021      340.045       13.795      868.123
05/11/2013  05:08:00      -72.338        6.016       -6.228       19.568       11.544        8.016      382.906      133.255       64.255        0.294        0.029       72.587        5.411        0.006      340.085       13.862      868.123
05/11/2013  05:09:00      -37.403      -10.617        5.959       26.768       20.981       12.146      716.545      440.187      147.529        0.143        0.065       38.881        7.956        0.042      340.172       14.009      868.123
05/11/2013  05:10:00      -26.863      -27.902        0.319       20.202       20.784       15.227      408.140      431.970      231.867        0.129        0.054       38.732       15.579        0.162      340.098       13.884      868.124
05/11/2013  05:11:00      -45.935       11.403       -5.107       11.146        8.931        7.997      124.244       79.756       63.946        0.127        0.013       47.329        3.184        0.005      339.979       13.683      868.131
05/11/2013  05:12:00      -50.772        3.403       -7.106       11.792        8.671        9.224      139.047       75.189       85.085        0.147        0.015       50.886        7.913        0.024      340.034       13.775      868.132
05/11/2013  05:13:00      -43.123      -10.498       -2.909        7.275       10.008        5.737       52.929      100.165       32.917        0.108        0.009       44.382        1.880        0.002      339.918       13.581      868.136
05/11/2013  05:14:00      -43.596      -14.816       -4.114        7.729        7.552        5.358       59.744       57.025       28.708        0.114        0.007       46.045        3.805        0.007      339.976       13.680      868.135
05/11/2013  05:15:00      -54.982       14.459       -1.736       17.453       11.273        8.994      304.594      127.088       80.891        0.187        0.026       56.851        7.846        0.019      340.035       13.777      868.127
05/11/2013  05:16:00      -28.811       -6.749       -5.128       11.001       10.269        7.570      121.023      105.459       57.301        0.059        0.014       29.591        4.279        0.021      340.068       13.832      868.120
05/11/2013  05:17:00      -31.008       -1.506       -8.588       10.647        9.240        5.970      113.364       85.378       35.646        0.064        0.012       31.045        3.880        0.016      340.061       13.824      868.110
05/11/2013  05:18:00      -40.775       -8.416       -6.636        8.125        9.612        5.323       66.016       92.386       28.336        0.098        0.009       41.635        3.796        0.008      340.028       13.767      868.101
05/11/2013  05:19:00      -35.494       -6.158       -2.925        8.308        7.599        5.419       69.021       57.750       29.371        0.073        0.008       36.024        2.484        0.005      340.063       13.824      868.090
05/11/2013  05:20:00      -50.406      -18.121       -5.775        7.730        7.401        5.889       59.754       54.771       34.681        0.153        0.007       53.564        2.407        0.002      339.953       13.639      868.076
05/11/2013  05:21:00      -49.718      -19.317       -8.591        9.007        8.694        6.638       81.128       75.584       44.062        0.156        0.010       53.338        4.145        0.006      339.898       13.548      868.064
05/11/2013  05:22:00      -50.025      -15.254       -4.403        9.616        9.366        7.226       92.477       87.721       52.212        0.149        0.012       52.299        5.689        0.012      339.832       13.435      868.058
05/11/2013  05:23:00      -43.933       -2.081       -0.055       16.372       15.382       10.691      268.057      236.611      114.300        0.128        0.031       43.982        8.393        0.036      339.727       13.259      868.046
05/11/2013  05:24:00      -52.763        2.242       -9.359       14.549       10.906        7.113      211.674      118.937       50.589        0.163        0.019       52.811        6.424        0.015      339.690       13.196      868.049
05/11/2013  05:25:00      -44.073       -1.364       -7.951        8.681       10.366        7.766       75.365      107.458       60.304        0.113        0.012       44.094        5.114        0.013      339.674       13.171      868.050
05/11/2013  05:26:00      -48.679      -18.445       -8.411       13.404       12.818        8.145      179.661      164.293       66.337        0.160        0.021       52.056        7.087        0.019      339.718       13.242      868.059
05/11/2013  05:27:00      -69.839      -22.614      -13.117       14.660       14.995       10.490      214.915      224.859      110.035        0.306        0.027       73.409        7.029        0.009      339.579       13.009      868.073
05/11/2013  05:28:00      -48.691      -19.872       -9.008       16.544       21.949       20.857      273.707      481.764      435.009        0.202        0.060       52.590       11.569        0.048      339.627       13.092      868.079
05/11/2013  05:29:00       -7.447       -4.561      -12.892       21.864       22.306       20.224      478.054      497.549      409.005        0.081        0.069        8.733       15.178        3.021      339.587       13.022      868.089
05/11/2013  05:30:00      -65.592      -48.945       -3.557       46.301       31.044       19.040     2143.743      963.730      362.531        0.509        0.174       81.841       15.036        0.034      339.493       12.864      868.103
05/11/2013  05:31:00      -64.639      -75.166        3.232       46.868       37.818       23.458     2196.635     1430.217      550.275        0.701        0.209       99.137       25.470        0.066      339.410       12.723      868.120
05/11/2013  05:32:00      -61.288     -103.177       -6.725       37.842       34.163       18.618     1432.022     1167.142      346.636        0.870        0.147      120.007        6.526        0.003      339.557       12.970      868.138
05/11/2013  05:33:00      -80.142      -64.387       -5.604       46.260       28.599       21.470     2139.961      817.895      460.969        0.701        0.171      102.803       23.804        0.054      339.567       12.989      868.150
05/11/2013  05:34:00      -91.722      -46.259       -6.205       35.341       27.566       17.477     1248.970      759.869      305.449        0.645        0.116      102.727       13.217        0.017      339.728       13.262      868.164
05/11/2013  05:35:00      -58.676      -39.346        2.738       41.683       25.621       19.902     1737.441      656.438      396.088        0.389        0.139       70.646       21.948        0.097      339.669       13.160      868.170
05/11/2013  05:36:00      -58.977      -36.268        5.191       37.165       22.381       20.403     1381.208      500.896      416.268        0.356        0.115       69.236       20.745        0.090      339.698       13.209      868.172
05/11/2013  05:37:00     -129.898      -54.885       -0.025       36.799       26.209       20.656     1354.151      686.894      426.684        1.118        0.123      141.017       19.940        0.020      339.685       13.186      868.163
05/11/2013  05:38:00     -124.678      -66.580        1.260       29.673       36.256       18.900      880.477     1314.523      357.214        1.127        0.128      141.342       13.823        0.010      339.620       13.079      868.159
05/11/2013  05:39:00     -130.999      -40.083       -2.145       32.923       30.998       20.382     1083.908      960.871      415.437        1.062        0.123      136.994       18.342        0.018      339.647       13.122      868.152
05/11/2013  05:40:00     -126.416      -53.547       -1.875       31.295       38.933       18.146      979.370     1515.815      329.288        1.084        0.141      137.289       18.770        0.019      339.672       13.166      868.150
05/11/2013  05:41:00     -142.230      -52.252       -1.799       61.769       45.511       28.567     3815.395     2071.278      816.092        1.483        0.335      151.524       26.740        0.031      339.501       12.876      868.162
05/11/2013  05:42:00     -156.904      -83.563       -4.299       44.589       33.530       29.264     1988.138     1124.233      856.409        1.779        0.198      177.769       24.965        0.020      339.491       12.860      868.159
05/11/2013  05:43:00     -146.830      -61.572       -8.627       38.220       33.288       20.126     1460.731     1108.085      405.053        1.420        0.149      159.217       15.567        0.010      339.382       12.676      868.158
05/11/2013  05:44:00     -159.390      -31.927      -13.665       25.373       31.822       16.646      643.791     1012.633      277.081        1.427        0.097      162.556       15.263        0.009      339.412       12.727      868.171
05/11/2013  05:45:00     -135.297      -26.562      -10.233       45.377       22.231       21.585     2059.087      494.203      465.917        1.107        0.151      137.880       23.263        0.028      339.436       12.769      868.192
05/11/2013  05:46:00     -112.567      -13.084       -9.830       27.185       39.409       17.213      739.023     1553.080      296.292        0.776        0.129      113.325       16.565        0.021      339.503       12.879      868.198
05/11/2013  05:47:00     -106.384      -33.478      -12.634       25.945       30.742       18.221      673.128      945.041      332.010        0.727        0.098      111.527       12.438        0.012      339.541       12.945      868.204
05/11/2013  05:48:00     -153.238      -50.695      -13.581       20.316       20.799       16.764      412.738      432.614      281.036        1.368        0.056      161.406        7.764        0.002      339.554       12.968      868.218
05/11/2013  05:49:00     -136.907      -23.871      -14.752       20.470       17.039       16.272      419.003      290.316      264.780        1.025        0.049      138.972       13.468        0.009      339.540       12.942      868.229
05/11/2013  05:50:00     -140.589      -42.225       -7.842       23.976       19.421       19.378      574.829      377.188      375.504        1.147        0.066      146.794       16.588        0.013      339.632       13.099      868.215
05/11/2013  05:51:00     -120.689      -19.113        0.932       37.548       20.358       19.461     1409.887      414.454      378.722        0.857        0.110      122.193       20.213        0.027      339.687       13.191      868.205
05/11/2013  05:52:00     -151.432      -26.128      -14.169       15.712       19.362       10.416      246.877      374.896      108.489        1.227        0.037      153.669        5.446        0.001      339.744       13.286      868.205
05/11/2013  05:53:00     -117.344      -19.402       -5.726       37.603       25.302       19.893     1414.022      640.169      395.738        0.831        0.122      118.937       20.974        0.031      339.808       13.395      868.192
05/11/2013  05:54:00     -144.424        1.424      -12.423       29.349       26.704       15.299      861.335      713.124      234.061        1.141        0.090      144.431       12.042        0.007      339.954       13.641      868.186
05/11/2013  05:55:00      -92.943       -3.130        1.113       36.291       30.317       20.310     1317.021      919.115      412.507        0.565        0.132       92.996       18.147        0.038      339.970       13.668      868.173
05/11/2013  05:56:00     -113.928       12.732       -4.960       35.160       24.936       20.871     1236.259      621.798      435.602        0.773        0.115      114.638       17.199        0.023      340.020       13.752      868.182
05/11/2013  05:57:00     -101.091       -0.477      -10.494       21.368       32.191       14.265      456.595     1036.255      203.496        0.601        0.085      101.092        4.445        0.002      339.899       13.548      868.181
05/11/2013  05:58:00      -93.740      -40.521       -5.465       27.832       28.289       17.248      774.629      800.254      297.493        0.617        0.094      102.123       15.818        0.024      339.709       13.229      868.179
05/11/2013  05:59:00     -121.623      -47.660      -11.150       15.485       20.557       13.567      239.797      422.589      184.076        0.902        0.042      130.628        4.820        0.001      339.656       13.139      868.184
05/11/2013  06:00:00      -81.980      -35.589        2.718       28.264       19.908       13.692      798.848      396.322      187.484        0.469        0.069       89.372       13.166        0.022      339.736       13.276      868.204
05/11/2013  06:01:00      -72.779      -48.595        3.616       30.080       19.857       12.685      904.785      394.303      160.910        0.457        0.073       87.511       11.431        0.017      339.831       13.436      868.220
05/11/2013  06:02:00      -93.775      -41.443       -1.604       49.768       32.782       22.599     2476.870     1074.630      510.730        0.729        0.203      102.524       22.295        0.047      339.723       13.253      868.227
05/11/2013  06:03:00     -131.365      -73.294       -1.956       35.614       42.529       24.100     1268.361     1808.692      580.822        1.314        0.183      150.429       17.458        0.013      339.779       13.346      868.232
05/11/2013  06:04:00     -179.998      -99.192      -12.473       36.916       43.854       27.746     1362.800     1923.133      769.852        2.322        0.203      205.520       18.819        0.008      339.646       13.119      868.247
05/11/2013  06:05:00     -148.686      -70.240       -6.639       49.312       51.702       21.710     2431.720     2673.075      471.323        1.633        0.279      164.442       22.564        0.019      339.646       13.119      868.262
05/11/2013  06:06:00     -113.614      -72.025      -10.199       40.354       42.808       19.860     1628.406     1832.540      394.412        1.103        0.193      134.520       11.655        0.008      339.717       13.242      868.277
05/11/2013  06:07:00     -130.520      -82.855       -9.417       35.754       34.051       29.314     1278.317     1159.452      859.336        1.364        0.165      154.598       24.937        0.026      339.730       13.264      868.280
05/11/2013  06:08:00      -94.562      -11.234        6.696       53.088       41.330       26.269     2818.345     1708.184      690.052        0.716        0.261       95.226       32.111        0.114      339.679       13.178      868.276
05/11/2013  06:09:00     -144.664      -28.081       -4.605       53.456       36.666       25.665     2857.536     1344.414      658.685        1.330        0.243      147.364       24.692        0.028      339.690       13.197      868.276
05/11/2013  06:10:00     -146.394      -27.511       -6.957       49.008       35.311       26.224     2401.803     1246.845      687.713        1.329        0.217      148.956       29.368        0.039      339.696       13.206      868.271
05/11/2013  06:11:00     -160.708      -33.698       -7.418       36.351       32.753       22.677     1321.365     1072.786      514.246        1.496        0.145      164.203       22.124        0.018      339.616       13.071      868.283
05/11/2013  06:12:00     -156.504      -25.750       -3.567       51.121       43.990       26.512     2613.381     1935.103      702.891        1.521        0.263      158.608       25.948        0.027      339.571       12.996      868.305
05/11/2013  06:13:00     -142.600      -42.551       -0.735       38.283       34.832       22.066     1465.617     1213.267      486.887        1.266        0.158      148.813       19.793        0.018      339.605       13.053      868.324
05/11/2013  06:14:00      -97.999      -26.841        6.231       56.120       30.800       23.964     3149.507      948.626      574.267        0.752        0.234      101.608       27.749        0.075      339.600       13.044      868.344
05/11/2013  06:15:00      -93.155      -33.224       -1.379       32.044       21.915       18.495     1026.793      480.249      342.071        0.582        0.092       98.903       19.616        0.039      339.618       13.075      868.363
05/11/2013  06:16:00      -76.103      -26.613       -1.506       23.287       15.990       14.137      542.267      255.679      199.854        0.375        0.050       80.622       11.159        0.019      339.630       13.096      868.378
05/11/2013  06:17:00      -57.602      -44.540       -7.672       21.422       19.960       16.959      458.888      398.398      287.622        0.325        0.057       72.813       16.260        0.050      339.733       13.269      868.390
05/11/2013  06:18:00      -30.488       -8.820       -0.414        9.655       13.841       10.124       93.221      191.587      102.495        0.070        0.019       31.738        5.704        0.032      339.762       13.316      868.388
05/11/2013  06:19:00      -47.959       -8.865       -5.868       20.904       11.627        8.856      436.958      135.194       78.436        0.153        0.033       48.772        7.005        0.021      339.772       13.334      868.389
05/11/2013  06:20:00      -58.680        4.300       -4.715       21.343       12.771       13.133      455.523      163.088      172.466        0.214        0.040       58.838       13.195        0.050      339.737       13.277      868.386
05/11/2013  06:21:00      -77.939        1.280       -7.702       12.100        9.103        7.854      146.405       82.860       61.685        0.321        0.015       77.949        4.700        0.004      339.695       13.204      868.382
05/11/2013  06:22:00      -88.525      -18.764      -10.136       18.144       22.151       10.850      329.206      490.669      117.713        0.461        0.047       90.492        9.808        0.012      339.703       13.216      868.387
05/11/2013  06:23:00      -61.748       -3.198       -0.448       25.877       27.825       18.132      669.611      774.256      328.781        0.280        0.089       61.830       11.143        0.032      339.601       13.047      868.395
05/11/2013  06:24:00     -117.603       27.287      -12.297       21.016       16.600       13.134      441.662      275.572      172.491        0.781        0.044      120.727        6.418        0.003      339.592       13.029      868.400
05/11/2013  06:25:00      -91.983      -10.298       -4.616       22.451       24.843       11.282      504.039      617.183      127.281        0.492        0.062       92.558        8.159        0.008      339.695       13.205      868.408
05/11/2013  06:26:00      -74.505      -28.990       -8.808       18.508       12.551       11.973      342.533      157.518      143.359        0.356        0.032       79.947       10.234        0.016      339.803       13.386      868.411
05/11/2013  06:27:00      -64.263      -40.131       -4.247       15.341       12.968        6.689      235.344      168.161       44.738        0.310        0.022       75.764        6.193        0.007      339.846       13.459      868.407
05/11/2013  06:28:00      -60.374      -45.362       -3.761       33.553       27.550       17.294     1125.789      759.008      299.077        0.395        0.109       75.516       12.671        0.028      339.805       13.389      868.421
05/11/2013  06:29:00      -29.418      -25.684        5.472       27.726       27.616       21.030      768.737      762.630      442.272        0.176        0.099       39.053       17.939        0.211      339.833       13.437      868.439
05/11/2013  06:30:00      -32.281      -26.175       -1.835       18.215       10.564        6.538      331.797      111.604       42.748        0.111        0.024       41.560        4.527        0.012      339.797       13.379      868.447
05/11/2013  06:31:00      -19.546      -16.419       -2.780       15.092        8.746        6.420      227.776       76.499       41.212        0.050        0.017       25.527        6.754        0.070      339.839       13.446      868.457
05/11/2013  06:32:00      -36.077      -37.200       -4.222       12.405       12.716        9.790      153.878      161.694       95.840        0.156        0.021       51.821        8.175        0.025      339.896       13.542      868.467
05/11/2013  06:33:00      -25.033      -49.453       -3.202        8.186       10.596        7.050       67.018      112.277       49.706        0.166        0.011       55.428        2.913        0.003      339.903       13.553      868.472
05/11/2013  06:34:00      -32.144      -41.381       -1.152       20.797       16.797       12.074      432.512      282.141      145.782        0.180        0.043       52.399       11.222        0.046      340.001       13.721      868.489
05/11/2013  06:35:00      -25.668      -54.231        3.312       67.709       48.118       27.542     4584.541     2315.381      758.574        0.563        0.383       59.999       34.558        0.332      339.948       13.632      868.516
05/11/2013  06:36:00     -111.755      -81.767      -12.722       44.672       34.698       25.613     1995.589     1203.983      656.034        1.160        0.193      138.474       21.014        0.023      339.701       13.216      868.528
05/11/2013  06:37:00     -119.810      -87.831       -8.068       44.999       38.467       20.987     2024.900     1479.727      440.467        1.304        0.197      148.555       12.430        0.007      339.711       13.231      868.545
05/11/2013  06:38:00     -116.577      -87.693        0.696       55.750       41.754       34.096     3108.105     1743.426     1162.519        1.365        0.301      145.877       32.905        0.051      339.710       13.231      868.540
05/11/2013  06:39:00     -114.202     -118.448       -5.533       57.539       60.305       31.633     3310.727     3636.683     1000.643        1.752        0.397      164.536       25.598        0.024      339.741       13.281      868.546
05/11/2013  06:40:00      -99.948      -64.299        4.840       67.457       46.983       34.121     4550.403     2207.415     1164.252        1.103        0.396      118.844       34.221        0.083      339.785       13.355      868.537
05/11/2013  06:41:00     -120.274      -83.700       -3.594       51.384       49.644       33.151     2640.336     2464.516     1098.963        1.384        0.310      146.532       30.204        0.042      339.786       13.358      868.545
05/11/2013  06:42:00     -106.552      -56.849        5.371       50.325       49.793       30.572     2532.650     2479.316      934.653        1.028        0.297      120.769       22.701        0.035      339.865       13.489      868.550
05/11/2013  06:43:00     -139.487      -81.296       -6.392       48.658       48.321       29.536     2367.588     2334.948      872.394        1.584        0.279      161.448       24.577        0.023      339.866       13.493      868.551
05/11/2013  06:44:00      -85.802      -56.279       12.181       61.545       59.211       36.997     3787.786     3505.943     1368.785        0.967        0.433      102.613       40.530        0.156      340.011       13.737      868.558
05/11/2013  06:45:00      -73.421      -45.257        2.467       52.306       33.326       27.824     2735.867     1110.622      774.185        0.603        0.231       86.249       24.308        0.079      339.961       13.653      868.549
05/11/2013  06:46:00      -80.186      -82.776       -8.000       48.296       42.014       22.929     2332.536     1765.218      525.718        0.898        0.231      115.247       16.779        0.021      339.975       13.678      868.550
05/11/2013  06:47:00      -63.757      -46.330       -9.842       27.730       18.666       17.125      768.965      348.437      293.280        0.386        0.071       78.813       12.533        0.025      340.067       13.834      868.563
05/11/2013  06:48:00      -58.722      -37.539       -5.540       36.117       23.148       19.926     1304.412      535.848      397.035        0.356        0.112       69.696       11.821        0.029      340.125       13.929      868.567
05/11/2013  06:49:00      -41.566      -61.002        2.396       28.958       31.138       16.551      838.560      969.581      273.942        0.377        0.104       73.817       11.412        0.024      340.162       13.991      868.580
05/11/2013  06:50:00      -89.092      -67.155      -11.676       27.866       29.125       22.436      776.492      848.292      503.387        0.736        0.106      111.567       17.365        0.024      340.096       13.881      868.585
05/11/2013  06:51:00      -77.003      -55.137        3.760       34.321       26.153       20.829     1177.937      683.982      433.846        0.564        0.115       94.708       12.666        0.018      340.102       13.892      868.588
05/11/2013  06:52:00      -84.109      -32.951        7.094       52.275       28.355       19.175     2732.682      803.994      367.662        0.606        0.195       90.333       23.760        0.069      340.186       14.033      868.587
05/11/2013  06:53:00      -81.982      -48.523       -5.971       32.986       28.988       16.719     1088.075      840.293      279.524        0.566        0.110       95.265       13.781        0.021      340.126       13.932      868.588
05/11/2013  06:54:00      -80.802      -53.870        1.595       53.012       40.785       22.213     2810.284     1663.391      493.419        0.720        0.248       97.113       19.983        0.042      340.159       13.988      868.590
05/11/2013  06:55:00     -103.157      -54.556        4.735       34.471       29.696       20.562     1188.243      881.881      422.811        0.807        0.125      116.695       17.415        0.022      340.185       14.030      868.590
05/11/2013  06:56:00     -104.149      -68.905       -0.673       37.227       28.949       19.582     1385.865      838.046      383.458        0.910        0.130      124.880       17.270        0.019      340.181       14.023      868.596
05/11/2013  06:57:00     -118.770      -86.474       -2.990       34.266       28.562       20.574     1174.184      815.761      423.276        1.200        0.121      146.915       14.415        0.010      340.208       14.068      868.594
05/11/2013  06:58:00     -107.983      -82.027        1.399       43.667       33.532       26.398     1906.771     1124.374      696.838        1.106        0.186      135.605       23.669        0.030      340.253       14.146      868.605
05/11/2013  06:59:00     -128.875     -101.831       -7.583       40.035       36.070       28.855     1602.811     1301.054      832.629        1.539        0.187      164.251       18.102        0.012      340.228       14.103      868.604
05/11/2013  07:00:00      -23.744      -70.440       20.500       34.184       34.413       26.799     1168.527     1184.222      718.204        0.451        0.154       74.334       22.447        0.091      340.294       14.215      868.616
05/11/2013  07:01:00      -50.955      -97.158       -4.479       29.160       46.736       22.785      850.322     2184.240      519.176        0.780        0.178      109.710       19.218        0.031      340.253       14.144      868.630
05/11/2013  07:02:00      -31.984     -135.686       -0.526       44.978       49.874       22.555     2023.041     2487.448      508.748        1.223        0.251      139.405       14.438        0.011      340.230       14.106      868.632
05/11/2013  07:03:00      -31.853      -84.668        5.003       36.885       43.028       18.358     1360.524     1851.427      337.031        0.588        0.177       90.461       19.932        0.049      340.284       14.198      868.640
05/11/2013  07:04:00      -33.823      -80.456        1.468       32.398       36.702       16.701     1049.627     1347.058      278.916        0.515        0.134       87.276       12.843        0.022      340.298       14.222      868.639
05/11/2013  07:05:00      -52.673      -97.043       -2.988       19.366       23.118       12.725      375.049      534.425      161.927        0.664        0.054      110.416       11.922        0.012      340.275       14.183      868.637
05/11/2013  07:06:00      -42.585      -83.777       -0.413       14.902       24.712       14.688      222.065      610.676      215.728        0.494        0.052       93.979        8.524        0.008      340.332       14.279      868.627
05/11/2013  07:07:00      -37.409      -59.928       -0.043       21.712       24.173       14.546      471.432      584.331      211.578        0.313        0.063       70.646       16.002        0.051      340.325       14.266      868.611
05/11/2013  07:08:00      -52.357      -51.226       -0.010       25.632       27.546       12.582      657.012      758.810      158.306        0.347        0.079       73.249       13.348        0.033      340.410       14.412      868.611
05/11/2013  07:09:00      -52.617      -32.941       -0.902       18.879       26.360       14.299      356.422      694.859      204.447        0.255        0.063       62.078       12.564        0.041      340.520       14.597      868.602
05/11/2013  07:10:00      -63.599      -57.021        0.847       42.747       27.833       18.038     1827.303      774.688      325.369        0.511        0.146       85.418       22.885        0.072      340.510       14.579      868.604
05/11/2013  07:11:00      -85.671      -15.285        4.405       40.429       35.801       23.020     1634.489     1281.720      529.934        0.552        0.172       87.024       20.168        0.054      340.526       14.606      868.596
05/11/2013  07:12:00      -59.945      -18.760       -1.328       50.732       36.146       18.448     2573.738     1306.519      340.329        0.408        0.211       62.812       19.915        0.101      340.579       14.699      868.587
05/11/2013  07:13:00      -70.116      -60.075       -1.786       19.515       24.073       13.294      380.833      579.507      176.725        0.483        0.057       92.333        9.080        0.010      340.520       14.598      868.587
05/11/2013  07:14:00      -23.128      -90.810       -4.909       19.926       24.715       14.755      397.057      610.845      217.704        0.502        0.061       93.709       10.000        0.011      340.579       14.696      868.588
05/11/2013  07:15:00      -30.425      -65.888        2.049       12.033       11.157        9.113      144.790      124.473       83.048        0.281        0.018       72.573        5.664        0.006      340.597       14.728      868.585
05/11/2013  07:16:00      -20.617      -53.960        6.443       23.815       19.006       14.173      567.144      361.211      200.882        0.225        0.056       57.764       11.130        0.037      340.655       14.825      868.581
05/11/2013  07:17:00       -7.249      -18.515       10.696       15.957       14.289       19.020      254.630      204.187      361.745        0.067        0.041       19.884       13.277        0.446      341.184       15.723      868.575
05/11/2013  07:18:00      -16.574      -27.676       -8.036       16.649       11.457       10.873      277.205      131.274      118.218        0.082        0.026       32.259       10.990        0.116      340.722       14.939      868.568
05/11/2013  07:19:00      -22.442      -32.300       -2.217       13.808       16.011        8.527      190.672      256.363       72.705        0.104        0.026       39.331        8.178        0.043      340.768       15.016      868.558
05/11/2013  07:20:00      -35.665      -45.268       -2.740       23.067       21.543       16.734      532.097      464.099      280.021        0.230        0.064       57.630       11.692        0.041      340.816       15.098      868.554
05/11/2013  07:21:00      -40.022      -94.094       -0.463       19.428       17.971       13.288      377.439      322.965      176.571        0.567        0.044      102.252        9.621        0.009      340.743       14.974      868.549
05/11/2013  07:22:00      -70.948      -92.055       -7.143       22.511       22.866       18.027      506.764      522.874      324.982        0.746        0.068      116.223       14.020        0.015      340.700       14.902      868.545
05/11/2013  07:23:00      -51.556      -65.326       -2.763       22.127       33.422       13.297      489.618     1117.037      176.811        0.436        0.089       83.220        8.471        0.010      340.748       14.984      868.546
05/11/2013  07:24:00      -25.715      -41.476       10.964       21.408       31.803       19.287      458.309     1011.454      371.987        0.217        0.092       48.801       19.502        0.160      341.021       15.446      868.542
05/11/2013  07:25:00      -67.675      -59.624       -2.761       23.451       16.624       13.881      549.930      276.344      192.689        0.458        0.051       90.194        8.298        0.008      340.817       15.099      868.538
05/11/2013  07:26:00      -44.292      -31.717       -0.283       29.537       25.856       13.807      872.457      668.522      190.647        0.235        0.087       54.477       11.685        0.046      340.997       15.403      868.543
05/11/2013  07:27:00      -18.603        2.925        8.342       26.965       18.003       17.258      727.089      324.107      297.829        0.089        0.067       18.831       15.934        0.716      341.303       15.923      868.542
05/11/2013  07:28:00      -11.534       -7.733       19.054       31.874       19.963       20.769     1015.956      398.505      431.361        0.120        0.092       13.886       15.016        1.169      341.273       15.872      868.542
05/11/2013  07:29:00       -4.394        2.951       44.028       29.103       39.776       19.161      846.964     1582.115      367.152        0.238        0.140        5.293       17.745       11.241      341.646       16.503      868.541
05/11/2013  07:30:00       17.145       -5.048       19.668       52.418       23.895       29.725     2747.695      570.980      883.549        0.245        0.210       17.873       19.979        1.250      341.339       15.984      868.531
05/11/2013  07:31:00      -20.505        8.026       26.873       15.279       24.180       24.784      233.441      584.669      614.267        0.132        0.072       22.020       18.887        0.736      341.399       16.086      868.535
05/11/2013  07:32:00      -29.170        5.526       20.068       22.534       22.187       13.873      507.781      492.284      192.447        0.124        0.060       29.689       11.224        0.143      341.329       15.966      868.539
05/11/2013  07:33:00      -17.131       -3.212        7.491       22.252       21.840       21.856      495.147      476.990      477.700        0.090        0.072       17.430       12.740        0.534      341.431       16.139      868.540
05/11/2013  07:34:00       -3.275      -11.465       33.692       28.447       29.046       22.942      809.207      843.695      526.351        0.173        0.109       11.923       15.103        1.604      341.843       16.839      868.543
05/11/2013  07:35:00      -17.927       -4.652        9.576       19.839       21.962       22.097      393.572      482.312      488.280        0.090        0.068       18.521       17.478        0.890      341.684       16.569      868.550
05/11/2013  07:36:00        3.540       -3.349       22.174       50.888       30.215       22.559     2589.615      912.973      508.928        0.226        0.201        4.872       13.958        8.206      341.446       16.165      868.549
05/11/2013  07:37:00       23.593       -0.963       43.944       53.006       57.010       32.118     2809.649     3250.095     1031.535        0.479        0.355       23.613       27.085        1.316      341.602       16.429      868.533
05/11/2013  07:38:00      -34.809        6.800       28.591       17.715       42.256       36.853      313.816     1785.548     1358.169        0.277        0.173       35.467       33.221        0.877      341.431       16.139      868.533
05/11/2013  07:39:00      -38.437       -8.629        0.750       24.565       13.951       15.078      603.428      194.636      227.354        0.129        0.051       39.394       13.750        0.122      341.587       16.403      868.531
05/11/2013  07:40:00      -16.666        3.663       -3.706       21.912       16.262       19.905      480.150      264.457      396.223        0.072        0.057       17.064       11.446        0.450      341.735       16.653      868.513
05/11/2013  07:41:00        0.820      -22.815       18.986       23.163       27.053       25.378      536.513      731.862      644.037        0.140        0.096       22.829       17.473        0.586      341.905       16.943      868.507
05/11/2013  07:42:00        2.034      -32.991       41.986       25.510       55.514       35.035      650.777     3081.814     1227.479        0.391        0.248       33.053       29.286        0.785      341.854       16.856      868.504
05/11/2013  07:43:00      -13.989       14.412       44.478       15.357       35.500       30.678      235.830     1260.222      941.139        0.241        0.122       20.084       22.189        1.221      341.980       17.070      868.513
05/11/2013  07:44:00      -24.004        9.107        6.594       16.088        9.717       17.107      258.811       94.427      292.664        0.067        0.032       25.673       12.459        0.235      341.892       16.921      868.516
05/11/2013  07:45:00       21.075        0.797       30.688       31.956       24.205       25.225     1021.198      585.881      636.303        0.181        0.112       21.090       16.194        0.590      342.209       17.461      868.524
05/11/2013  07:46:00       28.291        0.750       33.865       41.550       38.696       22.960     1726.415     1497.362      527.164        0.285        0.188       28.301       19.653        0.482      341.915       16.960      868.530
05/11/2013  07:47:00       25.040      -20.030       22.843       42.845       42.058       24.380     1835.720     1768.903      594.384        0.287        0.210       32.065       22.022        0.472      342.042       17.176      868.536
05/11/2013  07:48:00       37.225      -29.289        9.865       47.012       47.062       41.309     2210.148     2214.826     1706.433        0.424        0.307       47.366       29.200        0.380      341.990       17.088      868.542
05/11/2013  07:49:00       51.790      -29.127       24.521       42.668       44.328       38.058     1820.571     1964.931     1448.378        0.468        0.262       59.419       36.651        0.380      341.985       17.081      868.550
05/11/2013  07:50:00       38.502      -65.714       13.335       30.655       47.408       30.364      939.752     2247.553      921.968        0.504        0.205       76.163       21.860        0.082      341.550       16.340      868.545
05/11/2013  07:51:00       29.821      -59.276        6.788       33.474       48.126       33.616     1120.537     2316.136     1130.031        0.451        0.228       66.355       21.179        0.102      341.577       16.386      868.545
05/11/2013  07:52:00       16.566      -12.375       38.612       30.171       60.513       26.982      910.295     3661.783      728.027        0.361        0.265       20.678       16.135        0.609      341.955       17.028      868.541
05/11/2013  07:53:00       49.476       51.886       16.279       37.358       28.188       28.184     1395.613      794.559      794.336        0.419        0.149       71.694       17.942        0.063      341.876       16.892      868.542
05/11/2013  07:54:00       63.272       70.798       56.067       34.238       30.576       36.309     1172.239      934.916     1318.322        0.779        0.171       94.951       13.838        0.021      341.874       16.890      868.539
05/11/2013  07:55:00       48.314       38.641       47.091       33.464       22.935       22.388     1119.868      526.035      501.203        0.410        0.107       61.866       11.838        0.037      342.034       17.162      868.545
05/11/2013  07:56:00       16.181       18.417       35.507       39.727       44.785       29.860     1578.267     2005.726      891.597        0.317        0.224       24.515        9.284        0.143      342.214       17.468      868.542
05/11/2013  07:57:00       -7.922      -50.391       10.993       25.355       38.500       28.795      642.858     1482.270      829.163        0.284        0.148       51.010       14.044        0.076      341.806       16.775      868.541
05/11/2013  07:58:00       81.788       42.457       16.897       54.624       42.787       36.632     2983.823     1830.756     1341.905        0.747        0.308       92.151       31.605        0.118      341.926       16.979      868.545
05/11/2013  07:59:00       82.553       70.154       17.680       27.278       15.693       27.385      744.083      246.259      749.924        0.689        0.087      108.336       10.966        0.010      341.708       16.608      868.549
05/11/2013  08:00:00       30.571       -7.490       37.822       33.876       38.599       25.519     1147.589     1489.889      651.205        0.285        0.164       31.476       23.850        0.574      341.967       17.047      868.554
05/11/2013  08:01:00       38.118      -11.580       22.450       47.410       22.802       25.597     2247.684      519.937      655.215        0.276        0.171       39.838       12.222        0.094      341.919       16.966      868.566
05/11/2013  08:02:00        1.587       13.935       17.347       25.584       21.987       18.672      654.541      483.410      348.662        0.099        0.074       14.025       12.275        0.766      342.332       17.667      868.557
05/11/2013  08:03:00        0.579      -24.065       27.626       22.027       34.146       23.630      485.176     1165.919      558.369        0.178        0.110       24.072       16.246        0.455      342.090       17.257      868.563
05/11/2013  08:04:00       32.418       24.212       49.527       36.743       25.674       18.300     1350.059      659.136      334.903        0.322        0.117       40.462        7.599        0.035      342.438       17.848      868.561
05/11/2013  08:05:00       11.248      -24.413       27.911       24.007       34.121       23.457      576.357     1164.222      550.219        0.190        0.115       26.879       20.638        0.590      342.078       17.236      868.565
05/11/2013  08:06:00       -0.342      -32.960        8.317       16.853       28.453       14.318      284.013      809.552      204.999        0.123        0.065       32.962       12.679        0.148      341.737       16.657      868.565
05/11/2013  08:07:00       17.784       18.905       28.054       28.631       24.221       20.505      819.722      586.669      420.451        0.164        0.091       25.955       14.592        0.316      342.409       17.799      868.568
05/11/2013  08:08:00       16.839       26.986       23.456       23.694       24.307       23.178      561.383      590.811      537.225        0.163        0.084       31.809       17.831        0.314      342.265       17.553      868.577
05/11/2013  08:09:00        8.819       31.587       45.342       29.310       38.433       20.711      859.051     1477.105      428.954        0.295        0.138       32.795       17.148        0.273      342.677       18.254      868.571
05/11/2013  08:10:00       16.078        1.129       33.183       28.507       27.296       21.718      812.644      745.062      471.658        0.169        0.101       16.118       19.228        1.423      342.715       18.319      868.580
05/11/2013  08:11:00      -32.827      -24.295       14.697       30.893       36.138       16.429      954.388     1305.939      269.919        0.221        0.127       40.839       14.919        0.133      342.335       17.673      868.584
05/11/2013  08:12:00      -45.019       22.003        0.241       31.967       18.972       18.790     1021.896      359.927      353.080        0.212        0.087       50.108       19.391        0.150      342.424       17.825      868.576
05/11/2013  08:13:00      -24.057       24.443       21.713       34.745       20.750       18.574     1207.198      430.580      344.995        0.181        0.099       34.296       11.552        0.113      342.635       18.184      868.570
05/11/2013  08:14:00      -14.914      -15.384       13.098       11.512       12.608       10.135      132.532      158.953      102.718        0.051        0.020       21.426       10.914        0.259      342.716       18.321      868.569
05/11/2013  08:15:00      -28.155       -7.956        0.027       21.883       17.107       14.367      478.851      292.663      206.408        0.092        0.049       29.258       12.146        0.172      342.502       17.956      868.561
05/11/2013  08:16:00      -52.237      -19.986        3.993       24.366       31.434       20.869      593.713      988.089      435.535        0.258        0.101       55.930       15.776        0.080      342.396       17.777      868.558
05/11/2013  08:17:00      -61.314      -36.272       -4.235       10.691       18.294       13.321      114.294      334.675      177.456        0.286        0.031       71.239        7.202        0.010      342.171       17.395      868.554
05/11/2013  08:18:00      -55.335      -31.470       -5.133       19.944       24.393       14.710      397.744      594.996      216.377        0.264        0.060       63.658        8.387        0.017      342.232       17.497      868.556
05/11/2013  08:19:00      -42.813       10.113        7.711       25.909       23.121       16.296      671.283      534.597      265.556        0.173        0.074       43.992       12.574        0.082      342.742       18.364      868.562
05/11/2013  08:20:00      -11.505      -26.759       -2.144       24.642       32.310       23.231      607.209     1043.965      539.663        0.152        0.110       29.128       18.924        0.422      342.620       18.157      868.564
05/11/2013  08:21:00      -46.520      -40.831       -5.834       55.676       52.281       24.815     3099.849     2733.338      615.803        0.516        0.322       61.897       17.497        0.080      342.451       17.869      868.567
05/11/2013  08:22:00      -25.758      -54.074       -4.366       26.317       23.686       18.398      692.573      561.044      338.473        0.260        0.080       59.895       10.876        0.033      342.425       17.828      868.580
05/11/2013  08:23:00      -15.008      -22.952        9.951       40.480       27.160       25.876     1638.655      737.644      669.544        0.195        0.152       27.423       24.596        0.804      342.734       18.352      868.585
05/11/2013  08:24:00      -35.472      -27.565        6.728       25.802       20.920       15.183      665.718      437.662      230.517        0.170        0.067       44.923       16.553        0.136      342.608       18.136      868.579
05/11/2013  08:25:00       10.819      -29.889       22.415       36.126       34.399       31.950     1305.119     1183.297     1020.832        0.251        0.175       31.787       18.604        0.343      343.038       18.870      868.578
05/11/2013  08:26:00        5.841      -24.156       43.956       22.770       38.435       21.484      518.490     1477.236      461.555        0.250        0.123       24.852       14.272        0.330      343.341       19.386      868.570
05/11/2013  08:27:00       50.360       54.288       21.420       48.079       59.957       39.563     2311.546     3594.864     1565.238        0.671        0.374       74.050       22.887        0.096      342.891       18.619      868.562
05/11/2013  08:28:00       91.893       77.045       70.697       37.712       29.833       32.706     1422.165      889.987     1069.708        1.138        0.169      119.918       20.747        0.030      342.658       18.223      868.562
05/11/2013  08:29:00       93.577       63.630       18.768       35.989       38.062       34.420     1295.242     1448.718     1184.728        0.854        0.196      113.161       12.600        0.012      342.785       18.437      868.567
05/11/2013  08:30:00       99.297       80.840       22.191       48.228       39.381       38.495     2325.952     1550.857     1481.872        1.112        0.268      128.043       21.243        0.028      342.679       18.259      868.559
05/11/2013  08:31:00      103.322       85.703       13.584       27.854       24.523       24.794      775.858      601.354      614.729        1.010        0.100      134.241       17.831        0.018      342.597       18.118      868.549
05/11/2013  08:32:00       80.497       60.336       26.094       27.539       28.048       29.577      758.395      786.677      874.777        0.661        0.121      100.599       20.160        0.040      342.761       18.397      868.538
05/11/2013  08:33:00       81.842       41.387       -2.601       37.925       29.765       30.898     1438.305      885.968      954.691        0.585        0.164       91.712       14.699        0.026      342.791       18.448      868.532
05/11/2013  08:34:00        1.927       -4.442       33.059       17.807       16.982       16.380      317.095      288.392      268.306        0.099        0.044        4.842        6.255        1.669      343.602       19.830      868.534
05/11/2013  08:35:00       40.822      -47.086       18.115       37.448       44.308       42.304     1402.374     1963.240     1789.640        0.468        0.258       62.318       35.197        0.319      342.995       18.795      868.529
05/11/2013  08:36:00       38.985      -53.113       11.531       38.529       70.070       34.417     1484.512     4909.873     1184.509        0.603        0.379       65.885       40.223        0.373      343.120       19.008      868.529
05/11/2013  08:37:00       41.238      -19.523       46.870       30.581       73.990       26.284      935.182     5474.490      690.853        0.569        0.355       45.626       34.154        0.560      343.045       18.880      868.526
05/11/2013  08:38:00       65.553       71.484       58.486       42.191       43.140       32.918     1780.050     1861.083     1083.600        0.878        0.236       96.990       22.240        0.053      343.129       19.024      868.519
05/11/2013  08:39:00       49.474       33.267       16.809       43.851       41.228       30.848     1922.869     1699.757      951.612        0.420        0.229       59.618       16.617        0.078      342.982       18.774      868.513
05/11/2013  08:40:00       11.073      -29.260       29.899       38.349       41.825       28.982     1470.672     1749.329      839.939        0.297        0.203       31.285       13.220        0.179      343.155       19.069      868.507
05/11/2013  08:41:00       64.799      -36.919       20.018       46.207       74.418       32.681     2135.060     5538.053     1068.078        0.735        0.437       74.578       29.850        0.160      342.849       18.547      868.509
05/11/2013  08:42:00       47.115      -81.498       -9.954       47.315       51.005       37.008     2238.694     2601.500     1369.561        0.758        0.310       94.137       31.723        0.114      342.666       18.236      868.508
05/11/2013  08:43:00       23.201      -26.937       11.675       38.056       47.983       42.617     1448.260     2302.332     1816.178        0.348        0.278       35.551       20.107        0.320      342.981       18.770      868.513
05/11/2013  08:44:00        2.472       -3.076       15.550       25.625       34.638       29.950      656.616     1199.782      897.005        0.150        0.138        3.946       18.912       22.970      343.479       19.621      868.518
05/11/2013  08:45:00        3.142      -11.251       24.807       27.481       65.491       36.054      755.230     4289.042     1299.906        0.355        0.317       11.681       22.370        3.667      343.547       19.735      868.517
05/11/2013  08:46:00       15.798      -53.203       34.256       25.773       53.936       33.393      664.262     2909.106     1115.094        0.447        0.234       55.499       35.523        0.410      343.400       19.484      868.530
05/11/2013  08:47:00       33.942       48.116       48.656       39.774       44.625       28.996     1581.965     1991.388      840.781        0.512        0.221       58.883       16.584        0.079      343.554       19.747      868.528
05/11/2013  08:48:00       53.106       39.233       64.567       63.570       57.384       49.008     4041.162     3292.898     2401.798        0.913        0.487       66.027       50.212        0.578      343.590       19.810      868.531
05/11/2013  08:49:00       59.086       39.100       49.620       48.102       49.044       42.858     2313.812     2405.274     1836.772        0.702        0.328       70.852       33.705        0.226      343.400       19.486      868.535
05/11/2013  08:50:00       55.343       55.594       39.189       44.713       38.078       35.156     1999.261     1449.968     1235.963        0.619        0.234       78.445       18.189        0.054      343.645       19.903      868.535
05/11/2013  08:51:00       90.623       73.294       34.224       50.826       32.988       33.561     2583.297     1088.209     1126.349        0.978        0.240      116.553       25.229        0.047      343.372       19.438      868.527
05/11/2013  08:52:00       55.090       48.124       27.082       55.644       35.603       44.137     3096.270     1267.542     1948.113        0.620        0.316       73.149       28.833        0.155      343.650       19.911      868.526
05/11/2013  08:53:00       45.518       42.665       13.950       42.091       35.417       34.019     1771.646     1254.398     1157.309        0.413        0.209       62.387       28.495        0.209      343.773       20.121      868.527
05/11/2013  08:54:00      112.126       73.136       20.199       65.785       41.917       40.260     4327.731     1756.995     1620.843        1.302        0.385      133.870       29.724        0.049      343.575       19.784      868.519
05/11/2013  08:55:00      142.937      119.779       58.118       45.672       40.251       40.553     2085.931     1620.171     1644.519        2.175        0.268      186.489       22.562        0.015      343.262       19.248      868.516
05/11/2013  08:56:00      130.302       84.387       10.662       57.751       41.251       35.459     3335.221     1701.637     1257.326        1.525        0.315      155.241       26.241        0.029      343.072       18.925      868.513
05/11/2013  08:57:00       68.068       51.073       13.263       41.494       34.331       28.219     1721.723     1178.626      796.291        0.556        0.185       85.098       19.894        0.055      343.620       19.861      868.511
05/11/2013  08:58:00       33.284       37.830       30.832       48.469       49.367       29.029     2349.275     2437.104      842.678        0.456        0.281       50.388       19.267        0.146      343.926       20.384      868.518
05/11/2013  08:59:00       -0.625       13.966       52.706       34.099       48.003       24.981     1162.709     2304.257      624.055        0.353        0.205       13.980       19.275        1.901      344.073       20.633      868.514
05/11/2013  09:00:00       21.663       -6.344       26.048       31.902       59.181       37.761     1017.757     3502.407     1425.929        0.357        0.297       22.573       39.833        3.114      343.830       20.218      868.522
05/11/2013  09:01:00        5.616        8.484       56.736       30.620       48.967       27.027      937.614     2397.753      730.481        0.369        0.203       10.174       17.830        3.071      344.306       21.032      868.514
05/11/2013  09:02:00       20.806        6.212       29.844       35.993       44.540       38.376     1295.520     1983.796     1472.737        0.306        0.238       21.714       13.934        0.412      343.860       20.270      868.510
05/11/2013  09:03:00       10.586      -25.189       18.148       26.895       43.426       21.919      723.339     1885.787      480.444        0.208        0.154       27.322       13.758        0.254      343.932       20.392      868.511
05/11/2013  09:04:00       16.006      -80.997       41.604       45.225       66.709       45.242     2045.312     4450.028     2046.819        0.854        0.427       82.563       33.683        0.166      343.807       20.178      868.508
05/11/2013  09:05:00       16.291        6.963       43.667       32.238       57.510       28.493     1039.279     3307.363      811.835        0.369        0.258       17.716       26.572        2.250      343.815       20.192      868.511
05/11/2013  09:06:00       75.735       62.214       48.720       42.997       29.877       34.524     1848.720      892.638     1191.893        0.796        0.197       98.012       13.110        0.018      343.409       19.500      868.520
05/11/2013  09:07:00      128.300       82.208       15.830       31.886       28.441       37.723     1016.708      808.895     1423.042        1.336        0.162      152.378       18.169        0.014      343.664       19.934      868.517
05/11/2013  09:08:00       25.397       44.532       29.270       45.567       28.766       29.723     2076.325      827.490      883.471        0.364        0.189       51.265       20.285        0.157      344.326       21.066      868.525
05/11/2013  09:09:00       10.960       24.266       58.652       33.774       41.593       30.632     1140.651     1729.961      938.327        0.398        0.190       26.626       17.158        0.415      344.659       21.636      868.518
05/11/2013  09:10:00       31.082       22.622       51.468       35.487       46.386       33.837     1259.350     2151.695     1144.923        0.434        0.228       38.443       29.305        0.581      343.973       20.463      868.536
05/11/2013  09:11:00       42.144      -13.019       33.583       56.528       30.825       30.701     3195.368      950.175      942.530        0.408        0.254       44.109       25.844        0.343      344.160       20.783      868.541
05/11/2013  09:12:00       92.501       26.916       10.407       45.720       53.583       35.328     2090.299     2871.108     1248.085        0.780        0.310       96.337       36.636        0.145      343.493       19.643      868.544
05/11/2013  09:13:00       39.731       82.781       67.062       43.886       39.604       34.555     1925.954     1568.516     1194.082        0.881        0.234       91.822       28.725        0.098      343.807       20.178      868.537
05/11/2013  09:14:00       49.479       48.219       67.292       60.567       46.572       39.759     3668.309     2168.913     1580.739        0.836        0.371       69.089       34.326        0.247      343.810       20.183      868.535
05/11/2013  09:15:00       32.433       60.059       78.287       54.772       44.359       30.736     2999.966     1967.711      944.715        0.835        0.296       68.257       29.515        0.187      343.925       20.381      868.527
05/11/2013  09:16:00       52.970       64.780       76.588       72.754       57.035       58.090     5293.080     3252.963     3374.406        1.239        0.596       83.679       48.532        0.336      344.043       20.584      868.520
05/11/2013  09:17:00       -4.460       23.911       -7.913       33.081       18.743       18.384     1094.351      351.297      337.964        0.122        0.089       24.323       19.258        0.627      343.574       19.781      868.513
05/11/2013  09:18:00        4.256        7.297       44.555       29.297       62.139       37.248      858.301     3861.243     1387.435        0.408        0.305        8.447       30.753       13.254      344.458       21.291      868.515
05/11/2013  09:19:00       24.200      -16.038       47.503       44.241       63.310       48.057     1957.299     4008.104     2309.480        0.569        0.414       29.032       35.749        1.516      344.486       21.340      868.508
05/11/2013  09:20:00       26.916      -13.065       51.564       41.702       64.923       52.858     1739.028     4215.023     2794.006        0.615        0.437       29.920       50.114        2.806      344.455       21.286      868.520
05/11/2013  09:21:00       18.437       -6.196       45.873       31.063       65.221       28.478      964.937     4253.788      810.972        0.426        0.301       19.451       32.060        2.717      344.076       20.639      868.532
05/11/2013  09:22:00       38.938      -58.845       22.050       62.417       89.852       38.035     3895.915     8073.356     1446.628        0.944        0.671       70.561       49.631        0.495      344.117       20.708      868.526
05/11/2013  09:23:00       50.337      -32.649       19.962       47.047      101.820       31.312     2213.425    10367.260      980.449        0.878        0.678       59.999       20.041        0.112      344.185       20.826      868.531
05/11/2013  09:24:00       40.608        2.282       54.985       48.808       70.245       55.637     2382.193     4934.384     3095.522        0.754        0.521       40.672       50.062        1.515      344.399       21.192      868.533
05/11/2013  09:25:00       34.698       21.849       57.253       41.693       65.997       40.339     1738.330     4355.575     1627.241        0.634        0.386       41.004       37.587        0.840      344.237       20.914      868.545
05/11/2013  09:26:00       73.554       36.817       66.130       67.861       43.796       44.276     4605.048     1918.097     1960.334        0.981        0.424       82.254       41.456        0.254      344.180       20.815      868.547
05/11/2013  09:27:00       23.449       30.643       68.364       45.613       85.988       55.777     2080.584     7393.949     3111.115        0.937        0.629       38.586       56.991        2.182      344.392       21.179      868.537
05/11/2013  09:28:00       76.074       78.690       55.425       49.712       38.781       43.195     2471.307     1503.999     1865.767        1.045        0.292      109.450       24.310        0.049      344.074       20.635      868.532
05/11/2013  09:29:00       63.062      -11.294       45.162       70.595       45.900       50.735     4983.653     2106.831     2574.084        0.790        0.483       64.065       47.650        0.553      344.395       21.184      868.529
05/11/2013  09:30:00       18.344      -73.157       -8.525       36.320       36.786       22.036     1319.129     1353.240      485.598        0.446        0.158       75.422       20.044        0.071      343.744       20.072      868.535
05/11/2013  09:31:00      -22.749        0.254       15.523       24.729       13.425       18.086      611.503      180.235      327.087        0.094        0.056       22.750       13.653        0.360      344.608       21.549      868.515
05/11/2013  09:32:00       -6.420       38.901       79.349       30.683       44.246       28.994      941.437     1957.709      840.676        0.579        0.187       39.427       28.067        0.507      345.013       22.241      868.506
05/11/2013  09:33:00       29.743       88.803       64.495       35.681       31.680       43.713     1273.137     1003.602     1910.835        0.856        0.209       93.652       32.996        0.124      344.173       20.804      868.505
05/11/2013  09:34:00       66.808       66.734       -2.978       22.176       40.229       21.268      491.755     1618.356      452.339        0.574        0.128       94.428       14.513        0.024      343.777       20.128      868.509
05/11/2013  09:35:00       70.073       82.270      -13.949       23.882       19.063       24.508      570.357      363.406      600.628        0.670        0.077      108.068       15.236        0.020      343.975       20.466      868.496
05/11/2013  09:36:00       24.564       61.605       -6.791       37.364       39.513       31.141     1396.062     1561.250      969.759        0.419        0.196       66.321       29.025        0.192      344.284       20.995      868.499
05/11/2013  09:37:00       -1.747       69.272        4.282       24.038       56.780       33.130      577.845     3223.970     1097.583        0.486        0.245       69.294       38.673        0.311      344.250       20.936      868.482
05/11/2013  09:38:00       -4.171       -5.343       29.951       11.337       20.912       12.161      128.538      437.323      147.895        0.083        0.036        6.778        4.444        0.430      345.091       22.373      868.480
05/11/2013  09:39:00       -5.383        5.755       41.315       22.135       37.932       32.877      489.972     1438.806     1080.906        0.239        0.150        7.880       18.263        5.372      344.841       21.948      868.464
05/11/2013  09:40:00       57.126      -93.015        3.046       51.210       67.295       52.600     2622.441     4528.629     2766.797        1.092        0.496      109.157       50.078        0.210      344.468       21.310      868.463
05/11/2013  09:41:00       21.488      -49.700        4.363       35.449       28.282       26.498     1256.651      799.889      702.166        0.285        0.138       54.146       20.759        0.147      344.133       20.737      868.459
05/11/2013  09:42:00      -22.247       13.441       44.335       20.487       31.465       18.823      419.729      990.058      354.318        0.220        0.088       25.993       19.033        0.536      345.251       22.649      868.447
05/11/2013  09:43:00       17.609       56.146       79.995       41.706       53.639       36.352     1739.356     2877.161     1321.491        0.790        0.297       58.843       38.276        0.423      345.040       22.287      868.446
05/11/2013  09:44:00       54.764      -44.457       17.315       53.716       68.159       41.900     2885.396     4645.620     1755.589        0.728        0.464       70.537       42.237        0.359      344.548       21.446      868.442
05/11/2013  09:45:00       45.705       39.570       24.735       50.277       34.102       38.083     2527.747     1162.954     1450.331        0.470        0.257       60.454       14.653        0.059      344.687       21.683      868.437
05/11/2013  09:46:00       90.470       58.273       14.991       26.724       30.622       23.092      714.194      937.684      533.239        0.699        0.109      107.613        8.608        0.006      344.117       20.709      868.428
05/11/2013  09:47:00       87.894       62.909       14.456       30.149       31.814       25.179      908.973     1012.111      633.972        0.722        0.128      108.087       16.856        0.024      344.050       20.595      868.418
05/11/2013  09:48:00       47.796       57.150       31.977       36.674       41.855       33.579     1344.958     1751.860     1127.533        0.540        0.211       74.502       28.131        0.143      344.432       21.247      868.395
05/11/2013  09:49:00       39.221        7.578       51.473       41.254       61.397       38.470     1701.911     3769.650     1479.950        0.560        0.348       39.947       36.670        0.843      344.868       21.993      868.371
05/11/2013  09:50:00       13.384       46.536       65.790       41.028       49.779       32.799     1683.279     2477.913     1075.780        0.595        0.262       48.422       28.678        0.351      345.142       22.462      868.352
05/11/2013  09:51:00       38.186       89.005       95.751       57.810       49.244       37.007     3342.000     2425.001     1369.524        1.284        0.357       96.850       29.793        0.095      344.734       21.763      868.338
05/11/2013  09:52:00       57.135       20.372       44.372       62.871       96.509       49.476     3952.713     9314.005     2447.878        1.068        0.786       60.658       46.907        0.598      344.666       21.648      868.335
05/11/2013  09:53:00       30.772      -94.262        4.305       44.942       83.112       53.715     2019.808     6907.675     2885.281        1.083        0.591       99.158       52.471        0.280      344.956       22.142      868.324
05/11/2013  09:54:00       22.595     -125.751      -23.354       66.519       44.880       39.302     4424.750     2014.240     1544.630        1.243        0.399      127.765       33.756        0.070      344.723       21.744      868.322
05/11/2013  09:55:00       31.356      -61.019       20.426       40.809       76.947       51.078     1665.409     5920.836     2608.923        0.766        0.510       68.604       33.093        0.233      345.246       22.641      868.317
05/11/2013  09:56:00       57.626     -116.756      -19.405       58.637       76.243       51.735     3438.309     5813.012     2676.485        1.463        0.596      130.203       48.005        0.136      344.854       21.969      868.312
05/11/2013  09:57:00       63.069     -143.732      -19.829       51.101       53.775       41.677     2611.281     2891.799     1737.004        1.613        0.362      156.961       35.434        0.051      344.639       21.599      868.316
05/11/2013  09:58:00       48.029       25.273       47.151       45.289       76.447       52.769     2051.087     5844.119     2784.611        0.792        0.534       54.272       47.748        0.774      344.900       22.049      868.312
05/11/2013  09:59:00       30.949       47.257       23.072       41.148       39.041       31.862     1693.118     1524.215     1015.156        0.398        0.212       56.490       14.429        0.065      344.551       21.450      868.316
05/11/2013  10:00:00       -0.732       40.800       67.122       24.908       52.076       47.946      620.387     2711.958     2298.818        0.590        0.282       40.806       46.426        1.294      345.287       22.710      868.301
05/11/2013  10:01:00       80.328       78.764      100.428       55.741       65.235       45.314     3107.018     4255.619     2053.362        1.608        0.471      112.500       40.654        0.131      344.770       21.823      868.296
05/11/2013  10:02:00      103.797       -6.309       32.776       44.155       55.792       39.553     1949.637     3112.721     1564.456        0.926        0.331      103.989       43.451        0.175      344.553       21.454      868.298
05/11/2013  10:03:00       59.583       12.970       42.744       41.728       51.264       40.306     1741.190     2628.020     1624.577        0.577        0.300       60.978       40.344        0.438      345.208       22.576      868.292
05/11/2013  10:04:00       29.577       14.652        8.588       33.574       33.768       28.825     1127.193     1140.254      830.882        0.213        0.155       33.008       15.048        0.208      344.964       22.156      868.278
05/11/2013  10:05:00       18.613       14.218       43.994       32.684       32.332       15.437     1068.241     1045.333      238.302        0.242        0.118       23.422       20.561        0.771      345.330       22.783      868.279
05/11/2013  10:06:00       53.955       38.713       50.890       61.802       40.723       41.153     3819.490     1658.364     1693.548        0.708        0.359       66.407       36.404        0.301      345.305       22.741      868.259
05/11/2013  10:07:00      118.320       83.052       27.872       47.945       40.371       38.495     2298.769     1629.826     1481.885        1.354        0.271      144.559       26.394        0.033      344.889       22.029      868.262
05/11/2013  10:08:00      109.694       80.920       25.589       64.471       40.809       41.228     4156.462     1665.353     1699.734        1.338        0.376      136.311       27.133        0.040      344.885       22.021      868.252
05/11/2013  10:09:00       41.733      -44.164       10.376       58.058       62.118       37.875     3370.675     3858.607     1434.533        0.623        0.433       60.762       23.245        0.146      345.452       22.992      868.255
05/11/2013  10:10:00       29.489       -3.812       39.103       44.351       45.930       34.159     1966.982     2109.529     1166.831        0.383        0.262       29.735       28.033        0.889      345.463       23.011      868.254
05/11/2013  10:11:00       58.318       56.034       48.586       46.801       38.421       33.417     2190.380     1476.176     1116.682        0.684        0.239       80.875       14.845        0.034      345.377       22.864      868.253
05/11/2013  10:12:00       10.291       11.543       39.676       42.399       37.841       30.041     1797.702     1431.957      902.435        0.297        0.207       15.464        9.434        0.372      345.773       23.543      868.256
05/11/2013  10:13:00       51.003      -45.358       24.697       47.747       65.001       41.081     2279.771     4225.086     1687.649        0.673        0.410       68.255       38.707        0.322      345.679       23.383      868.262
05/11/2013  10:14:00       30.198      -34.964       37.386       40.261       54.124       31.802     1620.933     2929.394     1011.368        0.455        0.278       46.199       35.282        0.583      345.412       22.926      868.259
05/11/2013  10:15:00       25.699      -51.200       16.281       60.023       79.526       50.309     3602.806     6324.382     2530.990        0.800        0.623       57.288       37.775        0.435      345.659       23.346      868.250
05/11/2013  10:16:00       24.968       -4.135       50.093       56.465       51.709       37.913     3188.291     2673.771     1437.359        0.522        0.365       25.308       31.556        1.555      345.805       23.600      868.255
05/11/2013  10:17:00      -17.733       -4.187        5.098       20.570       25.684       27.176      423.131      659.691      738.534        0.109        0.091       18.221       17.964        0.972      345.711       23.437      868.261
05/11/2013  10:18:00      -47.032      -59.410       -2.206       38.600       30.592       23.873     1489.952      935.892      569.934        0.437        0.150       75.773       17.578        0.054      345.268       22.676      868.255
05/11/2013  10:19:00       27.787      -43.416       30.617       50.908       69.839       41.340     2591.649     4877.420     1708.988        0.638        0.459       51.546       44.456        0.744      345.911       23.782      868.264
05/11/2013  10:20:00      -11.093       15.807       45.365       24.687       26.280       20.733      609.439      690.627      429.852        0.208        0.086       19.311       17.214        0.795      346.149       24.189      868.270
05/11/2013  10:21:00       46.389       48.030       32.231       90.996       48.307       36.109     8280.329     2333.539     1303.862        0.871        0.596       66.775       20.630        0.095      345.643       23.321      868.264
05/11/2013  10:22:00       94.454       82.055       67.470       64.058       46.353       46.637     4103.444     2148.629     2175.032        1.432        0.421      125.118       41.257        0.109      345.375       22.860      868.267
05/11/2013  10:23:00      107.740      102.603       70.543       68.210       49.592       41.214     4652.643     2459.377     1698.591        1.796        0.441      148.779       36.402        0.060      345.175       22.518      868.275
05/11/2013  10:24:00       15.195       73.658       75.606       33.933       41.430       36.151     1151.455     1716.439     1306.895        0.777        0.209       75.209       21.372        0.081      345.546       23.153      868.276
05/11/2013  10:25:00       33.167       71.503       76.656       40.569       47.355       38.630     1645.844     2242.491     1492.279        0.873        0.269       78.820       36.272        0.212      345.353       22.824      868.284
05/11/2013  10:26:00       36.034       82.236       81.431       63.671       40.755       50.009     4054.050     1660.983     2500.868        1.145        0.411       89.784       41.503        0.214      345.256       22.657      868.283
05/11/2013  10:27:00       33.806       54.869       79.799       36.915       51.837       27.167     1362.739     2687.054      738.044        0.765        0.239       64.447       31.370        0.237      345.336       22.796      868.292
05/11/2013  10:28:00       -7.653       12.155       46.770       21.926       23.547       19.010      480.734      554.449      361.383        0.189        0.070       14.364       12.848        0.800      346.038       24.000      868.274
05/11/2013  10:29:00       13.267       33.605       19.340       25.487       37.935       25.574      649.609     1439.068      654.014        0.221        0.137       36.129       22.741        0.396      345.569       23.192      868.265
05/11/2013  10:30:00       17.576       48.636        1.395       20.119       40.119       27.058      404.767     1609.520      732.125        0.271        0.137       51.715       26.098        0.255      345.429       22.952      868.250
05/11/2013  10:31:00        0.182       10.992       30.184       23.464       21.548       21.548      550.547      464.309      464.331        0.126        0.074       10.994       13.221        1.446      346.283       24.421      868.247
05/11/2013  10:32:00       37.088       14.042       30.771       28.120       21.218       24.815      790.743      450.210      615.766        0.219        0.093       39.657       10.610        0.072      346.042       24.005      868.242
05/11/2013  10:33:00       23.126        9.290       26.441       32.899       27.518       28.137     1082.354      757.245      791.709        0.198        0.132       24.922       22.623        0.824      346.360       24.552      868.240
05/11/2013  10:34:00       28.871      -52.694       11.793       34.238       72.884       32.861     1172.215     5312.094     1079.877        0.566        0.378       60.085       36.584        0.371      346.033       23.991      868.231
05/11/2013  10:35:00      -22.463       16.868       18.359       23.258       24.943       20.145      540.934      622.162      405.828        0.135        0.078       28.091       13.221        0.221      346.285       24.424      868.223
05/11/2013  10:36:00       37.132       40.308       25.349       38.992       36.103       26.461     1520.387     1303.423      700.170        0.358        0.176       54.805       14.402        0.069      346.297       24.443      868.235
05/11/2013  10:37:00       67.318      -31.535        8.700       60.593       98.089       41.729     3671.467     9621.360     1741.271        1.032        0.752       74.339       47.345        0.406      345.991       23.919      868.225
05/11/2013  10:38:00       98.318     -152.741       -4.913       64.658       92.250       41.719     4180.670     8510.122     1740.441        2.372        0.722      181.649       42.932        0.056      345.495       23.063      868.223
05/11/2013  10:39:00       27.617     -144.732       -0.582       52.521       98.653       44.762     2758.419     9732.424     2003.650        1.810        0.725      147.343       49.876        0.115      345.533       23.130      868.212
05/11/2013  10:40:00       -4.795      -54.041       17.489       51.914       69.973       43.773     2695.087     4896.221     1916.088        0.638        0.475       54.253       42.625        0.617      345.949       23.846      868.216
05/11/2013  10:41:00       74.325       23.845       65.839       73.965       74.911       50.555     5470.748     5611.696     2555.817        1.203        0.682       78.056       53.516        0.470      345.756       23.515      868.226
05/11/2013  10:42:00       40.934        2.657       69.233       70.042       81.614       54.364     4905.826     6660.840     2955.471        1.050        0.726       41.020       51.256        1.561      346.104       24.112      868.229
05/11/2013  10:43:00       73.709      -40.979       35.669       45.927       61.822       37.937     2109.258     3821.900     1439.220        0.788        0.369       84.334       39.565        0.220      345.905       23.771      868.242
05/11/2013  10:44:00       65.835      -74.774        8.619       40.843       41.746       38.313     1668.186     1742.702     1467.871        0.744        0.244       99.626       31.621        0.101      345.794       23.580      868.248
05/11/2013  10:45:00        6.691       51.249       64.013       39.571       45.527       42.570     1565.836     2072.672     1812.191        0.611        0.273       51.684       33.148        0.411      346.131       24.159      868.251
05/11/2013  10:46:00      110.130       79.548       48.786       72.922       47.660       53.167     5317.619     2271.456     2826.765        1.562        0.521      135.855       45.194        0.111      345.645       23.322      868.259
05/11/2013  10:47:00      112.766       75.199       52.775       88.570       76.409       52.547     7844.566     5838.269     2761.221        1.880        0.822      135.540       39.170        0.084      345.953       23.852      868.258
05/11/2013  10:48:00      121.131       74.056       18.452       62.064       50.331       48.617     3851.931     2533.225     2363.610        1.462        0.437      141.976       37.153        0.068      345.637       23.309      868.271
05/11/2013  10:49:00      124.840       87.402       46.834       50.370       44.469       45.838     2537.159     1977.450     2101.116        1.602        0.331      152.395       35.832        0.055      345.756       23.514      868.262
05/11/2013  10:50:00       68.173       32.583       27.172       39.755       31.115       27.132     1580.446      968.124      736.133        0.487        0.164       75.559       15.789        0.044      345.703       23.423      868.259
05/11/2013  10:51:00       39.652       20.090       62.995       48.186       59.439       38.496     2321.854     3533.038     1481.968        0.664        0.367       44.451       30.676        0.476      346.248       24.359      868.231
05/11/2013  10:52:00        4.866      -44.139        2.110       33.041       40.546       38.147     1091.729     1643.990     1455.179        0.308        0.210       44.407       29.608        0.445      346.049       24.018      868.229
05/11/2013  10:53:00       20.398        9.221       12.144       61.894       41.973       31.211     3830.899     1761.706      974.098        0.361        0.328       22.385       14.825        0.439      346.064       24.042      868.206
05/11/2013  10:54:00       26.713       25.586       22.874       57.518       41.165       28.166     3308.371     1694.554      793.305        0.384        0.290       36.990       26.572        0.516      346.526       24.836      868.201
05/11/2013  10:55:00      -15.668      -21.102       -0.575       14.482       26.467       14.091      209.738      700.516      198.567        0.090        0.055       26.283        9.424        0.129      346.432       24.675      868.195
05/11/2013  10:56:00       11.178       25.448       27.296       25.583       28.084       21.606      654.487      788.739      466.815        0.171        0.096       27.794       13.562        0.238      347.070       25.774      868.191
05/11/2013  10:57:00       28.080       12.556       43.015       35.118       43.520       40.479     1233.288     1893.958     1638.565        0.378        0.238       30.759       22.219        0.522      346.608       24.980      868.190
05/11/2013  10:58:00       -2.658       22.532       53.902       20.491       33.086       23.464      419.871     1094.708      550.567        0.274        0.103       22.689       17.092        0.568      346.904       25.489      868.180
05/11/2013  10:59:00       -0.486      -82.203       20.830       39.462       72.894       38.707     1557.285     5313.544     1498.219        0.778        0.418       82.204       38.932        0.224      346.680       25.102      868.183
05/11/2013  11:00:00       46.055     -117.619       -6.128       55.085       49.957       43.207     3034.409     2495.711     1866.812        1.169        0.370      126.314       20.054        0.025      346.336       24.510      868.185
05/11/2013  11:01:00       17.071      -99.400       19.063       33.853       63.609       43.480     1146.017     4046.150     1890.507        0.881        0.354      100.855       46.402        0.212      346.481       24.759      868.180
05/11/2013  11:02:00       14.501     -120.626        3.772       55.513       78.848       49.421     3081.664     6217.081     2442.482        1.326        0.587      121.495       25.800        0.045      346.419       24.651      868.174
05/11/2013  11:03:00       34.269      -40.715        5.976       54.466       85.072       62.769     2966.566     7237.234     3939.906        0.850        0.707       53.217       53.069        0.994      346.672       25.088      868.171
05/11/2013  11:04:00       -2.006      101.629      126.531       37.061       64.364       39.320     1373.546     4142.716     1546.034        1.670        0.353      101.649       38.392        0.143      346.393       24.608      868.183
05/11/2013  11:05:00       20.228       56.218       62.742       38.079       46.447       48.651     1450.024     2157.314     2366.920        0.674        0.299       59.746       35.240        0.348      346.445       24.699      868.185
05/11/2013  11:06:00      156.233      114.189       59.020       88.488       67.552       64.361     7830.083     4563.271     4142.325        2.873        0.827      193.514       45.063        0.054      346.207       24.286      868.187
05/11/2013  11:07:00      125.337       96.672       43.447       63.070       50.329       52.495     3977.846     2533.028     2755.741        1.810        0.463      158.287       35.661        0.051      346.115       24.129      868.186
05/11/2013  11:08:00      141.286       84.105       36.972       70.726       47.645       51.564     5002.218     2270.063     2658.836        1.917        0.497      164.425       41.242        0.063      345.913       23.784      868.175
05/11/2013  11:09:00      140.425       82.436       13.566       66.309       50.133       42.650     4396.936     2513.359     1818.985        1.771        0.436      162.834       36.384        0.050      345.955       23.855      868.169
05/11/2013  11:10:00      116.545       58.493       13.081       37.111       30.335       24.642     1377.197      920.182      607.212        1.004        0.145      130.400       18.168        0.019      345.919       23.792      868.170
05/11/2013  11:11:00      109.886       85.228       45.793       54.279       42.993       48.677     2946.217     1848.400     2369.408        1.430        0.358      139.064       28.722        0.043      346.074       24.059      868.158
05/11/2013  11:12:00      106.330       76.732       -6.740       86.865       76.508       46.174     7545.527     5853.425     2132.015        1.638        0.777      131.125       28.658        0.048      346.417       24.649      868.141
05/11/2013  11:13:00       81.340      -78.658       27.647       88.454      115.581       51.971     7824.075    13358.992     2701.031        1.872        1.194      113.151       75.668        0.447      346.539       24.857      868.138
05/11/2013  11:14:00       15.991       49.815       75.921       48.291       50.062       33.989     2331.999     2506.203     1155.275        0.725        0.300       52.318       21.783        0.173      346.939       25.548      868.143
05/11/2013  11:15:00       50.366     -126.156       15.268       77.290      147.928       54.380     5973.799    21882.764     2957.208        2.474        1.541      135.839       64.637        0.226      346.804       25.314      868.126
05/11/2013  11:16:00       99.631      -98.016       36.734       96.401      157.177       86.509     9293.195    24704.556     7483.727        3.118        2.074      139.762       99.869        0.511      347.055       25.746      868.118
05/11/2013  11:17:00       25.585       -6.763       42.084       49.917       63.137       43.753     2491.701     3986.224     1914.317        0.543        0.420       26.463       33.893        1.640      346.912       25.502      868.140
05/11/2013  11:18:00       -0.567     -140.039       -1.896       76.533       79.258       61.664     5857.374     6281.858     3802.500        1.778        0.797      140.040       50.518        0.130      346.624       25.004      868.127
05/11/2013  11:19:00       42.412     -137.110       -5.457       87.819       86.117       69.703     7712.178     7416.139     4858.487        2.030        0.999      143.520       61.710        0.185      346.667       25.078      868.124
05/11/2013  11:20:00       28.157      -80.199       33.389       62.451      103.328       65.376     3900.105    10676.584     4274.076        1.359        0.943       84.998       62.781        0.546      346.905       25.490      868.124
05/11/2013  11:21:00       95.134     -107.678      -27.790       70.796      102.969       61.372     5012.112    10602.660     3766.497        2.040        0.969      143.684       75.172        0.274      346.676       25.092      868.122
05/11/2013  11:22:00       -4.381      -18.398       21.400       19.234       44.837       46.018      369.956     2010.327     2117.630        0.266        0.225       18.913       40.519        4.590      346.906       25.492      868.131
05/11/2013  11:23:00      -32.883      -53.823        6.154       39.940       72.679       24.730     1595.242     5282.277      611.583        0.575        0.374       63.072       27.615        0.192      346.722       25.174      868.114
05/11/2013  11:24:00      -37.210      -66.119      -10.439       46.941       52.282       26.878     2203.495     2733.458      722.437        0.576        0.283       75.870       26.272        0.120      346.133       24.162      868.114
05/11/2013  11:25:00      -46.837      -47.264        3.873       48.761       37.226       24.191     2377.635     1385.739      585.186        0.439        0.217       66.540       17.598        0.070      346.315       24.474      868.081
05/11/2013  11:26:00     -117.489      -31.434       -4.427       45.701       29.454       27.754     2088.575      867.527      770.260        0.927        0.186      121.621       28.223        0.054      346.209       24.290      868.072
05/11/2013  11:27:00      -87.080      -66.758       -7.541       28.752       26.213       21.388      826.699      687.112      457.451        0.703        0.099      109.725       10.449        0.009      346.060       24.036      868.062
05/11/2013  11:28:00       -9.770      -64.625        0.788       25.322       36.357       18.685      641.194     1321.845      349.146        0.329        0.116       65.359        7.920        0.015      346.167       24.221      868.045
05/11/2013  11:29:00      -10.837      -39.402       -8.473       30.344       27.763       27.990      920.780      770.809      783.441        0.211        0.124       40.865       17.186        0.177      346.663       25.074      868.038
05/11/2013  11:30:00      -20.461      -19.417        5.643       18.215       43.395       23.036      331.772     1883.093      530.673        0.179        0.137       28.208       26.000        0.850      346.671       25.087      868.028
05/11/2013  11:31:00       26.629      -51.658       19.788       54.487      104.502       41.179     2968.856    10920.657     1695.717        0.967        0.779       58.117       58.457        1.012      347.238       26.063      868.033
05/11/2013  11:32:00       81.174      -66.681       24.580       68.425      115.588       62.806     4682.010    13360.638     3944.642        1.681        1.099      105.050       73.317        0.487      347.076       25.781      868.002
05/11/2013  11:33:00      194.019     -273.293      -35.879       94.183      130.945       52.132     8870.504    17146.514     2717.713        7.117        1.437      335.160       57.623        0.030      346.524       24.828      867.984
05/11/2013  11:34:00       84.623      -67.108       35.796       85.911      105.483       68.763     7380.690    11126.683     4728.374        1.809        1.162      108.003       72.857        0.455      347.084       25.797      867.987
05/11/2013  11:35:00      113.377       95.619       72.024       71.139       57.280       57.828     5060.747     3280.955     3344.080        1.943        0.584      148.315       27.950        0.036      346.920       25.513      867.991
05/11/2013  11:36:00        8.152       29.534       68.538       39.349       46.255       50.004     1548.321     2139.544     2500.392        0.591        0.309       30.639       38.995        1.620      347.062       25.759      867.985
05/11/2013  11:37:00      -12.591      -49.827       13.121       40.417       54.495       37.736     1633.548     2969.739     1423.992        0.442        0.301       51.393       18.109        0.124      347.267       26.114      867.971
05/11/2013  11:38:00       44.191     -100.688        3.224       73.704       85.746       60.588     5432.238     7352.413     3670.963        1.428        0.823      109.959       41.965        0.146      347.186       25.973      867.963
05/11/2013  11:39:00       -6.431        3.320       40.107       30.269       39.323       39.768      916.222     1546.309     1581.528        0.285        0.202        7.238       20.241        7.821      347.592       26.673      867.950
05/11/2013  11:40:00       86.386      -66.375       42.414       80.755      120.308       66.232     6521.371    14473.993     4386.710        1.952        1.269      108.942       75.595        0.481      346.996       25.645      867.941
05/11/2013  11:41:00       59.287       38.049       62.756       59.837       60.233       41.533     3580.482     3627.961     1724.973        0.892        0.447       70.446       31.878        0.205      347.094       25.814      867.930
05/11/2013  11:42:00       30.593       55.462       88.498       70.358       76.075       58.061     4950.207     5787.433     3371.067        1.297        0.705       63.340       39.792        0.395      347.302       26.172      867.928
05/11/2013  11:43:00       24.757      -21.339       -9.073       64.029       57.071       29.958     4099.719     3257.108      897.484        0.470        0.413       32.684       28.369        0.753      346.380       24.586      867.926
05/11/2013  11:44:00       45.854       44.463       61.901       42.028       55.041       44.768     1766.382     3029.538     2004.145        0.735        0.340       63.871       41.967        0.432      347.242       26.069      867.909
05/11/2013  11:45:00       63.224      -55.322       27.273       78.327       77.801       64.161     6135.124     6052.945     4116.680        1.205        0.815       84.011       63.693        0.575      346.913       25.504      867.910
05/11/2013  11:46:00      -40.621      -47.373        4.248       53.279       61.283       36.286     2838.629     3755.650     1316.699        0.591        0.396       62.404       26.023        0.174      346.695       25.128      867.893
05/11/2013  11:47:00      -38.710       29.537        7.071       49.980       35.894       33.142     2497.983     1288.383     1098.394        0.365        0.244       48.692       30.933        0.404      347.123       25.865      867.877
05/11/2013  11:48:00       70.986       42.173       38.292       60.897       56.929       31.183     3708.442     3240.943      972.388        0.810        0.396       82.568       13.789        0.028      347.403       26.349      867.868
05/11/2013  11:49:00       59.666       59.529       41.978       61.519       36.542       40.456     3784.600     1335.283     1636.690        0.781        0.338       84.283       17.367        0.042      347.003       25.658      867.861
05/11/2013  11:50:00       31.121       70.621       87.052       46.726       53.075       46.619     2183.334     2816.925     2173.364        1.035        0.359       77.174       43.916        0.324      347.059       25.754      867.852
05/11/2013  11:51:00      113.526       71.969       32.008       33.627       42.071       41.518     1130.770     1769.933     1723.720        1.186        0.231      134.416       25.008        0.035      346.581       24.933      867.824
05/11/2013  11:52:00      102.317     -105.153       11.259       70.988       90.336       43.263     5039.289     8160.591     1871.658        1.836        0.754      146.717       47.051        0.103      346.832       25.362      867.825
05/11/2013  11:53:00       38.687     -127.270        1.555       71.366       73.002       42.975     5093.051     5329.265     1846.821        1.498        0.613      133.020       46.053        0.120      346.597       24.960      867.811
05/11/2013  11:54:00      -14.751       12.778       37.020       60.641       56.361       39.658     3677.340     3176.604     1572.771        0.509        0.421       19.516       48.162        6.090      347.189       25.979      867.797
05/11/2013  11:55:00       94.247     -137.627       18.695       55.436       77.183       48.081     3073.204     5957.215     2311.787        1.976        0.567      166.804       48.172        0.083      346.649       25.048      867.794
05/11/2013  11:56:00       28.859       37.248       51.122       53.786       44.892       33.912     2892.921     2015.329     1150.041        0.545        0.303       47.120       22.925        0.237      347.174       25.953      867.776
05/11/2013  11:57:00       -5.474       76.855       -7.746       63.614       69.190       44.379     4046.683     4787.231     1969.454        0.840        0.540       77.050       38.049        0.244      347.036       25.714      867.777
05/11/2013  11:58:00      -14.574       53.724        4.981       26.285       44.011       27.154      690.892     1936.925      737.340        0.324        0.168       55.666       19.458        0.122      347.206       26.009      867.772
05/11/2013  11:59:00      -29.887       54.747      -12.502       59.833       29.757       28.795     3580.031      885.503      829.132        0.467        0.265       62.374       27.983        0.201      346.812       25.328      867.761
05/11/2013  12:00:00      107.446       74.084       66.445       82.822       75.164       56.873     6859.501     5649.585     3234.534        1.859        0.787      130.511       43.725        0.112      347.198       25.993      867.750
05/11/2013  12:01:00       64.677      -27.558       37.270       85.290       92.174       58.639     7274.311     8496.064     3438.560        1.277        0.960       70.303       57.654        0.673      347.410       26.358      867.719
05/11/2013  12:02:00       56.446       60.061      119.100       94.922      124.965       90.175     9010.165    15616.155     8131.518        2.686        1.638       82.423       93.545        1.288      347.369       26.287      867.730
05/11/2013  12:03:00        8.957       12.266       22.937       83.749       50.334       46.217     7013.927     2533.549     2136.014        0.622        0.584       15.188       22.001        2.098      346.969       25.598      867.726
05/11/2013  12:04:00       32.219      -65.791       24.562       55.217      119.476       50.098     3048.882    14274.587     2509.811        1.290        0.992       73.257       65.873        0.809      347.352       26.257      867.697
05/11/2013  12:05:00       87.988      -68.976       47.133      109.981      177.387       92.514    12095.797    31466.320     8558.821        3.341        2.606      111.801      109.942        0.967      347.266       26.108      867.694
05/11/2013  12:06:00      150.247     -124.658       30.247      130.814      183.732       78.011    17112.321    33757.471     6085.639        4.798        2.848      195.228      117.525        0.362      347.057       25.750      867.672
05/11/2013  12:07:00       33.869     -109.521       15.710       61.920      113.056       53.706     3834.140    12781.749     2884.341        1.644        0.975      114.638       59.469        0.269      347.351       26.257      867.693
05/11/2013  12:08:00      -13.422       -4.334       78.042       59.569      105.443       84.184     3548.500    11118.236     7086.901        1.402        1.088       14.104       74.370       27.804      347.554       26.608      867.663
05/11/2013  12:09:00       -9.703      -40.926       30.050       61.388       58.733       46.021     3768.523     3449.600     2117.964        0.600        0.467       42.060       29.415        0.489      347.709       26.874      867.665
05/11/2013  12:10:00       85.568        4.875       85.211       81.882       77.134       65.882     6704.621     5949.709     4340.472        1.580        0.850       85.706       51.852        0.366      347.472       26.466      867.654
05/11/2013  12:11:00       75.431       32.878       74.572       59.878       76.120       63.713     3585.378     5794.202     4059.293        1.288        0.672       82.285       62.397        0.575      347.067       25.768      867.658
05/11/2013  12:12:00       43.558       14.151       34.846       45.977       70.703       49.143     2113.854     4998.882     2415.008        0.642        0.476       45.799       36.318        0.629      347.084       25.799      867.620
05/11/2013  12:13:00       19.758      -42.882        2.538       62.764       38.296       21.248     3939.260     1466.619      451.495        0.405        0.293       47.215       18.313        0.150      347.187       25.974      867.626
05/11/2013  12:14:00      -81.334     -100.726      -11.496       52.816       51.155       28.764     2789.578     2616.817      827.381        1.156        0.312      129.464       19.997        0.024      346.978       25.614      867.625
05/11/2013  12:15:00      -91.085      -73.901       -1.285       57.947       55.785       24.538     3357.879     3111.982      602.098        1.041        0.354      117.294       20.543        0.031      347.122       25.864      867.616
05/11/2013  12:16:00      -52.526       -6.157       -8.861       37.877       23.078       25.326     1434.642      532.591      641.398        0.274        0.130       52.886       17.965        0.115      347.061       25.758      867.610
05/11/2013  12:17:00       -8.144       17.257       -9.386       19.521       34.180       13.763      381.076     1168.274      189.407        0.110        0.087       19.082       14.063        0.543      347.130       25.876      867.589
05/11/2013  12:18:00       22.733       39.897       30.928       37.012       52.348       30.541     1369.925     2740.273      932.756        0.405        0.252       45.919       29.684        0.418      347.544       26.589      867.590
05/11/2013  12:19:00       60.785       42.358       11.829       57.998       46.454       30.282     3363.826     2157.936      916.974        0.603        0.322       74.088       35.312        0.227      347.345       26.247      867.586
05/11/2013  12:20:00       26.352      -53.056      -18.133       50.575      124.596       35.054     2557.787    15524.055     1228.780        1.157        0.966       59.240       30.058        0.257      347.260       26.099      867.564
05/11/2013  12:21:00       83.581      -94.235       32.006       84.786      116.943       66.137     7188.748    13675.765     4374.111        2.106        1.262      125.960       72.481        0.331      347.667       26.801      867.535
05/11/2013  12:22:00       82.235       35.212       46.255       72.324       57.602       56.437     5230.734     3318.038     3185.092        1.094        0.587       89.456       44.846        0.251      347.466       26.455      867.540
05/11/2013  12:23:00       82.412      -94.622        5.194       58.299       94.313       49.904     3398.766     8894.948     2490.455        1.528        0.739      125.480       53.905        0.185      347.746       26.938      867.548
05/11/2013  12:24:00       38.105      -71.454       43.123       68.818      103.536       55.428     4735.878    10719.711     3072.288        1.347        0.926       80.980       57.689        0.507      348.149       27.632      867.552
05/11/2013  12:25:00       -5.084     -132.506       -0.529       81.925       77.807       48.141     6711.781     6053.899     2317.540        1.633        0.754      132.604       38.755        0.085      347.729       26.909      867.545
05/11/2013  12:26:00       44.446       20.510       73.247       70.824       83.680       58.890     5016.079     7002.310     3468.037        1.162        0.774       48.951       54.849        1.256      347.999       27.376      867.540
05/11/2013  12:27:00       77.418      127.037      111.053       81.011       61.736       67.662     6562.753     3811.345     4578.091        2.471        0.748      148.768       50.379        0.115      347.260       26.100      867.502
05/11/2013  12:28:00       44.103      -54.780       27.810       73.733       99.670       51.543     5436.566     9934.103     2656.686        1.187        0.901       70.327       58.273        0.687      347.516       26.542      867.527
05/11/2013  12:29:00        6.120      -66.871        1.942       82.821      100.405       68.480     6859.376    10081.135     4689.471        1.307        1.081       67.150       62.125        0.856      347.767       26.973      867.523
05/11/2013  12:30:00      108.665     -164.584      -14.946       67.652       77.614       54.525     4576.819     6023.960     2972.963        2.634        0.679      197.221       41.215        0.044      347.380       26.304      867.534
05/11/2013  12:31:00       -0.364      -89.610       12.444       88.599       61.413       43.904     7849.781     3771.594     1927.552        1.086        0.677       89.611       26.117        0.085      347.817       27.061      867.517
05/11/2013  12:32:00      -46.348      -79.886       -4.670       59.482       72.421       41.761     3538.094     5244.809     1743.962        0.954        0.526       92.357       42.620        0.213      347.592       26.673      867.524
05/11/2013  12:33:00      -20.631      -30.078       12.054       33.945       42.107       24.888     1152.231     1772.988      619.432        0.251        0.177       36.473       21.183        0.337      347.695       26.850      867.515
05/11/2013  12:34:00       -5.504      -36.616       20.464       64.773       51.599       31.548     4195.590     2662.426      995.257        0.482        0.393       37.027       25.863        0.488      347.845       27.109      867.501
05/11/2013  12:35:00     -147.030      -40.656      -28.434       49.933       58.314       33.682     2493.306     3400.496     1134.444        1.555        0.351      152.547       16.904        0.012      347.162       25.931      867.490
05/11/2013  12:36:00     -176.761      -62.029      -19.835       41.166       40.783       25.924     1694.667     1663.222      672.059        1.976        0.201      187.329       26.173        0.020      347.042       25.723      867.458
05/11/2013  12:37:00     -177.861      -83.225       -9.207       51.953       47.872       33.060     2699.161     2291.756     1092.936        2.236        0.304      196.369       30.257        0.024      346.987       25.627      867.435
05/11/2013  12:38:00      -43.095      -46.719       20.289       82.200       45.651       43.471     6756.890     2084.017     1889.754        0.759        0.537       63.560       42.477        0.447      347.583       26.659      867.407
05/11/2013  12:39:00       10.499     -111.318       -0.655       28.748       35.300       22.708      826.426     1246.056      515.652        0.754        0.129      111.812       17.315        0.024      347.043       25.726      867.411
05/11/2013  12:40:00      -15.010      -44.076        3.662       36.614       62.673       33.015     1340.601     3927.889     1089.979        0.427        0.318       46.562       37.272        0.641      347.683       26.831      867.415
05/11/2013  12:41:00       36.202       25.221       36.205       44.610       49.524       32.286     1990.074     2452.580     1042.397        0.437        0.274       44.121       17.849        0.164      347.614       26.712      867.417
05/11/2013  12:42:00       40.977        4.567       27.254       44.527       53.785       53.381     1982.619     2892.808     2849.531        0.508        0.386       41.230       39.996        0.941      347.579       26.651      867.402
05/11/2013  12:43:00       55.824      114.107      122.211       86.390       82.437       55.972     7463.225     6795.900     3132.820        2.423        0.870      127.031       49.637        0.153      347.914       27.227      867.366
05/11/2013  12:44:00       70.035       72.156       39.715       79.195       46.996       42.571     6271.880     2208.646     1812.330        1.099        0.515      100.555       15.250        0.023      347.558       26.614      867.369
05/11/2013  12:45:00       -0.830       -7.758       24.352       33.378       42.028       33.887     1114.093     1766.378     1148.331        0.234        0.201        7.803       11.896        2.325      348.168       27.669      867.348
05/11/2013  12:46:00      105.357      -61.081       15.919       78.705       69.514       52.087     6194.425     4832.195     2713.097        1.441        0.687      121.783       58.498        0.231      347.700       26.859      867.337
05/11/2013  12:47:00       15.057       37.743       70.486       36.198       42.126       24.883     1310.307     1774.570      619.144        0.516        0.185       40.636       24.573        0.366      348.222       27.763      867.311
05/11/2013  12:48:00       97.724      -43.588       45.621      109.015       84.967       42.833    11884.355     7219.475     1834.658        1.723        1.047      107.004       40.170        0.141      347.849       27.115      867.300
05/11/2013  12:49:00      151.546      115.734       48.696      100.623       73.192       76.918    10124.968     5357.136     5916.324        3.006        1.070      190.685       47.182        0.061      347.727       26.901      867.287
05/11/2013  12:50:00      219.907      129.653       36.877       74.628       60.690       50.164     5569.400     3683.217     2516.430        3.915        0.588      255.282       41.422        0.026      347.455       26.433      867.280
05/11/2013  12:51:00      123.078       81.256       26.160       96.501       80.725       59.960     9312.531     6516.458     3595.240        2.093        0.971      147.482       53.629        0.132      347.554       26.606      867.272
05/11/2013  12:52:00      149.237       94.248       23.247       67.378       77.793       43.874     4539.809     6051.686     1924.957        2.210        0.626      176.506       30.345        0.030      347.423       26.378      867.255
05/11/2013  12:53:00       85.475      143.075        1.823      108.201       82.045       55.428    11707.442     6731.370     3072.243        2.464        1.076      166.663       44.302        0.071      347.827       27.076      867.234
05/11/2013  12:54:00       41.561      102.191        3.309       67.978       73.010       60.447     4621.023     5330.468     3653.896        1.289        0.680      110.319       51.669        0.219      347.711       26.877      867.215
05/11/2013  12:55:00       32.098      116.041       -8.203       52.512       72.086       49.668     2757.513     5196.344     2466.905        1.249        0.521      120.399       44.116        0.134      347.616       26.714      867.202
05/11/2013  12:56:00       43.060       31.255       26.198       70.646       42.619       32.014     4990.837     1816.358     1024.894        0.567        0.392       53.208       22.057        0.172      348.137       27.614      867.181
05/11/2013  12:57:00       52.556        6.100        7.825       56.259       50.517       37.303     3165.044     2551.974     1391.478        0.498        0.355       52.909       27.283        0.266      347.945       27.282      867.185
05/11/2013  12:58:00       57.362       42.210       13.618       54.616       65.684       34.772     2982.956     4314.384     1209.098        0.688        0.425       71.219       14.591        0.042      348.056       27.473      867.162
05/11/2013  12:59:00       28.613      -39.711       47.276       52.430       71.945       63.072     2748.861     5176.095     3978.139        0.826        0.595       48.945       51.239        1.096      348.339       27.963      867.159
05/11/2013  13:00:00      -43.037      -49.044      -14.561       75.952       33.957       29.537     5768.685     1153.094      872.440        0.613        0.390       65.249       11.988        0.034      347.977       27.336      867.166
05/11/2013  13:01:00      -32.248      -89.932       -9.646       45.323       64.423       53.745     2054.193     4150.297     2888.555        0.916        0.455       95.539       34.233        0.128      348.183       27.693      867.134
05/11/2013  13:02:00      -35.811     -172.718       -1.332       74.528      143.330       44.779     5554.434    20543.491     2005.153        2.960        1.405      176.392       26.386        0.022      347.871       27.152      867.120
05/11/2013  13:03:00      -98.652     -315.420      -16.785       94.539       94.914       61.736     8937.695     9008.699     3811.373        6.563        1.088      330.488       39.010        0.014      347.491       26.495      867.118
05/11/2013  13:04:00      -80.235     -141.242        5.507       98.720      120.037       50.358     9745.570    14408.936     2535.921        2.655        1.335      162.440       47.622        0.086      347.721       26.894      867.115
05/11/2013  13:05:00     -382.328     -191.233      -21.314       90.029       74.529       61.936     8105.233     5554.543     3836.022       10.034        0.875      427.486       52.416        0.015      347.314       26.190      867.065
05/11/2013  13:06:00     -256.145       48.502      -15.469      125.389       56.360       41.836    15722.484     3176.405     1750.216        4.442        1.032      260.697       51.561        0.039      347.430       26.392      867.061
05/11/2013  13:07:00     -189.533       46.307      -12.237      104.137       70.453       51.480    10844.514     4963.596     2650.222        2.833        0.923      195.108       52.172        0.072      347.549       26.596      867.025
05/11/2013  13:08:00     -213.317      -10.465       -2.235      118.920      107.910       50.889    14142.046    11644.557     2589.704        3.699        1.419      213.574       53.087        0.062      347.641       26.754      867.016
05/11/2013  13:09:00     -147.753      -16.387       12.327       95.957       68.801       46.083     9207.659     4733.529     2123.620        1.916        0.803      148.659       50.036        0.113      347.844       27.106      867.006
05/11/2013  13:10:00       -4.334      -35.141       16.772       36.355       87.480       48.715     1321.668     7652.730     2373.112        0.644        0.567       35.408       58.691        2.748      348.254       27.816      867.024
05/11/2013  13:11:00       30.018      -91.276      -14.910       95.479      118.306       67.813     9116.160    13996.215     4598.591        1.858        1.386       96.085       76.485        0.634      347.767       26.973      867.021
05/11/2013  13:12:00       96.402      107.126        9.470       90.169       67.538       56.572     8130.429     4561.349     3200.398        1.837        0.795      144.116       37.356        0.067      347.681       26.826      867.003
05/11/2013  13:13:00       11.856       25.922        2.858       38.161       36.027       26.876     1456.284     1297.918      722.338        0.215        0.174       28.505       21.936        0.592      347.914       27.230      866.992
05/11/2013  13:14:00        9.903       -4.880       40.768       31.299       40.811       30.560      979.647     1665.551      933.934        0.268        0.179       11.040       24.569        4.952      347.915       27.230      866.993
05/11/2013  13:15:00       -1.338       21.507       43.400       22.198       28.571       27.621      492.765      816.277      762.897        0.221        0.104       21.549       13.930        0.418      348.307       27.907      866.987
05/11/2013  13:16:00       70.084      100.266       87.725      105.275       77.334       60.814    11082.765     5980.496     3698.374        2.171        1.038      122.331       42.990        0.123      347.708       26.872      866.993
05/11/2013  13:17:00       56.020      -24.750       52.868      125.828      114.340       74.536    15832.626    13073.735     5555.660        2.050        1.723       61.244       61.419        1.006      348.045       27.454      866.964
05/11/2013  13:18:00      190.720       84.009      122.097      140.096      177.142       99.854    19626.839    31379.139     9970.907        5.965        3.049      208.402      103.352        0.246      347.663       26.790      866.949
05/11/2013  13:19:00       96.426       38.620      115.132      120.030       99.806       71.509    14407.103     9961.252     5113.501        2.676        1.474      103.873       67.477        0.422      347.940       27.272      866.971
05/11/2013  13:20:00      104.673      -84.472       61.672      102.569      173.355       91.006    10520.317    30051.850     8282.108        3.537        2.443      134.506      110.178        0.671      347.967       27.318      866.954
05/11/2013  13:21:00       19.277       51.760       94.061       59.873       77.112       56.878     3584.768     5946.209     3235.051        1.233        0.638       55.233       55.576        1.012      348.165       27.662      866.962
05/11/2013  13:22:00       98.739      -37.006       86.330      117.751      171.921      111.341    13865.335    29556.756    12396.716        3.719        2.791      105.446      125.644        1.420      348.045       27.452      866.956
05/11/2013  13:23:00       77.233       -5.320       66.882       63.927      129.711       78.828     4086.693    16825.055     6213.786        1.879        1.356       77.416       94.596        1.493      347.624       26.727      866.971
05/11/2013  13:24:00       95.789      -63.340       45.452       95.869      160.696      100.546     9190.808    25823.083    10109.594        3.018        2.256      114.837      116.501        1.029      347.880       27.168      866.968
05/11/2013  13:25:00       48.970       67.583      116.827       85.258       89.670       65.051     7268.987     8040.660     4231.658        2.007        0.977       83.460       70.511        0.714      347.880       27.168      866.998
05/11/2013  13:26:00       42.935       10.108       83.385       56.125      181.273      111.055     3150.026    32860.058    12333.193        2.861        2.417       44.109      136.432        9.567      347.610       26.702      866.990
05/11/2013  13:27:00        8.272       -8.087       17.643       78.322       67.998       49.322     6134.291     4623.684     2432.671        0.682        0.660       11.569       42.634       13.581      348.053       27.469      866.992
05/11/2013  13:28:00     -122.160        4.068       -9.372       47.992       45.899       39.285     2303.222     2106.752     1543.277        1.049        0.298      122.228       37.725        0.095      347.576       26.646      866.967
05/11/2013  13:29:00      -84.920        2.090       -3.448       46.320       35.509       21.891     2145.518     1260.854      479.199        0.556        0.194       84.946       23.308        0.075      348.018       27.410      866.947
05/11/2013  13:30:00      -72.770       32.275       -2.027       46.154       37.138       29.011     2130.229     1379.265      841.626        0.535        0.218       79.606       19.807        0.062      348.195       27.716      866.919
05/11/2013  13:31:00      -22.704        7.190       14.925       46.753       44.544       28.799     2185.841     1984.206      829.395        0.289        0.250       23.815       16.196        0.462      348.767       28.704      866.901
05/11/2013  13:32:00      -75.627        6.872       -7.928       85.284       58.290       32.848     7273.420     3397.767     1079.005        0.879        0.588       75.939       41.149        0.294      347.867       27.149      866.905
05/11/2013  13:33:00       28.237       38.364       30.635       34.614       26.321       16.189     1198.120      692.816      262.077        0.268        0.108       47.635       14.019        0.087      348.378       28.030      866.899
05/11/2013  13:34:00       61.784       28.649       27.163       29.122       18.509       27.138      848.063      342.600      736.452        0.365        0.096       68.103       12.583        0.034      348.104       27.557      866.891
05/11/2013  13:35:00       25.030       50.397       31.703       30.514       34.549       24.961      931.128     1193.611      623.045        0.346        0.137       56.270       23.381        0.173      348.403       28.073      866.875
05/11/2013  13:36:00      -39.996        3.081        0.036       44.709       32.931       29.210     1998.894     1084.480      853.235        0.277        0.197       40.114       23.821        0.353      347.799       27.032      866.862
05/11/2013  13:37:00        5.959       68.478        8.897       39.964       64.020       45.089     1597.112     4098.605     2033.036        0.627        0.386       68.737       30.668        0.199      348.272       27.847      866.848
05/11/2013  13:38:00       73.103       52.111       13.989       37.030       44.753       34.457     1371.207     2002.861     1187.311        0.641        0.228       89.775       14.076        0.025      347.914       27.227      866.833
05/11/2013  13:39:00       -4.581        5.726       -6.596       63.618       52.165       44.921     4047.283     2721.238     2017.882        0.444        0.439        7.333       33.768       21.204      348.065       27.490      866.801
05/11/2013  13:40:00     -135.322       22.034       -9.910      107.181       99.945       45.693    11487.866     9989.068     2087.853        2.123        1.178      137.104       50.976        0.138      348.303       27.898      866.788
05/11/2013  13:41:00     -259.060      -34.974      -32.871      113.739       87.456       40.716    12936.634     7648.509     1657.798        4.583        1.112      261.410       30.327        0.013      347.919       27.232      866.774
05/11/2013  13:42:00     -282.685       49.044      -34.660       84.422       92.956       43.636     7127.049     8640.793     1904.113        5.059        0.884      286.908       36.166        0.016      347.631       26.736      866.768
05/11/2013  13:43:00     -140.444        2.579      -18.197       68.831       73.394       25.891     4737.769     5386.661      670.330        1.543        0.540      140.468       38.449        0.075      347.386       26.319      866.774
05/11/2013  13:44:00      -99.874       89.524      -10.036       56.310       63.625       41.647     3170.831     4048.194     1734.509        1.352        0.448      134.125       40.437        0.091      347.970       27.326      866.772
05/11/2013  13:45:00      -79.160       87.030       -1.982       42.141       51.412       38.006     1775.858     2643.166     1444.451        0.985        0.293      117.646       28.527        0.059      347.956       27.301      866.774
05/11/2013  13:46:00      -29.883       62.568       13.751       43.655       45.330       36.860     1905.781     2054.812     1358.670        0.516        0.266       69.338       26.164        0.142      348.283       27.867      866.778
05/11/2013  13:47:00       16.553      192.022      -16.444       36.916      101.936       49.726     1362.808    10390.989     2472.630        2.582        0.711      192.734       58.166        0.091      347.834       27.088      866.766
05/11/2013  13:48:00       35.940      132.577      -17.800       35.650       62.102       33.192     1270.910     3856.698     1101.734        1.271        0.311      137.362       33.805        0.061      347.666       26.799      866.759
05/11/2013  13:49:00       49.441      114.860        6.080       56.112       96.323       44.929     3148.610     9278.170     2018.636        1.506        0.722      125.049       53.226        0.181      347.963       27.313      866.754
05/11/2013  13:50:00       30.790      146.160      -11.657       55.545       85.106       43.623     3085.295     7243.054     1902.980        1.734        0.612      149.368       49.857        0.111      347.922       27.241      866.746
05/11/2013  13:51:00      -16.704      102.489        2.186       60.081       56.265       41.694     3609.736     3165.719     1738.365        0.965        0.426      103.842       39.038        0.141      348.340       27.966      866.764
05/11/2013  13:52:00       59.663       46.116       26.479       53.551       36.373       36.821     2867.743     1323.015     1355.809        0.597        0.277       75.408       29.108        0.149      348.116       27.578      866.755
05/11/2013  13:53:00       73.684       26.327        7.956       55.297       30.516       28.382     3057.707      931.198      805.565        0.549        0.240       78.246       17.494        0.050      347.660       26.790      866.738
05/11/2013  13:54:00      -25.388       83.542        0.945       63.163       66.500       34.021     3989.543     4422.199     1157.455        0.860        0.478       87.315       28.800        0.109      348.197       27.717      866.710
05/11/2013  13:55:00       19.745      134.189      -12.181       50.258       67.527       42.018     2525.861     4559.882     1765.476        1.370        0.443      135.634       41.236        0.092      348.162       27.656      866.709
05/11/2013  13:56:00      155.919      113.399       17.652       77.486       56.974       57.041     6004.030     3245.984     3253.646        2.499        0.625      192.795       44.277        0.053      347.906       27.213      866.711
05/11/2013  13:57:00      188.728      104.470       55.982      108.392       79.976       62.968    11748.865     6396.081     3964.974        3.588        1.105      215.713       38.165        0.031      348.037       27.439      866.645
05/11/2013  13:58:00       87.432      126.488      155.755      102.905      141.897       90.383    10589.343    20134.865     8169.136        4.339        1.945      153.764       87.496        0.324      348.375       28.022      866.624
05/11/2013  13:59:00      121.927      -11.737       41.298      133.197      149.529       87.082    17741.558    22359.018     7583.325        3.219        2.384      122.490       85.160        0.483      348.348       27.977      866.604
05/11/2013  14:00:00      133.638      137.213      148.478      116.126       96.874       83.815    13485.133     9384.666     7024.925        4.431        1.495      191.537       72.052        0.142      348.211       27.739      866.602
05/11/2013  14:01:00      189.415       52.772       97.628      148.109      105.940       90.105    21936.355    11223.312     8118.932        4.473        2.064      196.629       82.834        0.177      348.174       27.675      866.599
05/11/2013  14:02:00      116.036      173.396      171.413      124.182      113.397       78.148    15421.147    12858.879     6107.098        5.364        1.719      208.640       73.643        0.125      348.083       27.516      866.583
05/11/2013  14:03:00       77.048      -99.276       18.750       82.250       98.559       68.262     6765.041     9713.939     4659.660        1.864        1.057      125.667       69.344        0.304      348.332       27.950      866.591
05/11/2013  14:04:00       43.359        5.116       71.343       55.910       65.554       54.527     3125.967     4297.352     2973.208        0.869        0.520       43.660       40.021        0.840      348.482       28.210      866.567
05/11/2013  14:05:00       66.910       20.877       54.715       70.095       76.363       44.354     4913.346     5831.243     1967.271        1.031        0.636       70.091       25.067        0.128      348.566       28.355      866.573
05/11/2013  14:06:00      116.814       37.584       36.268       98.517       94.857       68.851     9705.512     8997.794     4740.475        1.990        1.172      122.711       68.802        0.314      348.733       28.645      866.559
05/11/2013  14:07:00      299.824      165.525      136.649      157.183      142.566      126.397    24706.435    20325.020    15976.116        9.848        3.050      342.481       98.989        0.084      348.307       27.903      866.508
05/11/2013  14:08:00      167.921      181.847      181.735      128.019      115.479       95.405    16388.755    13335.315     9102.176        6.655        1.941      247.519       67.459        0.074      348.022       27.411      866.502
05/11/2013  14:09:00       92.643      135.953      130.313      125.731       86.217       76.086    15808.193     7433.403     5789.105        3.653        1.452      164.517       66.910        0.165      348.210       27.737      866.514
05/11/2013  14:10:00      213.980      106.972       60.044      166.897      111.327       77.532    27854.636    12393.746     6011.221        5.354        2.313      239.229       56.587        0.056      348.371       28.016      866.492
05/11/2013  14:11:00      260.124      146.540       73.224      159.452      117.345      117.569    25424.956    13769.889    13822.563        7.375        2.651      298.560       89.460        0.090      347.879       27.164      866.452
05/11/2013  14:12:00      140.453      132.824      129.732      164.431      118.696      105.582    27037.690    14088.840    11147.635        5.323        2.614      193.311      103.556        0.287      348.294       27.882      866.443
05/11/2013  14:13:00      184.994       25.386      123.192      147.953      179.215      107.584    21889.980    32117.975    11574.335        5.780        3.279      186.727      131.632        0.497      347.937       27.265      866.454
05/11/2013  14:14:00      181.239      194.580      166.104      119.251      115.522       78.921    14220.898    13345.254     6228.546        6.604        1.690      265.912       76.370        0.082      347.902       27.206      866.452
05/11/2013  14:15:00       59.335       62.587       77.604       67.675       87.308       80.982     4579.890     7622.669     6558.136        1.611        0.938       86.243       76.678        0.790      348.231       27.775      866.463
05/11/2013  14:16:00       82.161      101.890       89.278      107.223       92.284       78.990    11496.848     8516.318     6239.350        2.567        1.313      130.889       55.778        0.182      347.959       27.305      866.457
05/11/2013  14:17:00       53.574       82.327       96.389      106.146       91.851       63.797    11266.924     8436.616     4070.011        2.135        1.189       98.223       61.018        0.386      348.178       27.684      866.427
05/11/2013  14:18:00       41.540       90.566      133.804      111.690       87.084       68.247    12474.736     7583.642     4657.699        2.627        1.236       99.639       77.981        0.613      348.506       28.250      866.425
05/11/2013  14:19:00      149.128      -58.917       42.927       93.664      113.590       76.283     8772.951    12902.591     5819.171        2.752        1.375      160.345       87.645        0.299      348.240       27.790      866.440
05/11/2013  14:20:00      141.584     -131.478       24.437       91.450      161.191       81.352     8363.027    25982.430     6618.213        3.944        2.048      193.216      111.139        0.331      348.104       27.551      866.430
05/11/2013  14:21:00      183.717     -183.637      -23.531      126.553      140.757       85.871    16015.596    19812.404     7373.816        5.561        2.160      259.758       94.148        0.131      348.066       27.489      866.399
05/11/2013  14:22:00       64.164       92.567      115.304       82.382      115.817       78.876     6786.784    13413.504     6221.419        2.620        1.321      112.631       77.782        0.477      348.325       27.936      866.421
05/11/2013  14:23:00       72.427       61.707      104.490      100.598       90.801       64.492    10119.959     8244.796     4159.217        2.124        1.126       95.150       61.480        0.417      348.604       28.420      866.422
05/11/2013  14:24:00      143.329      116.484      138.875       94.707      139.279       84.949     8969.449    19398.531     7216.407        4.449        1.779      184.694       80.054        0.188      348.442       28.137      866.426
05/11/2013  14:25:00      136.626       -8.186       92.921      120.892      202.011      113.891    14614.934    40808.446    12971.230        4.787        3.420      136.871      140.683        1.056      348.225       27.764      866.431
05/11/2013  14:26:00      153.056       83.902      125.378      106.064      153.652       92.978    11249.590    23609.027     8644.932        4.484        2.175      174.544       94.670        0.294      347.866       27.142      866.452
05/11/2013  14:27:00      159.024      115.901       61.953       84.135       82.987       85.902     7078.631     6886.783     7379.141        3.195        1.067      196.779       61.879        0.099      347.765       26.968      866.467
05/11/2013  14:28:00       31.535       61.122       75.793       45.112       49.489       39.356     2035.050     2449.116     1548.873        0.825        0.302       68.778       20.707        0.091      347.882       27.174      866.439
05/11/2013  14:29:00       43.130       40.457       67.611       55.587       55.990       46.189     3089.917     3134.864     2133.457        0.821        0.418       59.135       34.736        0.345      347.715       26.886      866.418
05/11/2013  14:30:00       91.008       82.857       61.054       60.650       58.896       57.917     3678.389     3468.786     3354.360        1.469        0.525      123.076       45.226        0.135      347.978       27.338      866.396
05/11/2013  14:31:00      127.261      107.973       74.706       88.522       73.902       64.845     7836.077     5461.467     4204.930        2.547        0.875      166.893       42.088        0.064      347.732       26.911      866.357
05/11/2013  14:32:00      183.247       55.492       33.059       85.825       68.575       60.633     7366.009     4702.488     3676.369        2.675        0.787      191.465       45.671        0.057      347.937       27.265      866.338
05/11/2013  14:33:00      188.679      114.750       67.764       94.691       66.717       52.845     8966.329     4451.131     2792.558        3.478        0.811      220.833       39.384        0.032      347.811       27.047      866.332
05/11/2013  14:34:00       33.593      -62.323       44.100       39.176       87.381       45.497     1534.747     7635.502     2069.983        0.910        0.562       70.801       53.249        0.566      347.790       27.013      866.331
05/11/2013  14:35:00       55.795       52.572       16.483       73.490       64.700       35.999     5400.759     4186.040     1295.964        0.851        0.544       76.661       24.230        0.100      347.943       27.278      866.323
05/11/2013  14:36:00      173.257      105.783       21.470       76.698       68.637       45.004     5882.644     4711.051     2025.352        2.714        0.631      202.998       21.372        0.011      347.933       27.259      866.304
05/11/2013  14:37:00      125.416       98.331       32.532       82.634       69.976       50.479     6828.353     4896.708     2548.092        2.036        0.714      159.368       28.191        0.031      347.950       27.287      866.281
05/11/2013  14:38:00      218.605      112.996        4.337       88.127       77.849       54.145     7766.340     6060.435     2931.680        3.866        0.838      246.082       22.173        0.008      347.837       27.093      866.283
05/11/2013  14:39:00      -75.624       77.950      -22.128       63.672       37.265       24.499     4054.094     1388.703      600.209        0.916        0.302      108.606       13.221        0.015      347.807       27.044      866.292
05/11/2013  14:40:00     -166.519      -23.381      -13.612       29.925       43.900       26.227      895.533     1927.199      687.869        1.598        0.176      168.152       17.627        0.011      347.851       27.120      866.271
05/11/2013  14:41:00     -215.175      -28.831      -26.177       44.366       31.414       26.924     1968.346      986.811      724.889        2.575        0.184      217.098       16.663        0.006      347.826       27.075      866.263
05/11/2013  14:42:00     -144.731      -25.348       -2.375       62.566       63.978       36.732     3914.516     4093.215     1349.229        1.547        0.468      146.934       25.579        0.030      347.957       27.302      866.259
05/11/2013  14:43:00      -15.756      -15.672       16.741       61.554       46.489       37.054     3788.844     2161.184     1373.015        0.405        0.366       22.223       35.328        2.527      348.498       28.238      866.248
05/11/2013  14:44:00      -66.561      -58.029       12.611       57.582       60.245       38.619     3315.687     3629.482     1491.462        0.820        0.422       88.305       41.669        0.223      348.203       27.728      866.244
05/11/2013  14:45:00      -84.375      -65.586        3.505       64.898       46.456       28.118     4211.810     2158.150      790.616        0.930        0.358      106.868       34.533        0.104      348.145       27.628      866.251
05/11/2013  14:46:00       -8.891      -94.878        7.195      124.285       82.879       44.431    15446.678     6868.893     1974.072        1.671        1.214       95.294       31.165        0.107      348.269       27.841      866.229
05/11/2013  14:47:00      -58.179      -34.416      -14.005       51.102       45.682       35.598     2611.409     2086.842     1267.239        0.536        0.298       67.596       26.695        0.156      348.360       27.999      866.191
05/11/2013  14:48:00       39.532     -123.687        2.421      100.370      132.477       61.673    10074.139    17550.178     3803.505        2.414        1.571      129.851       67.016        0.266      348.171       27.670      866.199
05/11/2013  14:49:00       68.905     -106.255        0.493      105.194      167.834       74.362    11065.811    28168.349     5529.754        3.039        2.238      126.641       94.038        0.551      348.099       27.546      866.186
05/11/2013  14:50:00       67.774     -140.905       -0.984       60.862       93.620       53.831     3704.129     8764.613     2897.793        1.990        0.768      156.357       54.613        0.122      348.183       27.693      866.180
05/11/2013  14:51:00      -82.223     -155.958      -12.415      117.794      117.804       45.136    13875.373    13877.775     2037.292        3.051        1.490      176.305       45.986        0.068      348.274       27.849      866.165
05/11/2013  14:52:00       31.179     -189.265      -14.077       86.279      126.614       58.823     7444.030    16031.219     3460.163        3.196        1.347      191.816       50.530        0.069      348.210       27.736      866.180
05/11/2013  14:53:00      -37.851     -239.862       -3.410       55.171       87.609       40.237     3043.800     7675.397     1618.984        3.566        0.617      242.830       34.110        0.020      348.033       27.430      866.204
05/11/2013  14:54:00      -64.805      -63.009       12.054       79.411       45.728       44.752     6306.185     2091.091     2002.746        0.936        0.520       90.387       27.334        0.091      348.198       27.717      866.156
05/11/2013  14:55:00       12.484       24.586       64.143       29.624       70.552       37.588      877.572     4977.536     1412.885        0.607        0.363       27.574       44.938        2.656      348.123       27.589      866.118
05/11/2013  14:56:00       99.870       72.161       62.216       75.590       33.518       45.911     5713.827     1123.475     2107.815        1.400        0.447      123.212       48.368        0.154      347.754       26.952      866.083
05/11/2013  14:57:00       54.982      -11.214        8.756       42.313       65.324       28.350     1790.359     4267.260      803.700        0.504        0.343       56.113       23.115        0.170      348.147       27.631      866.064
05/11/2013  14:58:00       65.991     -125.366      -12.809       40.244       45.721       26.925     1619.585     2090.367      724.948        1.233        0.222      141.674       27.822        0.039      348.099       27.548      866.054
05/11/2013  14:59:00      101.947     -129.848      -25.000       76.053       70.933       25.796     5784.102     5031.520      665.439        1.968        0.574      165.087       15.033        0.008      348.105       27.557      866.046
05/11/2013  15:00:00       74.222      -70.702       12.268       78.015       68.787       40.610     6086.293     4731.625     1649.172        1.156        0.623      102.507       49.282        0.231      348.348       27.979      866.025
05/11/2013  15:01:00      -37.357     -139.732      -23.851       94.147       72.617       48.242     8863.748     5273.215     2327.315        1.897        0.823      144.640       35.537        0.060      348.666       28.526      865.999
05/11/2013  15:02:00      -20.163      -54.342        7.173       57.375       52.756       46.308     3291.942     2783.224     2144.477        0.581        0.411       57.962       26.084        0.203      348.787       28.740      865.994
05/11/2013  15:03:00      -80.317      -70.891       -0.514       48.233       33.107       28.348     2326.401     1096.082      803.611        0.785        0.211      107.128        9.410        0.008      348.341       27.967      866.000
05/11/2013  15:04:00      -21.911      -57.636        5.206       42.378       54.447       32.132     1795.911     2964.485     1032.453        0.481        0.290       61.660       24.386        0.156      348.503       28.247      865.982
05/11/2013  15:05:00      -47.360      -84.587       12.584       83.505       60.762       36.122     6973.122     3692.009     1304.800        1.076        0.598       96.943       24.117        0.062      348.773       28.715      865.966
05/11/2013  15:06:00     -164.499       -5.747       13.952      117.095       72.755       58.804    13711.319     5293.246     3457.867        2.487        1.123      164.600       57.439        0.122      348.537       28.303      865.938
05/11/2013  15:07:00     -194.773      -38.416        8.936       92.558       97.131       45.106     8566.969     9434.478     2034.562        2.976        1.002      198.526       49.511        0.062      348.385       28.040      865.925
05/11/2013  15:08:00     -113.977      -20.352       22.110      147.965       91.350       57.180    21893.531     8344.840     3269.550        2.370        1.675      115.779       62.773        0.294      348.587       28.390      865.930
05/11/2013  15:09:00      -14.531       17.952       32.364       60.912       54.303       48.916     3710.322     2948.789     2392.768        0.531        0.453       23.096       32.976        2.038      348.720       28.623      865.915
05/11/2013  15:10:00      -72.382      -41.401       10.195       75.371       54.951       37.225     5680.849     3019.656     1385.704        0.857        0.504       83.386       40.797        0.239      348.569       28.360      865.916
05/11/2013  15:11:00     -173.485     -118.944       -7.706       78.096       72.455       38.554     6098.934     5249.789     1486.400        2.857        0.642      210.344       33.893        0.026      348.172       27.671      865.920
05/11/2013  15:12:00      -74.468      -33.434        3.144       43.953       43.489       21.829     1931.841     1891.281      476.524        0.549        0.215       81.629       25.085        0.094      348.148       27.632      865.931
05/11/2013  15:13:00       31.431       11.026       27.889       34.946       55.872       50.727     1221.243     3121.689     2573.245        0.440        0.346       33.309       46.224        1.926      348.303       27.900      865.892
05/11/2013  15:14:00       68.856      102.726       91.060       83.595       59.359       46.288     6988.078     3523.509     2142.569        1.812        0.633      123.668       39.596        0.103      348.283       27.863      865.859
05/11/2013  15:15:00       80.268       58.215       98.192       93.045       74.270       52.747     8657.376     5516.021     2782.287        1.821        0.848       99.155       49.295        0.247      348.160       27.651      865.842
05/11/2013  15:16:00      162.479      103.900       81.291       99.541       76.210       62.910     9908.472     5807.950     3957.722        3.174        0.984      192.860       59.560        0.095      348.105       27.555      865.825
05/11/2013  15:17:00       49.346       16.322       58.986       52.863       82.517       56.260     2794.524     6808.995     3165.196        0.947        0.638       51.975       53.604        1.064      348.248       27.804      865.815
05/11/2013  15:18:00       57.190       -3.307       61.010       52.190       71.754       42.021     2723.794     5148.605     1765.796        0.832        0.482       57.285       46.109        0.648      347.926       27.249      865.810
05/11/2013  15:19:00       33.334       12.577       29.679       45.923       67.857       42.987     2108.899     4604.610     1847.909        0.535        0.428       35.628       41.273        1.342      348.154       27.645      865.801
05/11/2013  15:20:00       53.467       55.968       70.573       70.691       57.938       43.822     4997.246     3356.762     1920.357        1.062        0.514       77.402       42.374        0.300      348.233       27.779      865.800
05/11/2013  15:21:00       14.279       20.658       42.557       27.566       47.794       31.671      759.905     2284.253     1003.058        0.324        0.202       25.113       31.565        1.580      348.297       27.889      865.791
05/11/2013  15:22:00       11.276      -19.827        2.050       21.770       33.312       24.370      473.940     1109.660      593.904        0.135        0.109       22.809       22.858        1.004      348.416       28.098      865.788
05/11/2013  15:23:00       10.339      -26.569        0.502       30.272       60.711       32.954      916.406     3685.836     1085.949        0.325        0.284       28.510       26.699        0.877      348.347       27.977      865.772
05/11/2013  15:24:00       55.929       36.703       12.341       30.683       22.407       20.779      941.437      502.087      431.771        0.325        0.094       66.897       11.722        0.031      347.932       27.258      865.771
05/11/2013  15:25:00       -6.470      -75.393       31.304       88.383       89.466       43.995     7811.586     8004.147     1935.522        1.223        0.888       75.670       47.342        0.391      348.482       28.209      865.780
05/11/2013  15:26:00       25.955      -52.780       24.809       41.334       65.923       41.266     1708.461     4345.862     1702.846        0.591        0.388       58.817       43.087        0.537      348.892       28.920      865.758
05/11/2013  15:27:00       41.560      -68.664       39.731       72.541       87.166       38.491     5262.184     7597.952     1481.536        1.118        0.717       80.262       41.742        0.270      348.896       28.927      865.761
05/11/2013  15:28:00      151.889     -152.615       -9.820       83.235      107.670       57.053     6928.054    11592.742     3255.051        3.411        1.089      215.318       47.255        0.048      348.553       28.330      865.760
05/11/2013  15:29:00       67.221     -119.112       18.423       80.640      105.522       64.097     6502.802    11134.897     4108.438        2.039        1.087      136.771       54.288        0.158      348.661       28.518      865.757
05/11/2013  15:30:00      -35.446      -77.934       33.273       93.234      114.469       70.243     8692.505    13103.110     4934.021        1.758        1.336       85.616       66.164        0.597      348.850       28.845      865.749
05/11/2013  15:31:00       78.583     -200.584      -40.739       84.227       95.634       56.098     7094.136     9145.864     3146.973        3.372        0.969      215.428       49.235        0.052      348.237       27.784      865.770
05/11/2013  15:32:00       60.435     -103.635       19.655       65.947       82.355       62.644     4349.040     6782.393     3924.233        1.491        0.753      119.969       48.116        0.161      348.408       28.081      865.763
05/11/2013  15:33:00       77.317     -139.300      -14.588       54.786       78.345       35.212     3001.543     6137.944     1239.879        1.799        0.519      159.319       34.931        0.048      348.240       27.790      865.774
05/11/2013  15:34:00       -5.464       24.860       58.577       19.062       28.040       18.662      363.372      786.247      348.256        0.279        0.075       25.454       18.615        0.535      348.854       28.856      865.740
05/11/2013  15:35:00       34.972      -81.829       11.283       43.872       58.868       31.575     1924.728     3465.400      996.976        0.722        0.319       88.989       30.289        0.116      348.686       28.564      865.731
05/11/2013  15:36:00      -55.891      -56.191        7.496       64.432       54.778       33.273     4151.436     3000.588     1107.113        0.730        0.413       79.254       22.436        0.080      348.848       28.843      865.728
05/11/2013  15:37:00     -158.102     -114.924        7.954      106.676       94.357       53.638    11379.760     8903.333     2876.987        3.071        1.158      195.458       56.050        0.082      348.613       28.433      865.726
05/11/2013  15:38:00     -149.083     -159.359       -7.300      121.247       77.743       47.328    14700.750     6044.034     2239.986        3.533        1.149      218.223       50.761        0.054      348.508       28.253      865.702
05/11/2013  15:39:00     -106.209     -164.741       -6.831      106.574       98.004       56.515    11358.008     9604.844     3193.941        3.131        1.208      196.010       43.339        0.049      348.665       28.524      865.669
05/11/2013  15:40:00     -158.316     -162.407       10.560      111.063      117.199       59.492    12334.902    13735.698     3539.330        4.058        1.480      226.804       62.212        0.075      348.562       28.345      865.674
05/11/2013  15:41:00     -171.476     -143.073        3.491      122.372       93.251       63.431    14975.004     8695.675     4023.511        3.879        1.385      223.324       59.886        0.072      348.262       27.827      865.673
05/11/2013  15:42:00     -228.432     -111.533      -12.577       53.274       66.104       40.876     2838.121     4369.785     1670.847        3.683        0.444      254.206       21.227        0.007      348.202       27.721      865.661
05/11/2013  15:43:00     -165.438       -7.854        5.557       69.411       53.141       36.940     4817.931     2823.919     1364.586        1.823        0.450      165.624       39.139        0.056      348.440       28.138      865.641
05/11/2013  15:44:00     -147.757      -93.727        3.246      142.434       98.364       65.262    20287.486     9675.494     4259.089        3.242        1.711      174.977       76.969        0.193      348.759       28.688      865.632
05/11/2013  15:45:00     -178.185      -94.084        7.044      122.039       89.743       55.860    14893.588     8053.837     3120.327        3.336        1.303      201.498       63.912        0.101      348.580       28.376      865.643
05/11/2013  15:46:00      -57.061      -85.109       28.149       97.732       75.525       67.018     9551.538     5704.034     4491.444        1.552        0.987      102.467       61.846        0.364      348.677       28.545      865.632
05/11/2013  15:47:00     -145.780     -118.960        4.313       99.613       82.566       44.739     9922.678     6817.081     2001.611        2.708        0.937      188.158       52.857        0.079      348.581       28.379      865.635
05/11/2013  15:48:00      -44.284     -180.751        8.040       60.602       75.124       46.652     3672.631     5643.638     2176.400        2.309        0.575      186.097       40.775        0.048      348.509       28.254      865.642
05/11/2013  15:49:00      -98.891     -103.043        4.537       81.256       55.905       48.991     6602.468     3125.326     2400.131        1.627        0.606      142.819       45.039        0.099      348.813       28.781      865.620
05/11/2013  15:50:00      -61.521     -100.891        4.521       75.563       60.346       36.393     5709.703     3641.652     1324.485        1.233        0.534      118.169       32.322        0.075      348.719       28.621      865.610
05/11/2013  15:51:00      -27.635     -150.241       10.523       42.798      108.682       35.233     1831.686    11811.838     1241.334        1.916        0.744      152.762       38.278        0.063      348.236       27.784      865.627
05/11/2013  15:52:00        4.023      -12.707       40.621       30.597       76.069       44.687      936.149     5786.517     1996.925        0.527        0.436       13.328       52.044       15.247      348.464       28.178      865.607
05/11/2013  15:53:00      -26.015       17.476       35.139       28.321       28.651       23.918      802.103      820.881      572.069        0.221        0.110       31.340       22.445        0.513      348.527       28.288      865.595
05/11/2013  15:54:00     -139.271      -26.664       -1.878       72.580       53.400       32.290     5267.886     2851.570     1042.672        1.464        0.458      141.801       32.654        0.053      348.589       28.395      865.587
05/11/2013  15:55:00     -107.707       39.813      -28.441       94.903       57.869       37.780     9006.596     3348.871     1427.303        1.389        0.689      114.830       23.182        0.041      348.235       27.782      865.573
05/11/2013  15:56:00     -110.518      -22.026      -19.612       59.994       46.623       21.381     3599.300     2173.711      457.148        0.966        0.312      112.691        4.579        0.002      348.257       27.821      865.558
05/11/2013  15:57:00     -155.482      -78.375       -5.078       71.152       50.307       30.193     5062.636     2530.794      911.599        1.942        0.425      174.119       16.828        0.009      348.517       28.270      865.552
05/11/2013  15:58:00     -232.913     -149.122      -16.249      117.820      117.973       61.453    13881.474    13917.729     3776.428        5.416        1.579      276.561       52.585        0.036      348.471       28.187      865.531
05/11/2013  15:59:00     -299.911      -65.227      -10.850      141.004      118.017       57.736    19882.262    13927.941     3333.463        6.573        1.857      306.922       56.164        0.033      348.704       28.592      865.516
05/11/2013  16:00:00     -171.493      -41.239      -13.281       73.136       55.007       36.530     5348.833     3025.802     1334.432        2.050        0.485      176.381       46.706        0.070      348.402       28.072      865.548
05/11/2013  16:01:00     -102.736      -78.472       -4.552       50.887       36.144       25.988     2589.527     1306.373      675.354        1.065        0.229      129.277       23.685        0.034      348.344       27.972      865.531
05/11/2013  16:02:00      -95.795      -10.433      -17.446       58.319       34.387       18.598     3401.061     1182.442      345.867        0.726        0.246       96.362       17.415        0.033      348.149       27.635      865.503
05/11/2013  16:03:00        6.565       54.924        9.400       25.437       39.635       25.015      647.037     1570.935      625.768        0.300        0.142       55.315       20.042        0.131      348.447       28.151      865.477
05/11/2013  16:04:00       24.096       68.193       -5.008       32.021       42.291       27.855     1025.320     1788.522      775.878        0.442        0.179       72.325       24.240        0.112      348.267       27.838      865.466
05/11/2013  16:05:00       57.203       46.419        1.568       32.284       25.293       26.237     1042.286      639.726      688.365        0.390        0.119       73.668       17.112        0.054      348.205       27.731      865.462
05/11/2013  16:06:00       99.163       46.545       21.899       67.919       42.906       32.498     4612.980     1840.944     1056.102        0.999        0.376      109.544       15.427        0.020      348.242       27.796      865.452
05/11/2013  16:07:00      171.019       82.375       45.340       60.423       69.686       54.377     3650.977     4856.149     2956.828        2.477        0.573      189.824       34.235        0.033      347.865       27.141      865.443
05/11/2013  16:08:00      173.818      120.075       54.658       44.352       34.911       52.725     1967.061     1218.797     2779.926        2.679        0.298      211.260       26.575        0.016      347.969       27.319      865.435
05/11/2013  16:09:00      165.038       96.237       46.518       55.059       37.674       53.189     3031.527     1419.321     2829.058        2.297        0.364      191.048       25.188        0.017      347.966       27.317      865.427
05/11/2013  16:10:00      207.610      107.315       31.885       70.605       61.216       41.561     4985.123     3747.416     1727.338        3.305        0.523      233.706       35.295        0.023      348.070       27.493      865.401
05/11/2013  16:11:00      128.047       46.595       37.205       59.238       67.736       62.848     3509.139     4588.125     3949.839        1.600        0.602      136.262       43.067        0.100      348.236       27.784      865.390
05/11/2013  16:12:00       92.779       38.460       29.702       80.831       56.164       53.470     6533.660     3154.358     2858.993        1.176        0.627      100.434       36.190        0.130      348.381       28.035      865.396
05/11/2013  16:13:00      -20.013      -26.172       -0.028       49.997       32.595       23.685     2499.708     1062.407      560.987        0.260        0.206       32.947       14.953        0.206      348.809       28.776      865.394
05/11/2013  16:14:00      -27.869       -3.032        7.046       39.840       27.877       27.896     1587.187      777.120      778.160        0.199        0.157       28.034       19.696        0.494      348.944       29.011      865.378
05/11/2013  16:15:00      -18.703      -43.428       -7.447       50.632       54.584       31.967     2563.570     2979.383     1021.897        0.443        0.328       47.285       23.312        0.243      348.969       29.053      865.370
05/11/2013  16:16:00        6.878      -45.124       -7.442       40.235       47.401       34.605     1618.822     2246.834     1197.516        0.360        0.253       45.645       20.722        0.206      349.190       29.438      865.357
05/11/2013  16:17:00      -48.062       -5.580       17.274       47.045       72.252       30.397     2213.249     5220.398      923.985        0.550        0.418       48.385       34.859        0.519      348.595       28.407      865.359
05/11/2013  16:18:00       39.988       17.963       38.504       34.914       34.835       22.492     1219.011     1213.456      505.883        0.317        0.147       43.837        8.803        0.040      348.472       28.194      865.357
05/11/2013  16:19:00        9.256      -18.826       14.599       35.375       43.714       26.434     1251.358     1910.952      698.781        0.226        0.193       20.978       22.067        1.106      348.723       28.626      865.346
05/11/2013  16:20:00      113.330        6.539       31.267       66.272       54.937       60.053     4392.014     3018.095     3606.320        1.244        0.551      113.518       41.136        0.131      348.266       27.837      865.346
05/11/2013  16:21:00       54.370       24.462       26.333       55.895       51.792       32.333     3124.257     2682.409     1045.434        0.555        0.343       59.620       27.781        0.217      348.415       28.094      865.325
05/11/2013  16:22:00       74.972       61.964       51.379       54.607       50.286       45.076     2981.954     2528.712     2031.843        0.982        0.377       97.265       35.761        0.135      348.250       27.808      865.325
05/11/2013  16:23:00       88.549        4.724       24.660       48.294       29.079       27.528     2332.326      845.615      757.794        0.620        0.197       88.675       19.930        0.051      347.977       27.339      865.317
05/11/2013  16:24:00       14.741       41.880       59.891       40.638       50.562       49.850     1651.448     2556.466     2484.973        0.612        0.335       44.398       46.086        1.077      347.922       27.241      865.293
05/11/2013  16:25:00       11.062       49.670       65.913       58.762       53.621       38.827     3452.928     2875.240     1507.534        0.738        0.392       50.886       30.510        0.359      348.203       27.730      865.282
05/11/2013  16:26:00       98.762       37.896       27.940       73.460       51.065       49.116     5396.310     2607.598     2412.342        1.119        0.521      105.783       31.370        0.088      348.624       28.457      865.283
05/11/2013  16:27:00       26.572      109.708        0.490       57.951       97.355       51.666     3358.279     9478.036     2669.392        1.412        0.775      112.880       54.471        0.233      348.428       28.117      865.265
05/11/2013  16:28:00       37.751      149.565      -20.634       47.382       90.501       42.471     2245.016     8190.342     1803.802        1.823        0.612      154.255       47.293        0.094      348.379       28.030      865.264
05/11/2013  16:29:00      -12.398      150.093      -15.615       46.030       54.014       28.978     2118.778     2917.472      839.718        1.440        0.294      150.604       24.598        0.027      348.483       28.211      865.267
05/11/2013  16:30:00      -10.409       50.592        7.787       49.004       56.808       32.256     2401.395     3227.156     1040.475        0.470        0.333       51.652       33.882        0.430      348.721       28.625      865.277
05/11/2013  16:31:00      111.747       43.027       19.474       79.090       53.688       46.329     6255.267     2882.349     2146.350        1.300        0.564      119.744       26.691        0.050      348.555       28.336      865.264
05/11/2013  16:32:00      135.088       82.254       -3.872       75.866       62.707       40.579     5755.668     3932.186     1646.646        1.818        0.567      158.160       33.253        0.044      348.507       28.251      865.249
05/11/2013  16:33:00       87.443       67.858       12.030       52.041       38.561       23.650     2708.234     1486.964      559.344        0.857        0.238      110.685       13.287        0.014      348.303       27.900      865.259
05/11/2013  16:34:00       55.744       34.852       17.621       51.794       31.250       33.025     2682.656      976.566     1090.666        0.469        0.237       65.742       16.977        0.067      348.520       28.276      865.258
05/11/2013  16:35:00       50.387       45.489       11.143       39.492       32.416       32.270     1559.614     1050.796     1041.374        0.419        0.183       67.883       18.466        0.074      348.363       28.004      865.247
05/11/2013  16:36:00       43.023      -30.590        8.130       45.170       72.650       24.884     2040.286     5278.089      619.206        0.539        0.397       52.790       17.693        0.112      348.379       28.032      865.249
05/11/2013  16:37:00       43.256       26.909        6.877       35.642       30.828       30.620     1270.385      950.382      937.554        0.290        0.158       50.943       12.464        0.060      348.232       27.779      865.257
05/11/2013  16:38:00       21.381       -0.404        7.044       33.998       23.294       18.417     1155.894      542.624      339.203        0.127        0.102       21.385       16.919        0.626      348.516       28.270      865.250
05/11/2013  16:39:00       25.194        8.068       17.781       29.113       29.448       15.337      847.566      867.205      235.218        0.148        0.097       26.454       16.818        0.404      348.352       27.985      865.251
05/11/2013  16:40:00       17.477      -35.761       12.945       42.947       60.170       33.916     1844.453     3620.372     1150.329        0.418        0.331       39.803       31.842        0.640      348.752       28.678      865.249
05/11/2013  16:41:00     -176.558     -128.342        3.010      107.258       70.627       37.446    11504.280     4988.188     1402.234        3.277        0.895      218.275       38.860        0.032      348.408       28.078      865.246
05/11/2013  16:42:00     -100.708      -15.218        1.106       72.169       53.892       36.817     5208.304     2904.370     1355.461        0.992        0.473      101.852       42.081        0.171      348.440       28.138      865.217
05/11/2013  16:43:00      -30.892     -103.537       -9.154       65.370       97.793       45.514     4273.248     9563.518     2071.545        1.383        0.795      108.048       56.297        0.271      348.562       28.348      865.228
05/11/2013  16:44:00       84.943     -125.685        6.779       86.204      132.325       72.063     7431.109    17509.982     5193.101        2.659        1.507      151.697       65.986        0.189      348.399       28.064      865.226
05/11/2013  16:45:00       88.432     -172.644        1.447      108.884      128.534       70.505    11855.790    16520.878     4970.977        3.548        1.667      193.975       63.964        0.109      348.456       28.162      865.234
05/11/2013  16:46:00       15.270      -76.938      -21.926       72.510       83.672       40.206     5257.662     7000.992     1616.542        1.025        0.694       78.439       40.383        0.265      348.721       28.624      865.241
05/11/2013  16:47:00       10.057       15.560       43.211       41.393       46.241       36.715     1713.421     2138.243     1347.982        0.370        0.260       18.527       34.869        3.542      348.549       28.325      865.223
05/11/2013  16:48:00       39.366       22.636       75.093       57.877       54.255       35.674     3349.772     2943.608     1272.600        0.763        0.378       45.410       31.925        0.494      348.478       28.201      865.193
05/11/2013  16:49:00      101.310      -46.483       28.313       81.585       95.526       60.267     6656.060     9125.157     3632.153        1.632        0.971      111.465       63.397        0.323      348.328       27.943      865.168
05/11/2013  16:50:00       42.890      -11.149       92.444       94.546      127.620       81.861     8938.896    16286.935     6701.237        2.121        1.596       44.316       80.607        3.308      348.719       28.618      865.146
05/11/2013  16:51:00      152.187     -162.885      -33.455      158.044      188.895      116.516    24977.827    35681.431    13575.999        6.251        3.712      222.918      129.968        0.340      348.494       28.229      865.168
05/11/2013  16:52:00      118.848     -161.278       -7.019       68.308      104.889       68.001     4665.953    11001.734     4624.130        3.023        1.015      200.338       80.573        0.162      348.361       27.997      865.230
05/11/2013  16:53:00       57.945     -131.883       -1.432       54.631       67.299       38.091     2984.589     4529.095     1450.952        1.486        0.448      144.051       27.250        0.036      348.526       28.284      865.227
05/11/2013  16:54:00       -2.582      -66.724       25.860       52.372       71.993       50.021     2742.833     5183.060     2502.129        0.778        0.521       66.774       28.462        0.182      348.495       28.232      865.218
05/11/2013  16:55:00        8.317      -80.641       -3.318       35.951       51.872       46.888     1292.464     2690.738     2198.469        0.638        0.309       81.069       23.539        0.084      348.426       28.115      865.231
05/11/2013  16:56:00       -6.899      -56.328        3.729       36.548       64.402       39.084     1335.792     4147.588     1527.575        0.512        0.351       56.749       24.794        0.191      348.654       28.509      865.237
05/11/2013  16:57:00      -21.532        0.518      -12.161       27.424       18.378       15.361      752.072      337.745      235.963        0.097        0.066       21.539        4.859        0.051      348.403       28.074      865.223
05/11/2013  16:58:00       28.692        4.662        9.229       32.423       28.885       13.973     1051.235      834.317      195.245        0.151        0.104       29.068       10.705        0.136      348.149       27.636      865.212
05/11/2013  16:59:00       50.768      -27.104        5.208       28.079       25.019       20.159      788.440      625.973      406.393        0.258        0.091       57.550       15.986        0.077      348.394       28.059      865.210
05/11/2013  17:00:00        6.580      -28.911       19.522       30.844       58.234       31.682      951.334     3391.144     1003.773        0.330        0.267       29.650       33.100        1.246      348.638       28.480      865.212
05/11/2013  17:01:00       96.537       65.621       25.613       33.966       38.160       33.883     1153.666     1456.202     1148.032        0.902        0.188      116.728       21.548        0.034      348.098       27.546      865.216
05/11/2013  17:02:00       -8.418       38.143        1.800       40.309       52.506       23.825     1624.787     2756.908      567.654        0.324        0.247       39.061       21.870        0.314      348.460       28.172      865.196
05/11/2013  17:03:00        6.666       37.092      -15.948       18.530       22.065       13.669      343.364      486.879      186.832        0.135        0.051       37.687        8.984        0.057      348.420       28.104      865.201
05/11/2013  17:04:00      -21.260       27.157       -2.191       21.316       16.442       15.288      454.383      270.323      233.729        0.108        0.048       34.489        9.896        0.082      348.786       28.737      865.189
05/11/2013  17:05:00      -24.247       21.667       -2.792       32.592       20.152       17.742     1062.247      406.094      314.788        0.142        0.089       32.517       16.909        0.270      348.987       29.084      865.183
05/11/2013  17:06:00     -121.062      -26.942       -5.687       60.446       46.848       28.668     3653.766     2194.731      821.851        1.104        0.334      124.024       26.511        0.046      348.769       28.707      865.184
05/11/2013  17:07:00     -117.728      -35.103        0.083       75.078       46.578       29.865     5636.636     2169.487      891.910        1.189        0.435      122.850       34.917        0.081      348.754       28.679      865.183
05/11/2013  17:08:00     -141.686     -133.663      -10.325       54.728       87.046       37.123     2995.134     7576.980     1378.086        2.500        0.598      194.784       33.315        0.029      348.502       28.242      865.191
05/11/2013  17:09:00      -84.967      -63.643        6.525       78.974       62.850       36.688     6236.830     3950.075     1345.993        1.142        0.577      106.159       34.530        0.106      348.597       28.410      865.196
05/11/2013  17:10:00      -72.321      -57.392       10.043       54.719       50.375       37.875     2994.203     2537.625     1434.521        0.779        0.348       92.326       31.006        0.113      348.817       28.790      865.192
05/11/2013  17:11:00      -88.881      -79.189        9.837       75.952       59.911       39.557     5768.671     3589.330     1564.765        1.259        0.546      119.041       30.467        0.066      348.797       28.756      865.186
05/11/2013  17:12:00     -176.394      -89.802        6.759       99.964       78.617       44.607     9992.899     6180.676     1989.796        2.869        0.908      197.938       43.712        0.049      348.525       28.282      865.184
05/11/2013  17:13:00     -193.746      -78.455        3.600       93.393       85.189       46.794     8722.282     7257.113     2189.703        3.093        0.908      209.028       50.515        0.058      348.517       28.268      865.180
05/11/2013  17:14:00     -104.978      -65.647      -17.452      112.726       89.611       24.023    12707.172     8030.105      577.108        1.847        1.066      123.814       34.979        0.080      348.278       27.856      865.190
05/11/2013  17:15:00      -35.457       49.384      -23.844       38.399       25.058       26.195     1474.515      627.902      686.169        0.353        0.139       60.794       26.371        0.188      348.334       27.954      865.181
05/11/2013  17:16:00       57.469       35.281        9.400       36.067       22.427       22.289     1300.844      502.978      496.809        0.347        0.115       67.435       10.531        0.024      348.383       28.039      865.174
05/11/2013  17:17:00      -10.809      -34.690        4.186       32.823       30.997       19.223     1077.337      960.807      369.505        0.187        0.120       36.335       18.261        0.253      348.816       28.787      865.184
05/11/2013  17:18:00      -28.901      -74.941       -8.573       36.868       56.083       23.025     1359.277     3145.270      530.146        0.578        0.252       80.321       15.161        0.036      348.447       28.151      865.191
05/11/2013  17:19:00      -30.113      -21.555       10.425       32.633       38.573       21.156     1064.922     1487.859      447.556        0.224        0.150       37.033       19.367        0.274      348.805       28.770      865.183
05/11/2013  17:20:00      -23.139       -3.716        2.975       45.403       31.870       22.530     2061.405     1015.683      507.602        0.207        0.179       23.435       24.376        1.082      348.692       28.574      865.171
05/11/2013  17:21:00      -94.467      -74.664        6.933       76.666       57.591       30.919     5877.666     3316.741      955.975        1.235        0.508      120.411       36.686        0.093      348.548       28.324      865.177
05/11/2013  17:22:00      -77.649      -58.610        2.512       81.598       41.667       25.186     6658.177     1736.117      634.350        0.925        0.451       97.286       21.458        0.049      348.554       28.334      865.172
05/11/2013  17:23:00     -116.614      -90.477       -1.648       47.902       35.558       29.135     2294.616     1264.385      848.831        1.310        0.220      147.597       27.068        0.034      348.448       28.150      865.174
05/11/2013  17:24:00      -77.619      -57.098       -2.617       39.039       28.263       24.209     1524.076      798.779      586.074        0.610        0.145       96.359       24.530        0.065      348.499       28.239      865.182
05/11/2013  17:25:00      -80.172      -51.448       -9.967       30.864       18.348       14.602      952.565      336.650      213.221        0.534        0.075       95.260       10.786        0.013      348.508       28.254      865.194
05/11/2013  17:26:00      -62.493      -37.803       -2.973       39.029       37.721       25.370     1523.286     1422.855      643.651        0.447        0.179       73.038       26.951        0.136      348.697       28.583      865.191
05/11/2013  17:27:00      -58.480      105.556      -13.774       53.349       66.466       34.471     2846.145     4417.788     1188.276        1.160        0.423      120.673       41.876        0.120      348.695       28.577      865.195
05/11/2013  17:28:00     -109.836      159.605      -27.658       44.675       53.264       30.949     1995.816     2837.104      957.863        2.205        0.290      193.746       28.615        0.022      348.596       28.407      865.199
05/11/2013  17:29:00     -116.507       85.527      -17.498       70.877       59.300       27.792     5023.496     3516.447      772.368        1.525        0.466      144.529       27.884        0.037      348.930       28.985      865.205
05/11/2013  17:30:00     -174.520      -35.246      -12.585       73.879       54.103       31.652     5458.165     2927.188     1001.854        2.062        0.469      178.044       37.164        0.044      348.713       28.608      865.211
05/11/2013  17:31:00      -80.898      -13.076       -5.072       56.026       46.709       28.017     3138.959     2181.771      784.927        0.642        0.305       81.948       28.870        0.124      348.843       28.836      865.216
05/11/2013  17:32:00     -111.792       35.173       -4.973       82.931       74.651       34.633     6877.564     5572.760     1199.453        1.370        0.682      117.194       38.132        0.106      348.863       28.869      865.227
05/11/2013  17:33:00     -142.681       44.804      -21.574       98.633       84.671       42.045     9728.473     7169.184     1767.822        2.074        0.933      149.550       38.192        0.065      348.772       28.709      865.224
05/11/2013  17:34:00     -193.360       52.783      -28.659       80.535       65.060       38.613     6485.932     4232.789     1490.968        2.660        0.610      200.435       23.213        0.013      348.519       28.272      865.230
05/11/2013  17:35:00      -63.014      -14.350       22.515       75.801       52.930       42.857     5745.834     2801.584     1836.699        0.753        0.519       64.627       42.509        0.433      348.765       28.700      865.214
05/11/2013  17:36:00     -160.820      -86.753      -15.488      114.565       71.521       44.436    13125.044     5115.246     1974.596        2.692        1.011      182.727       33.194        0.033      348.601       28.413      865.201
05/11/2013  17:37:00     -210.168      112.554      -33.549      128.940       79.257       48.275    16625.573     6281.629     2330.449        4.160        1.262      238.409       62.721        0.069      348.438       28.131      865.213
05/11/2013  17:38:00     -278.436       27.070      -34.814       94.533       80.991       41.903     8936.418     6559.540     1755.822        4.836        0.863      279.749       34.435        0.015      348.630       28.460      865.194
05/11/2013  17:39:00     -264.868        2.683      -24.415       72.661       55.611       36.017     5279.562     3092.625     1297.243        4.021        0.483      264.881       38.322        0.021      348.535       28.298      865.206
05/11/2013  17:40:00     -278.254     -136.327      -14.418      120.069       87.403       62.710    14416.611     7639.284     3932.483        6.110        1.299      309.855       33.288        0.012      348.597       28.405      865.190
05/11/2013  17:41:00     -352.480     -132.644      -13.600      130.944       98.686       69.388    17146.406     9738.892     4814.722        8.686        1.585      376.612       66.603        0.031      348.557       28.336      865.187
05/11/2013  17:42:00     -315.716      -80.724      -12.138      103.386      105.111       49.205    10688.702    11048.234     2421.159        6.525        1.208      325.872       46.245        0.020      348.656       28.507      865.209
05/11/2013  17:43:00     -330.316     -104.348      -11.590      111.180      115.648       55.441    12360.993    13374.484     3073.666        7.447        1.440      346.406       46.847        0.018      348.537       28.302      865.208
05/11/2013  17:44:00     -175.327      -93.831        6.668      133.530       85.127       67.671    17830.323     7246.616     4579.421        3.462        1.483      198.856       74.616        0.141      348.496       28.232      865.195
05/11/2013  17:45:00     -176.690       -5.810       -2.962       92.418       91.968       33.928     8541.140     8458.158     1151.092        2.470        0.908      176.786       28.844        0.027      348.642       28.483      865.197
05/11/2013  17:46:00     -126.956      -42.760        3.366       96.014       75.825       42.260     9218.680     5749.370     1785.870        1.735        0.838      133.964       43.403        0.105      348.678       28.549      865.194
05/11/2013  17:47:00     -277.062      -88.034       -7.966      128.701       71.182       53.852    16564.015     5066.843     2900.044        5.455        1.227      290.712       54.574        0.035      348.677       28.544      865.181
05/11/2013  17:48:00     -258.838      -30.064      -13.020      118.857       71.998       60.695    14126.984     5183.730     3683.892        4.553        1.150      260.578       59.559        0.052      348.681       28.550      865.180
05/11/2013  17:49:00     -254.904      -22.979      -17.144      102.450       85.493       51.940    10495.905     7308.972     2697.725        4.315        1.025      255.938       55.135        0.046      348.704       28.591      865.176
05/11/2013  17:50:00     -328.831      -13.563       -8.349      120.701      101.759       62.349    14568.752    10354.835     3887.347        6.859        1.441      329.110       63.111        0.037      348.588       28.388      865.167
05/11/2013  17:51:00     -173.794     -149.464       33.471      179.537      192.362       96.918    32233.592    37003.116     9393.091        6.613        3.931      229.224      111.607        0.237      348.673       28.539      865.106
05/11/2013  17:52:00     -168.144       79.225      -13.870      103.266      156.762       67.268    10663.931    24574.422     4524.932        3.725        1.988      185.874       56.322        0.092      348.591       28.396      865.139
05/11/2013  17:53:00     -165.541        0.774      -15.273       78.866       53.758       36.087     6219.811     2889.938     1302.287        1.902        0.521      165.543       39.268        0.056      348.817       28.787      865.173
05/11/2013  17:54:00      -81.638       12.284       -8.819       84.010       65.121       41.635     7057.650     4240.783     1733.445        0.996        0.652       82.557       42.214        0.261      348.823       28.799      865.171
05/11/2013  17:55:00     -260.751       16.423      -20.605      145.975       86.072       56.591    21308.633     7408.343     3202.564        5.030        1.596      261.267       64.271        0.061      348.611       28.431      865.167
05/11/2013  17:56:00     -111.533        5.673      -26.151       87.591       70.841       57.936     7672.185     5018.483     3356.546        1.460        0.802      111.678       43.466        0.151      348.699       28.585      865.149
05/11/2013  17:57:00     -137.074       36.868       -1.662      120.338      150.277       66.372    14481.163    22583.033     4405.201        3.080        2.073      141.946       49.643        0.122      348.748       28.669      865.123
05/11/2013  17:58:00     -202.431      -66.323      -14.042      125.772       73.805       62.669    15818.641     5447.138     3927.382        3.538        1.260      213.019       55.762        0.069      348.686       28.559      865.163
05/11/2013  17:59:00     -266.935     -115.231       -6.782       87.371       80.756       50.171     7633.636     6521.592     2517.081        5.062        0.834      290.744       51.104        0.031      348.674       28.537      865.191
05/11/2013  18:00:00     -195.868      -51.449       -9.511      126.547       69.937       52.155    16014.044     4891.232     2720.099        3.236        1.181      202.513       49.221        0.059      348.647       28.495      865.173
05/11/2013  18:01:00     -332.244       -4.079      -17.297      140.062      145.505       57.094    19617.306    21171.678     3259.757        7.737        2.202      332.269       56.694        0.029      348.599       28.409      865.180
05/11/2013  18:02:00     -334.898     -116.266      -16.556      202.655      119.858       80.689    41068.944    14365.824     6510.664        9.394        3.097      354.506       90.481        0.065      348.436       28.127      865.173
05/11/2013  18:03:00     -272.360     -105.963      -17.158      167.686      121.216       70.440    28118.745    14693.256     4961.833        6.673        2.389      292.247       79.400        0.074      348.439       28.133      865.162
05/11/2013  18:04:00     -344.980     -147.981       -0.765      208.145      133.294       76.709    43324.349    17767.320     5884.268       10.393        3.349      375.379       93.829        0.062      348.369       28.013      865.156
05/11/2013  18:05:00     -311.938      -53.779      -28.086      146.006       98.446       56.054    21317.654     9691.547     3142.039        6.756        1.708      316.540       67.218        0.045      348.421       28.101      865.181
05/11/2013  18:06:00     -394.780     -102.301       -7.258      115.528      106.536       61.577    13346.670    11349.841     3791.767        9.742        1.424      407.819       57.795        0.020      348.295       27.883      865.179
05/11/2013  18:07:00     -358.222      -77.301       -6.694      151.549      100.527       68.584    22967.204    10105.755     4703.760        8.605        1.889      366.468       75.985        0.043      348.301       27.894      865.177
05/11/2013  18:08:00     -220.363     -158.813        5.354      137.090      107.842       55.232    18793.568    11629.909     3050.554        5.364        1.674      271.627       62.610        0.053      348.314       27.917      865.169
05/11/2013  18:09:00     -240.511      -72.675       -1.659      136.092      117.034       60.696    18521.085    13697.013     3684.044        4.951        1.795      251.251       65.436        0.068      348.402       28.069      865.161
05/11/2013  18:10:00     -267.284      -98.366       -2.842      119.261      104.752       52.091    14223.068    10973.061     2713.461        5.451        1.395      284.810       51.275        0.032      348.336       27.953      865.152
05/11/2013  18:11:00     -217.811       14.939       -7.986      134.817      108.769       55.575    18175.582    11830.665     3088.552        4.041        1.655      218.323       66.734        0.093      348.431       28.119      865.146
05/11/2013  18:12:00     -264.083      -62.591      -14.631      124.331       97.036       51.786    15458.313     9415.964     2681.813        5.071        1.378      271.399       58.249        0.046      348.432       28.119      865.159
05/11/2013  18:13:00     -273.360       -0.011      -25.409       91.821       91.068       46.466     8431.025     8293.458     2159.130        4.712        0.944      273.360       44.052        0.026      348.439       28.132      865.161
05/11/2013  18:14:00     -409.425      -27.084      -36.918      132.914       67.710       45.745    17666.110     4584.692     2092.584        9.703        1.217      410.320       45.407        0.012      348.280       27.858      865.146
05/11/2013  18:15:00     -314.757      -75.277      -22.842       84.920       78.404       53.077     7211.322     6147.201     2817.179        6.072        0.809      323.634       43.376        0.018      348.300       27.891      865.130
05/11/2013  18:16:00     -279.752      -26.999       -2.684       99.615      108.505       61.611     9923.083    11773.277     3795.921        5.224        1.275      281.051       64.258        0.052      348.323       27.930      865.132
05/11/2013  18:17:00     -385.913     -116.982      -18.275      133.134      103.359       59.658    17724.709    10683.037     3559.103        9.745        1.598      403.254       65.304        0.026      348.256       27.815      865.138
05/11/2013  18:18:00     -396.507     -149.323      -13.348      106.983      101.076       52.495    11445.321    10216.409     2755.690       10.205        1.221      423.693       52.705        0.015      348.216       27.746      865.122
05/11/2013  18:19:00     -394.473      -86.790       -9.768      117.302      130.091       64.871    13759.807    16923.676     4208.271        9.906        1.745      403.907       58.304        0.021      348.201       27.719      865.120
05/11/2013  18:20:00     -253.212      -98.270      -14.197      136.682       98.222       64.542    18682.102     9647.565     4165.607        5.323        1.625      271.612       56.460        0.043      348.285       27.865      865.121
05/11/2013  18:21:00     -193.638       -8.128      -12.144       80.940       59.223       44.201     6551.360     3507.358     1953.694        2.486        0.601      193.809       42.976        0.049      348.414       28.090      865.130
05/11/2013  18:22:00     -301.907      -62.146       -7.885      140.957       91.616       47.141    19868.769     8393.515     2222.316        6.277        1.524      308.237       54.139        0.031      348.328       27.941      865.123
05/11/2013  18:23:00     -267.590     -103.237        3.831      150.651      116.761       62.189    22695.693    13633.173     3867.461        6.123        2.010      286.814       70.386        0.060      348.335       27.953      865.126
05/11/2013  18:24:00     -157.518      -78.083        8.286      132.445       99.728       61.698    17541.706     9945.771     3806.642        3.113        1.565      175.809       69.103        0.154      348.303       27.897      865.147
05/11/2013  18:25:00     -177.083      -44.791       17.227      126.041       80.965       52.250    15886.399     6555.390     2730.084        2.941        1.259      182.660       67.038        0.135      348.389       28.045      865.150
05/11/2013  18:26:00     -191.741      -13.450        1.739       86.190      113.677       48.935     7428.789    12922.520     2394.588        2.984        1.137      192.213       42.066        0.048      348.355       27.989      865.146
05/11/2013  18:27:00      -58.309      -28.418       14.996       79.841       52.570       38.556     6374.595     2763.647     1486.593        0.753        0.531       64.865       37.019        0.326      348.419       28.101      865.140
05/11/2013  18:28:00     -228.865      -95.108       -3.800      119.728       81.375       52.096    14334.722     6621.842     2713.950        4.255        1.184      247.840       53.659        0.047      348.284       27.864      865.141
05/11/2013  18:29:00     -254.591       -7.934      -23.720       66.151       72.243       41.348     4375.975     5218.987     1709.624        3.837        0.565      254.714       31.485        0.015      348.321       27.927      865.141
05/11/2013  18:30:00     -201.627       21.004      -27.721       99.219       56.167       39.996     9844.476     3154.699     1599.668        2.823        0.730      202.718       46.235        0.052      348.332       27.948      865.135
05/11/2013  18:31:00     -144.627       24.672       -9.146       98.965       82.698       41.675     9794.101     6838.887     1736.813        1.999        0.918      146.716       48.927        0.111      348.466       28.181      865.121
05/11/2013  18:32:00     -193.384       -7.518      -16.546       60.797      104.358       41.193     3696.283    10890.508     1696.891        2.700        0.814      193.530       37.505        0.038      348.448       28.149      865.125
05/11/2013  18:33:00     -134.624      -74.986        4.146      101.857       74.272       44.718    10374.789     5516.284     1999.732        2.082        0.895      154.099       50.225        0.106      348.491       28.224      865.124
05/11/2013  18:34:00     -138.684      -48.112       11.315       93.218       69.065       44.879     8689.677     4769.921     2014.085        1.857        0.774      146.792       47.418        0.104      348.467       28.183      865.118
05/11/2013  18:35:00     -216.932      -70.071       -6.279       58.329       57.595       36.918     3402.252     3317.227     1362.918        3.004        0.404      227.968       29.324        0.017      348.442       28.139      865.123
05/11/2013  18:36:00     -413.616      -65.400      -18.757      122.254       84.960       58.711    14946.107     7218.155     3446.975       10.065        1.281      418.754       59.024        0.020      348.215       27.745      865.119
05/11/2013  18:37:00     -359.431      -14.035      -31.925       94.435      102.662       47.142     8917.885    10539.532     2222.414        7.604        1.084      359.705       41.223        0.013      348.254       27.812      865.133
05/11/2013  18:38:00     -179.949     -110.877       -6.065      114.685       81.157       40.848    13152.753     6586.536     1668.562        3.306        1.070      211.365       51.091        0.058      348.332       27.948      865.139
05/11/2013  18:39:00     -251.978     -178.282        2.262      131.669      100.972       69.126    17336.753    10195.360     4778.439        6.379        1.616      308.671       64.897        0.044      348.185       27.694      865.137
05/11/2013  18:40:00     -209.081      -67.331       -6.512      100.436       92.574       48.771    10087.394     8569.943     2378.584        3.466        1.052      219.655       54.562        0.062      348.248       27.801      865.151
05/11/2013  18:41:00     -314.062      -15.418      -14.012      145.088       95.119       67.383    21050.522     9047.635     4540.432        6.685        1.732      314.440       70.273        0.050      348.202       27.723      865.163
05/11/2013  18:42:00     -280.286     -106.241      -14.268      123.426       86.586       52.831    15234.065     7497.049     2791.104        5.778        1.276      299.746       49.006        0.027      348.170       27.667      865.194
05/11/2013  18:43:00     -285.285     -154.156        9.847      231.947      187.205       72.547    53799.484    35045.595     5263.068        9.966        4.705      324.270       92.503        0.081      348.139       27.614      865.226
05/11/2013  18:44:00     -485.034     -395.873       -1.638      240.918      210.260      126.280    58041.590    44209.213    15946.560       25.507        5.910      626.078      130.206        0.043      347.823       27.068      865.162
05/11/2013  18:45:00     -285.872     -213.994       12.302      180.353      120.903      100.026    32527.266    14617.653    10005.156        9.240        2.858      357.094       96.088        0.072      347.916       27.228      865.184
05/11/2013  18:46:00     -127.863       -4.877        7.733      127.789      106.588       52.521    16330.116    11361.000     2758.410        2.344        1.522      127.956       57.646        0.203      348.043       27.448      865.206
05/11/2013  18:47:00     -170.460     -106.766        5.193      111.769       94.184       55.141    12492.263     8870.665     3040.495        3.244        1.220      201.136       57.416        0.081      348.029       27.423      865.199
05/11/2013  18:48:00     -325.726     -219.427        1.487      203.885      134.262       83.479    41569.064    18026.152     6968.776       11.039        3.328      392.741       97.900        0.062      347.866       27.142      865.207
05/11/2013  18:49:00     -442.706     -306.255      -20.211      249.191      151.922       86.040    62096.204    23080.191     7402.966       19.137        4.629      538.313      102.258        0.036      347.764       26.965      865.167
05/11/2013  18:50:00     -322.013     -219.078        7.037      265.570      212.576      110.208    70527.195    45188.766    12145.896       13.978        6.393      389.471      137.061        0.124      347.758       26.956      865.158
05/11/2013  18:51:00     -351.241     -180.052       -3.476      195.932      153.110       92.797    38389.364    23442.646     8611.360       11.311        3.522      394.701       99.673        0.064      347.733       26.913      865.191
05/11/2013  18:52:00     -246.005      -93.523        3.566      157.639      183.953       80.835    24850.064    33838.791     6534.236        6.724        3.261      263.183       99.875        0.144      347.770       26.978      865.232
05/11/2013  18:53:00     -164.705      -16.358       -0.512      105.305       81.056       53.242    11089.242     6570.136     2834.689        2.394        1.025      165.516       48.732        0.087      347.941       27.271      865.250
05/11/2013  18:54:00     -416.827     -138.756      -15.770      182.485      133.461       77.204    33300.914    17811.930     5960.509       12.515        2.854      439.315       89.268        0.041      347.747       26.937      865.252
05/11/2013  18:55:00     -219.835     -209.721        2.966      161.469      137.370       77.151    26072.196    18870.395     5952.304        7.160        2.545      303.826       82.911        0.074      347.745       26.933      865.259
05/11/2013  18:56:00     -258.115     -102.081       -5.786      144.972      113.852       65.695    21016.832    12962.320     4315.821        5.768        1.915      277.568       67.612        0.059      347.728       26.905      865.269
05/11/2013  18:57:00     -351.283     -181.487        5.167      219.129      168.518      107.064    48017.360    28398.396    11462.774       12.211        4.394      395.395      114.443        0.084      347.661       26.787      865.264
05/11/2013  18:58:00     -459.144     -140.625      -36.571      289.617      191.699       91.436    83878.018    36748.588     8360.460       18.043        6.449      480.196      122.932        0.066      347.597       26.679      865.248
05/11/2013  18:59:00     -496.277     -148.580       -9.805      209.296      155.981       90.063    43804.665    24330.103     8111.397       17.234        3.812      518.041      101.123        0.038      347.567       26.626      865.278
05/11/2013  19:00:00     -252.672     -117.722      -11.207      229.085      111.750       80.786    52479.820    12487.992     6526.376        7.465        3.575      278.750      110.879        0.158      347.592       26.671      865.278
05/11/2013  19:01:00     -401.140     -262.352      -23.879      238.524      171.341      108.083    56893.694    29357.880    11682.013       16.411        4.897      479.315      124.707        0.068      347.516       26.539      865.251
05/11/2013  19:02:00     -419.366     -164.987      -23.135      188.942      166.792       85.745    35699.074    27819.460     7352.135       13.724        3.544      450.653       86.553        0.037      347.512       26.531      865.290
05/11/2013  19:03:00     -293.761     -198.626        5.543      167.158      207.008       88.335    27941.880    42852.270     7803.056       10.217        3.930      354.609       90.600        0.065      347.510       26.527      865.292
05/11/2013  19:04:00     -380.803     -182.437      -26.489      157.009      143.084       84.821    24651.857    20473.058     7194.635       11.565        2.616      422.249       75.873        0.032      347.509       26.526      865.284
05/11/2013  19:05:00     -343.704      -34.863       -3.461      178.429      148.511       81.943    31836.945    22055.410     6714.732        8.997        3.030      345.467       79.644        0.053      347.501       26.511      865.304
05/11/2013  19:06:00     -237.659     -189.426        4.660      166.904      125.574       81.466    27856.865    15768.912     6636.760        7.132        2.513      303.914       92.809        0.093      347.485       26.483      865.312
05/11/2013  19:07:00     -319.683     -138.661      -14.352      192.082      125.416       70.673    36895.665    15729.185     4994.734        8.962        2.881      348.460       70.992        0.042      347.486       26.486      865.331
05/11/2013  19:08:00     -377.302     -157.510      -44.463      128.344      130.403       71.105    16472.184    17004.993     5055.862       10.383        1.927      408.860       73.564        0.032      347.456       26.435      865.332
05/11/2013  19:09:00     -437.241     -188.095      -25.482      207.387      196.182       96.096    43009.392    38487.458     9234.452       15.895        4.537      475.982       99.429        0.044      347.410       26.355      865.341
05/11/2013  19:10:00     -425.107      -39.636      -18.525      200.462      185.472       83.324    40185.139    34399.702     6942.864       13.207        4.076      426.951       85.057        0.040      347.414       26.361      865.338
05/11/2013  19:11:00     -378.314      -37.148       -2.810      195.316      151.333       86.888    38148.159    22901.580     7549.600       10.654        3.430      380.134       95.356        0.063      347.390       26.321      865.352
05/11/2013  19:12:00     -391.304     -120.784       -8.859      140.531      131.426       72.010    19748.948    17272.920     5185.442       10.499        2.110      409.522       75.647        0.034      347.394       26.328      865.381
05/11/2013  19:13:00     -356.176     -110.233      -23.003      195.925      168.098       88.305    38386.523    28257.076     7797.788       10.698        3.722      372.844      102.124        0.075      347.368       26.285      865.380
05/11/2013  19:14:00     -190.865      -77.503        9.194      153.194      121.344       59.267    23468.375    14724.456     3512.561        4.211        2.085      206.001       75.183        0.133      347.377       26.297      865.410
05/11/2013  19:15:00     -286.654      -17.235       -5.646      241.362      143.048       81.382    58255.720    20462.628     6622.995        8.391        4.267      287.172      109.101        0.144      347.357       26.265      865.414
05/11/2013  19:16:00     -348.503      -81.014       -5.084      170.170      164.773       81.300    28957.973    27150.158     6609.720        9.537        3.136      357.795       77.076        0.046      347.313       26.187      865.431
05/11/2013  19:17:00     -206.632      -84.443       16.863      173.356      151.600       70.412    30052.403    22982.451     4957.834        5.404        2.900      223.221       82.893        0.138      347.317       26.197      865.427
05/11/2013  19:18:00     -274.743     -113.447      -20.080      118.678      140.360       74.880    14084.524    19700.950     5607.011        6.407        1.970      297.243       64.919        0.048      347.311       26.184      865.454
05/11/2013  19:19:00     -316.068     -110.451      -15.741      148.950      157.856       80.814    22186.012    24918.506     6530.888        8.298        2.682      334.811       67.430        0.041      347.282       26.134      865.456
05/11/2013  19:20:00     -437.223     -241.358        2.522      227.775      219.510      106.150    51881.420    48184.486    11267.880       18.036        5.567      499.417      116.876        0.055      347.216       26.020      865.483
05/11/2013  19:21:00     -442.006     -227.437      -17.155      194.063      136.960       91.789    37660.635    18758.069     8425.197       15.611        3.242      497.089       88.646        0.032      347.200       25.994      865.498
05/11/2013  19:22:00     -196.907     -102.338       12.945      163.079      129.773       82.952    26594.685    16841.071     6881.116        4.986        2.516      221.914      100.019        0.203      347.213       26.017      865.509
05/11/2013  19:23:00     -236.256     -133.171       22.574      200.843      134.365       97.726    40337.940    18053.919     9550.325        7.099        3.397      271.203      121.614        0.201      347.163       25.933      865.532
05/11/2013  19:24:00     -243.279      -35.347       -2.602      123.444      154.479       59.031    15238.449    23863.649     3484.696        5.151        2.129      245.833       52.202        0.045      347.205       26.001      865.534
05/11/2013  19:25:00     -313.510      -84.932      -14.891      187.809      160.404       74.312    35272.040    25729.320     5522.242        8.611        3.326      324.810       89.499        0.076      347.162       25.929      865.548
05/11/2013  19:26:00     -475.950     -179.615       -7.292      226.785      166.436       88.037    51431.457    27701.024     7750.550       17.285        4.344      508.714      107.855        0.045      347.085       25.795      865.559
05/11/2013  19:27:00     -288.343     -174.799      -10.417      197.813      171.744       88.389    39129.824    29495.982     7812.558        9.511        3.822      337.189       96.362        0.082      347.087       25.800      865.579
05/11/2013  19:28:00     -250.991     -125.655       -6.442      247.866      127.162       85.854    61437.527    16170.210     7370.953        8.189        4.249      280.688       95.458        0.116      347.078       25.783      865.595
05/11/2013  19:29:00     -331.198      -84.728       -4.297      188.973      141.671       85.000    35710.733    20070.801     7224.917        8.994        3.150      341.864       88.272        0.067      347.043       25.723      865.598
05/11/2013  19:30:00     -410.724      -56.204      -13.337      163.260      122.198       80.566    26653.744    14932.337     6490.926       11.005        2.404      414.552       84.975        0.042      347.018       25.680      865.625
05/11/2013  19:31:00     -481.009     -217.875      -30.212      194.431      156.899       89.408    37803.495    24617.279     7993.748       17.507        3.521      528.053       75.509        0.020      346.974       25.604      865.643
05/11/2013  19:32:00     -275.618     -104.751       -7.891      186.645      145.713       71.223    34836.261    21232.216     5072.758        7.406        3.057      294.852       85.718        0.085      346.982       25.618      865.652
05/11/2013  19:33:00     -210.959     -151.501       12.437      176.358      139.326       99.191    31102.196    19411.778     9838.825        6.397        3.018      259.723      104.525        0.162      346.962       25.583      865.659
05/11/2013  19:34:00     -253.345     -132.774       15.025      191.628      189.826       95.959    36721.294    36033.912     9208.208        8.199        4.098      286.029      110.052        0.148      346.929       25.527      865.656
05/11/2013  19:35:00     -190.725     -188.468       10.303      192.818      156.912       95.504    37178.784    24621.301     9121.109        7.145        3.546      268.135       91.134        0.116      346.901       25.478      865.667
05/11/2013  19:36:00     -286.649     -126.656      -25.569      157.696      117.679       67.817    24867.898    13848.361     4599.177        7.108        2.166      313.383       69.853        0.050      346.885       25.450      865.689
05/11/2013  19:37:00     -379.104      -11.022       -8.117      224.687      176.154       77.218    50484.469    31030.068     5962.589       11.568        4.374      379.264       75.234        0.039      346.866       25.417      865.707
05/11/2013  19:38:00     -189.314     -125.551        3.959      183.335      118.112       94.052    33611.903    13950.333     8845.781        5.400        2.820      227.163       92.628        0.166      346.857       25.402      865.728
05/11/2013  19:39:00     -282.711     -124.473      -11.775      159.978      138.751       71.970    25592.844    19251.855     5179.718        7.278        2.501      308.900       76.990        0.062      346.816       25.332      865.735
05/11/2013  19:40:00     -344.062     -189.757      -12.967      206.309      153.952       99.723    42563.507    23701.342     9944.745       11.537        3.810      392.920      106.582        0.074      346.791       25.290      865.741
05/11/2013  19:41:00     -388.369     -123.566       -8.503      226.481      155.415       82.817    51293.458    24153.890     6858.720       12.422        4.115      407.552       84.217        0.043      346.764       25.243      865.768
05/11/2013  19:42:00     -539.062     -102.910      -38.375      229.788      154.658       91.874    52802.484    23919.212     8440.793       19.389        4.258      548.797      102.229        0.035      346.737       25.196      865.778
05/11/2013  19:43:00     -364.158      -92.067       -6.162      163.012      146.138       81.763    26572.964    21356.394     6685.145        9.786        2.731      375.616       65.667        0.031      346.717       25.159      865.788
05/11/2013  19:44:00     -286.028     -132.002       -0.473      185.092      157.933       80.205    34258.955    24942.951     6432.846        8.242        3.282      315.019       99.543        0.100      346.711       25.152      865.796
05/11/2013  19:45:00     -311.223      -89.483       -8.425      203.321      170.161       90.405    41339.275    28954.839     8172.995        9.169        3.923      323.832      104.156        0.103      346.706       25.144      865.813
05/11/2013  19:46:00     -434.586      -11.121      -32.088      175.423      145.612       77.209    30773.288    21202.901     5961.288       12.397        2.897      434.728       82.655        0.036      346.686       25.108      865.811
05/11/2013  19:47:00     -299.581      -56.057       -2.038      207.392      163.060       88.575    43011.235    26588.591     7845.496        8.516        3.872      304.781      104.935        0.119      346.661       25.066      865.814
05/11/2013  19:48:00     -248.004      -98.901        3.074      180.349      164.396       90.905    32525.775    27026.024     8263.659        6.954        3.391      266.997      103.547        0.150      346.661       25.066      865.819
05/11/2013  19:49:00     -319.102     -104.542       -4.913      169.570      157.546       86.156    28754.014    24820.624     7422.917        8.688        3.050      335.790       93.079        0.077      346.637       25.024      865.844
05/11/2013  19:50:00     -319.347      -88.063      -25.005      151.965      135.512       79.192    23093.492    18363.398     6271.403        7.904        2.386      331.266       67.539        0.042      346.657       25.058      865.838
05/11/2013  19:51:00     -376.368     -101.399       -5.493      220.574      172.102       84.702    48652.792    29619.170     7174.482       11.869        4.272      389.788      106.311        0.074      346.623       24.999      865.865
05/11/2013  19:52:00     -430.214      -87.811      -19.956      202.564      161.454       95.974    41032.176    26067.235     9210.999       13.474        3.816      439.084       99.442        0.051      346.599       24.959      865.845
05/11/2013  19:53:00     -270.356      -96.773      -10.719      216.458      115.439       73.821    46854.160    13326.225     5449.606        7.409        3.281      287.154       90.290        0.099      346.595       24.952      865.865
05/11/2013  19:54:00     -394.329      -68.141      -26.456      191.569      114.907       72.939    36698.552    13203.570     5320.028       10.802        2.761      400.173       85.888        0.046      346.584       24.933      865.871
05/11/2013  19:55:00     -222.681     -126.031        7.805      171.258      176.301       87.897    29329.325    31081.958     7725.911        6.682        3.407      255.872       95.786        0.140      346.591       24.946      865.865
05/11/2013  19:56:00     -330.903      -70.849      -13.115      146.634      157.379       80.219    21501.390    24768.165     6435.048        8.369        2.635      338.403       76.390        0.051      346.552       24.879      865.886
05/11/2013  19:57:00     -281.180     -113.546       -9.430      142.246      159.127       75.801    20234.043    25321.539     5745.768        7.166        2.565      303.240       63.790        0.044      346.541       24.860      865.896
05/11/2013  19:58:00     -332.399      -55.152      -14.143      162.413      128.384       70.271    26378.042    16482.511     4938.064        8.076        2.390      336.944       72.525        0.046      346.531       24.843      865.895
05/11/2013  19:59:00     -272.391      -35.773       -3.101      144.901      100.501       65.913    20996.169    10100.486     4344.471        5.546        1.772      274.730       68.685        0.063      346.500       24.789      865.908
05/11/2013  20:00:00     -227.339     -139.746       -2.279      144.928      130.781       78.038    21004.058    17103.651     6089.889        5.770        2.210      266.856       74.183        0.077      346.502       24.793      865.900
05/11/2013  20:01:00     -191.252      -28.868        6.062      126.726       97.560       51.198    16059.603     9517.933     2621.219        3.282        1.410      193.419       56.239        0.085      346.504       24.797      865.914
05/11/2013  20:02:00     -377.838      -22.604      -13.725      165.018      152.098       72.301    27230.937    23133.847     5227.491        9.952        2.780      378.513       76.775        0.041      346.449       24.702      865.920
05/11/2013  20:03:00     -272.847      -60.096       -6.647      162.981      119.536       69.351    26562.948    14288.843     4809.576        6.187        2.283      279.387       82.591        0.087      346.426       24.661      865.904
05/11/2013  20:04:00     -316.603      -52.533      -12.454      163.070      126.462       82.254    26591.979    15992.724     6765.661        7.624        2.468      320.932       83.176        0.067      346.429       24.666      865.893
05/11/2013  20:05:00     -256.606     -128.281       -5.415      157.166      136.067       73.488    24701.247    18514.294     5400.546        6.547        2.431      286.884       73.805        0.066      346.431       24.670      865.893
05/11/2013  20:06:00     -339.539     -130.130      -10.500      181.556      124.169       79.647    32962.476    15418.028     6343.681        9.352        2.736      363.622       74.417        0.042      346.415       24.642      865.893
05/11/2013  20:07:00     -254.084     -114.927       -8.825      151.072      138.764       76.721    22822.889    19255.501     5886.169        6.290        2.398      278.867       67.151        0.058      346.386       24.593      865.900
05/11/2013  20:08:00     -213.667      -48.865       15.115      238.026      163.480       95.989    56656.237    26725.761     9213.883        7.042        4.630      219.183      122.291        0.311      346.368       24.564      865.907
05/11/2013  20:09:00     -333.648     -164.061      -18.017      173.549      135.155       77.702    30119.162    18266.767     6037.597        9.648        2.721      371.803       81.522        0.048      346.399       24.615      865.893
05/11/2013  20:10:00     -256.445     -115.492      -13.391      119.029      100.670       53.564    14167.951    10134.429     2869.089        5.322        1.359      281.252       41.700        0.022      346.398       24.614      865.904
05/11/2013  20:11:00     -200.574      -85.790       15.184      151.683      119.000       81.505    23007.668    14161.036     6643.045        4.581        2.191      218.151       74.616        0.117      346.370       24.565      865.904
05/11/2013  20:12:00     -410.313      -44.393      -21.024      167.286      140.392       82.040    27984.456    19709.954     6730.638       11.259        2.721      412.708       80.774        0.038      346.345       24.523      865.898
05/11/2013  20:13:00     -273.639      -85.260       -7.146      150.522      148.599       71.623    22656.768    22081.636     5129.833        6.603        2.493      286.614       85.983        0.090      346.337       24.508      865.908
05/11/2013  20:14:00     -397.594       -0.212      -29.784      201.353      112.921       76.789    40543.026    12751.066     5896.515       10.907        2.960      397.594       92.081        0.054      346.329       24.496      865.913
05/11/2013  20:15:00     -345.776      -54.234       -3.748      199.932      117.685       77.032    39972.852    13849.723     5933.885        9.113        2.988      350.003       79.317        0.051      346.321       24.483      865.907
05/11/2013  20:16:00     -242.862      -92.454        0.455      149.857      118.053       62.396    22457.244    13936.584     3893.237        5.390        2.014      259.865       72.864        0.079      346.274       24.401      865.919
05/11/2013  20:17:00     -284.675      -51.951       -2.403      157.472      149.248       78.865    24797.404    22274.952     6219.659        6.851        2.665      289.377       70.080        0.059      346.256       24.368      865.936
05/11/2013  20:18:00     -288.972     -117.469       -0.048      148.289       99.836       70.347    21989.775     9967.211     4948.759        6.710        1.845      311.936       75.881        0.059      346.247       24.353      865.939
05/11/2013  20:19:00     -304.373      -57.790      -17.724      133.124       93.796       60.670    17722.040     8797.652     3680.895        6.324        1.510      309.811       65.180        0.044      346.249       24.358      865.947
05/11/2013  20:20:00     -324.591      -98.736      -18.941      125.397      112.240       63.809    15724.354    12597.887     4071.593        7.392        1.620      339.276       68.351        0.041      346.245       24.349      865.953
05/11/2013  20:21:00     -248.633      -52.380       -3.466      118.407      110.569       60.375    14020.230    12225.572     3645.166        4.723        1.495      254.091       58.722        0.053      346.212       24.292      865.953
05/11/2013  20:22:00     -279.890     -112.945      -18.923      116.408      128.326       59.650    13550.807    16467.567     3558.118        6.251        1.679      301.819       52.115        0.030      346.207       24.284      865.969
05/11/2013  20:23:00     -290.975      -85.024       -1.728      114.655      141.655       61.588    13145.839    20066.066     3793.026        6.445        1.850      303.142       56.107        0.034      346.201       24.274      865.974
05/11/2013  20:24:00     -351.692      -64.365      -20.048      121.479      108.638       61.226    14757.132    11802.122     3748.564        7.926        1.515      357.534       59.086        0.027      346.155       24.196      865.993
05/11/2013  20:25:00     -384.448      -96.856      -29.098      168.979      134.953       65.293    28553.864    18212.274     4263.182       10.452        2.551      396.461       70.681        0.032      346.130       24.152      865.992
05/11/2013  20:26:00     -322.062      -51.017      -17.014      116.957      130.666       72.580    13678.984    17073.525     5267.906        7.131        1.801      326.078       58.824        0.033      346.086       24.076      865.996
05/11/2013  20:27:00     -327.356      -84.064        1.101      127.391      100.854       63.434    16228.496    10171.492     4023.823        7.232        1.521      337.977       54.427        0.026      346.059       24.031      866.013
05/11/2013  20:28:00     -264.393      -66.740        1.343      156.008      149.461       68.353    24338.647    22338.711     4672.119        6.285        2.567      272.687       70.007        0.066      346.039       23.995      866.029
05/11/2013  20:29:00     -339.818      -75.135      -10.169      135.335      122.394       66.984    18315.484    14980.316     4486.922        7.950        1.889      348.025       79.299        0.052      346.011       23.949      866.051
05/11/2013  20:30:00     -377.961      -76.216      -12.523      135.038      118.878       59.506    18235.391    14131.986     3541.000        9.236        1.795      385.569       54.743        0.020      346.025       23.973      866.068
05/11/2013  20:31:00     -267.033       16.271        0.845      144.321      120.275       61.543    20828.519    14466.123     3787.520        5.532        1.954      267.529       70.555        0.070      345.996       23.923      866.073
05/11/2013  20:32:00     -337.084      -68.343       -9.703      148.122      120.204       58.484    21940.138    14448.998     3420.364        7.909        1.990      343.942       63.266        0.034      346.013       23.951      866.069
05/11/2013  20:33:00     -388.911      -79.671      -26.686      171.404      131.843       73.164    29379.316    17382.643     5353.021       10.520        2.606      396.988       70.872        0.032      345.977       23.890      866.072
05/11/2013  20:34:00     -453.876      -69.867      -27.672      205.251      136.432       86.266    42128.073    18613.807     7441.869       13.991        3.409      459.222      109.529        0.057      346.000       23.929      866.088
05/11/2013  20:35:00     -338.480     -123.249      -18.780      153.421      105.208       57.799    23538.033    11068.717     3340.742        8.402        1.897      360.220       75.018        0.043      345.983       23.901      866.098
05/11/2013  20:36:00     -325.175      -75.886      -19.120      175.804      125.119       76.499    30907.042    15654.859     5852.169        8.213        2.621      333.912       87.432        0.069      345.972       23.883      866.110
05/11/2013  20:37:00     -260.232     -116.673       11.219      195.587      162.352       71.949    38254.252    26358.148     5176.652        7.561        3.489      285.190       85.486        0.090      345.997       23.924      866.122
05/11/2013  20:38:00     -299.926      -79.175      -21.622      140.978      104.174       48.853    19874.893    10852.294     2386.647        6.490        1.656      310.201       55.697        0.032      345.957       23.856      866.143
05/11/2013  20:39:00     -280.792      -37.542        5.955      189.328      108.725       65.894    35845.048    11821.092     4342.012        6.614        2.600      283.290       81.911        0.084      345.997       23.926      866.138
05/11/2013  20:40:00     -383.575     -102.807      -25.709      157.231      103.979       63.614    24721.441    10811.665     4046.687        9.896        1.979      397.114       59.778        0.023      345.983       23.900      866.125
05/11/2013  20:41:00     -376.037      -73.342      -22.532      199.147      152.896       89.949    39659.458    23377.250     8090.776       10.920        3.556      383.122       95.707        0.062      345.944       23.833      866.124
05/11/2013  20:42:00     -411.192     -106.396      -15.947      151.845      125.764       75.038    23056.803    15816.538     5630.702       11.257        2.225      424.734       80.475        0.036      345.936       23.818      866.136
05/11/2013  20:43:00     -448.318     -107.789        3.038      248.099      162.683       90.199    61552.971    26465.597     8135.819       15.437        4.808      461.094      109.797        0.057      345.983       23.901      866.153
05/11/2013  20:44:00     -496.524     -126.015      -20.926      205.807      170.973       92.513    42356.651    29231.781     8558.571       17.149        4.007      512.265       94.651        0.034      346.036       23.992      866.169
05/11/2013  20:45:00     -507.342      -88.632      -34.649      153.794      148.127       74.953    23652.649    21941.538     5618.016       15.882        2.561      515.025       64.510        0.016      346.037       23.992      866.205
05/11/2013  20:46:00     -465.204      -46.638      -26.967      161.809      130.403       71.931    26182.050    17004.888     5174.062       13.383        2.418      467.536       82.134        0.031      346.007       23.941      866.227
05/11/2013  20:47:00     -394.417      -77.089        0.481      202.574      146.028       97.235    41036.252    21324.105     9454.606       11.665        3.591      401.880      110.433        0.076      346.041       23.999      866.233
05/11/2013  20:48:00     -476.981     -128.448      -27.736      140.547      156.557       71.971    19753.569    24509.963     5179.852       14.710        2.472      493.973       73.604        0.022      346.057       24.026      866.279
05/11/2013  20:49:00     -379.196      -87.556       -5.426      200.672      122.669       68.582    40269.252    15047.587     4703.554       10.574        3.001      389.173       88.656        0.052      346.022       23.967      866.311
05/11/2013  20:50:00     -362.673       62.899      -31.476      136.371       82.938       48.832    18596.966     6878.708     2384.577        8.216        1.393      368.087       49.928        0.018      346.049       24.013      866.298
05/11/2013  20:51:00     -152.763       44.384      -18.760       75.889      102.485       44.004     5759.070    10503.241     1936.360        2.193        0.910      159.080       41.615        0.068      345.989       23.912      866.247
05/11/2013  20:52:00     -238.396      -80.558      -15.442      136.603      121.293       65.930    18660.264    14711.979     4346.726        5.063        1.886      251.639       66.791        0.070      345.938       23.823      866.248
05/11/2013  20:53:00     -343.430      -59.241      -11.026      158.798      103.288       65.364    25216.811    10668.467     4272.419        8.086        2.008      348.502       76.760        0.049      345.873       23.712      866.272
05/11/2013  20:54:00     -436.455     -122.251      -38.929      134.299      107.247       68.336    18036.302    11501.828     4669.863       12.058        1.710      453.254       51.135        0.013      345.921       23.793      866.282
05/11/2013  20:55:00     -484.980      -51.294      -17.315      187.761      136.716       81.573    35254.246    18691.368     6654.208       14.936        3.030      487.685       95.812        0.039      345.932       23.812      866.298
05/11/2013  20:56:00     -428.072     -108.382        3.050      224.911      176.428       91.285    50585.102    31126.769     8332.877       14.251        4.502      441.579      107.221        0.059      345.978       23.892      866.282
05/11/2013  20:57:00     -354.880      -83.352        2.700      158.657      131.714       62.116    25171.900    17348.558     3858.454        8.963        2.319      364.537       56.200        0.024      345.949       23.841      866.307
05/11/2013  20:58:00     -417.964     -103.082      -14.667      166.302      126.024       75.623    27656.328    15882.145     5718.889       11.739        2.463      430.488       80.311        0.035      345.933       23.814      866.328
05/11/2013  20:59:00     -440.550      -36.712      -28.069      164.653      166.997       68.725    27110.541    27888.117     4723.092       12.796        2.986      442.077       66.393        0.023      345.916       23.784      866.328
05/11/2013  21:00:00     -379.067      -71.358      -33.776      134.399      130.145       61.527    18063.010    16937.808     3785.616        9.435        1.939      385.725       63.725        0.027      345.933       23.815      866.318
05/11/2013  21:01:00     -436.944      -82.302      -31.137      155.582      160.952       78.403    24205.737    25905.465     6147.093       12.745        2.813      444.628       76.526        0.030      345.894       23.748      866.307
05/11/2013  21:02:00     -322.112      -84.636       -5.662      155.469      125.532       74.023    24170.650    15758.383     5479.433        7.817        2.270      333.046       72.123        0.047      345.871       23.708      866.332
05/11/2013  21:03:00     -280.956      -62.399        3.910      147.832      119.727       73.002    21854.414    14334.567     5329.293        6.217        2.076      287.801       79.721        0.077      345.851       23.674      866.322
05/11/2013  21:04:00     -330.971      -43.701      -18.813      148.990      141.007       67.930    22198.138    19883.054     4614.523        7.924        2.335      333.843       68.506        0.042      345.864       23.695      866.329
05/11/2013  21:05:00     -422.624      -78.481      -26.720      123.497      138.976       69.305    15251.512    19314.227     4803.181       11.242        1.968      429.850       46.785        0.012      345.840       23.655      866.329
05/11/2013  21:06:00     -404.464      -29.634      -29.664      179.095      105.629       68.485    32075.029    11157.443     4690.174       10.663        2.396      405.548       75.003        0.034      345.826       23.630      866.341
05/11/2013  21:07:00     -499.002      -50.764      -22.655      147.555      132.915       81.535    21772.356    17666.289     6648.017       14.908        2.304      501.578       85.773        0.029      345.844       23.661      866.370
05/11/2013  21:08:00     -341.045      -81.686      -20.080      160.080      144.691       70.266    25625.570    20935.370     4937.255        8.743        2.575      350.691       72.395        0.043      345.842       23.657      866.387
05/11/2013  21:09:00     -185.845      -14.600       -2.646      167.571      102.435       71.957    28079.875    10492.838     5177.831        3.925        2.188      186.418       85.426        0.210      345.816       23.615      866.394
05/11/2013  21:10:00     -401.184      -93.386      -10.536      177.212      131.830       79.737    31403.964    17379.272     6358.056       11.245        2.757      411.910       85.183        0.043      345.828       23.634      866.371
05/11/2013  21:11:00     -475.738     -195.171      -31.815      171.485      176.814       76.790    29407.226    31263.203     5896.767       16.599        3.328      514.216       85.257        0.027      345.856       23.683      866.378
05/11/2013  21:12:00     -347.609      -29.311      -13.111      147.966      117.167       81.430    21893.996    13728.044     6630.920        8.205        2.113      348.843       74.279        0.045      345.835       23.646      866.381
05/11/2013  21:13:00     -284.536      -21.623       -7.876      176.933      128.532       60.002    31305.401    16520.577     3600.261        6.645        2.571      285.357       77.634        0.074      345.805       23.596      866.371
05/11/2013  21:14:00     -571.452      -44.024      -26.987      193.561      178.507       87.666    37465.960    31864.587     7685.341       20.311        3.851      573.146       80.181        0.020      345.864       23.696      866.389
05/11/2013  21:15:00     -415.641     -102.991      -19.755      226.974      128.602       84.871    51517.086    16538.412     7203.059       12.949        3.763      428.211      101.478        0.056      345.863       23.696      866.395
05/11/2013  21:16:00     -452.295      -54.722      -25.706      135.774      133.512       67.148    18434.569    17825.481     4508.861       12.449        2.038      455.593       67.854        0.022      345.845       23.663      866.396
05/11/2013  21:17:00     -396.290      -62.243      -12.886      163.151      110.703       75.190    26618.401    12255.180     5653.516       10.280        2.226      401.149       79.049        0.039      345.832       23.640      866.397
05/11/2013  21:18:00     -487.376      -62.874      -33.087      192.902      151.381       78.979    37211.151    22916.228     6237.739       15.446        3.318      491.415       91.852        0.035      345.821       23.623      866.408
05/11/2013  21:19:00     -377.347      -76.050       -1.713      193.470      157.874       76.130    37430.463    24924.349     5795.806       10.815        3.408      384.934       79.104        0.042      345.794       23.577      866.417
05/11/2013  21:20:00     -401.198      -71.299      -14.625      218.615      183.309       85.945    47792.501    33602.332     7386.550       12.750        4.439      407.484       92.343        0.051      345.842       23.659      866.432
05/11/2013  21:21:00     -309.339     -106.785       -0.192      250.622      135.697       86.442    62811.193    18413.551     7472.273        9.788        4.435      327.251      110.577        0.114      345.822       23.624      866.445
05/11/2013  21:22:00     -508.459     -149.991      -18.085      197.704      174.859       84.146    39086.720    30575.611     7080.549       17.904        3.837      530.121       92.119        0.030      345.837       23.649      866.460
05/11/2013  21:23:00     -211.999      -76.336        9.538      176.712      169.792       84.217    31226.986    28829.399     7092.542        5.899        3.357      225.324       85.690        0.145      345.818       23.618      866.477
05/11/2013  21:24:00     -383.284      -41.558      -12.739      163.282      148.968       68.540    26661.126    22191.564     4697.780       10.116        2.678      385.530       64.650        0.028      345.820       23.620      866.504
05/11/2013  21:25:00     -337.123      -62.253      -19.070      138.804      131.684       59.609    19266.466    17340.724     3553.182        7.902        2.008      342.823       57.553        0.028      345.820       23.621      866.520
05/11/2013  21:26:00     -368.855     -129.098      -13.259      152.414      124.416       68.325    23229.996    15479.315     4668.341        9.813        2.169      390.794       66.924        0.029      345.793       23.574      866.529
05/11/2013  21:27:00     -336.155       13.266       -8.419      173.609      118.833       74.187    30140.257    14121.238     5503.657        8.150        2.488      336.416       80.022        0.057      345.775       23.545      866.559
05/11/2013  21:28:00     -277.338      -87.540        5.536      139.697      156.991       77.520    19515.299    24646.072     6009.327        6.738        2.509      290.826       74.278        0.065      345.773       23.539      866.569
05/11/2013  21:29:00     -242.474      -52.919        3.266      152.890       91.884       58.695    23375.203     8442.587     3445.159        4.843        1.763      248.181       69.098        0.078      345.719       23.448      866.576
05/11/2013  21:30:00     -439.405      -70.774      -13.777      163.809      163.145       87.255    26833.346    26616.213     7613.449       12.966        3.053      445.068       84.230        0.036      345.750       23.500      866.596
05/11/2013  21:31:00     -268.662      -54.145      -13.341      171.157      132.836       82.969    29294.781    17645.526     6883.783        6.455        2.691      274.064       88.835        0.105      345.703       23.419      866.597
05/11/2013  21:32:00     -346.262      -84.407      -16.595      151.076      111.233       60.873    22823.937    12372.768     3705.563        8.309        1.945      356.401       63.964        0.032      345.706       23.425      866.632
05/11/2013  21:33:00     -519.326      -81.352      -20.211      152.510      139.858       89.560    23259.376    19560.289     8020.908       16.377        2.542      525.659       88.741        0.028      345.709       23.430      866.628
05/11/2013  21:34:00     -374.238      -18.624       -4.378      176.978      132.131       80.167    31321.117    17458.725     6426.731        9.780        2.760      374.701       88.243        0.055      345.703       23.419      866.635
05/11/2013  21:35:00     -193.948      -14.923       20.598      126.953      114.135       57.716    16117.085    13026.716     3331.152        3.536        1.624      194.521       53.331        0.075      345.663       23.350      866.640
05/11/2013  21:36:00     -275.108      -13.016      -14.352      173.225      134.159       79.372    30006.884    17998.675     6299.943        6.517        2.715      275.416       83.110        0.091      345.668       23.359      866.663
05/11/2013  21:37:00     -347.601      -59.217      -16.888      111.203      100.033       62.024    12366.076    10006.530     3847.024        7.541        1.311      352.609       57.781        0.027      345.682       23.385      866.672
05/11/2013  21:38:00     -375.226      -46.494      -19.314      153.131       86.205       63.091    23449.067     7431.370     3980.510        8.909        1.743      378.095       67.386        0.032      345.663       23.350      866.669
05/11/2013  21:39:00     -244.197      -51.741       -2.081      171.020       90.610       53.911    29247.920     8210.117     2906.404        5.133        2.018      249.618       56.832        0.052      345.626       23.288      866.690
05/11/2013  21:40:00     -443.345      -73.334      -12.759      164.156      107.410       78.579    26947.081    11537.008     6174.583       12.337        2.233      449.369       80.377        0.032      345.658       23.342      866.694
05/11/2013  21:41:00     -331.049      -24.031      -19.334      126.761       94.894       60.625    16068.296     9004.952     3675.350        6.964        1.437      331.920       57.292        0.030      345.630       23.293      866.708
05/11/2013  21:42:00     -342.891     -160.203      -11.085      153.563      106.642       65.972    23581.556    11372.537     4352.285        9.133        1.965      378.470       60.608        0.026      345.615       23.268      866.710
05/11/2013  21:43:00     -287.264      -32.191        1.698      170.942      126.321       57.287    29221.147    15956.998     3281.828        6.600        2.423      289.062       66.620        0.053      345.604       23.249      866.707
05/11/2013  21:44:00     -346.868      -97.006      -19.328      151.305      127.194       68.834    22893.069    16178.247     4738.145        8.695        2.190      360.177       78.835        0.048      345.591       23.228      866.725
05/11/2013  21:45:00     -327.289      -57.667        5.376      155.436      132.248       73.089    24160.503    17489.563     5341.970        7.872        2.350      332.330       84.865        0.065      345.553       23.162      866.738
05/11/2013  21:46:00     -371.977      -49.027      -12.843      144.248      121.124       68.125    20807.605    14671.118     4641.040        9.052        2.006      375.194       73.547        0.038      345.586       23.217      866.736
05/11/2013  21:47:00     -376.836      -18.538      -18.704      115.920      104.022       60.147    13437.466    10820.525     3617.674        8.528        1.394      377.292       63.298        0.028      345.567       23.186      866.745
05/11/2013  21:48:00     -344.338      -66.875      -17.921      138.632       87.694       57.199    19218.864     7690.317     3271.730        7.677        1.509      350.772       64.734        0.034      345.540       23.140      866.758
05/11/2013  21:49:00     -285.987      -47.261      -16.674      137.456       93.259       60.457    18894.128     8697.208     3655.033        5.777        1.562      289.866       72.576        0.063      345.531       23.125      866.770
05/11/2013  21:50:00     -204.488      -57.083        0.451       94.069       87.307       46.727     8849.036     7622.460     2183.384        3.186        0.933      212.306       50.712        0.057      345.514       23.096      866.776
05/11/2013  21:51:00     -317.080      -61.996       -9.896      129.159      104.853       65.166    16682.086    10994.122     4246.604        6.820        1.596      323.084       67.535        0.044      345.536       23.132      866.782
05/11/2013  21:52:00     -211.865      -55.476        8.565      156.393      113.595       71.743    24458.827    12903.911     5147.076        4.527        2.125      219.008       78.780        0.129      345.537       23.135      866.784
05/11/2013  21:53:00     -411.941      -78.154      -11.414      146.591       96.759       69.134    21489.008     9362.297     4779.458       10.578        1.782      419.289       68.369        0.027      345.567       23.187      866.802
05/11/2013  21:54:00     -351.482     -105.158      -12.276      147.078      124.652       62.513    21631.803    15538.155     3907.887        8.791        2.054      366.876       53.567        0.021      345.567       23.186      866.809
05/11/2013  21:55:00     -282.512      -34.276       -6.422      128.641       93.041       57.851    16548.400     8656.700     3346.760        5.479        1.428      284.583       63.989        0.051      345.524       23.113      866.827
05/11/2013  21:56:00     -376.235      -94.905      -21.560      175.603      157.937       78.818    30836.523    24944.181     6212.204       10.650        3.100      388.020       80.650        0.043      345.552       23.161      866.837
05/11/2013  21:57:00     -383.459      -17.134      -25.059      128.778      119.195       62.517    16583.730    14207.465     3908.406        9.133        1.735      383.841       64.039        0.028      345.563       23.178      866.844
05/11/2013  21:58:00     -287.363      -65.406       -5.940      136.910      121.210       62.535    18744.456    14691.805     3910.589        6.211        1.867      294.713       72.479        0.060      345.523       23.111      866.859
05/11/2013  21:59:00     -189.131      -69.235        2.077      156.696      103.267       66.066    24553.614    10664.020     4364.713        4.007        1.979      201.405       78.307        0.151      345.494       23.061      866.881
05/11/2013  22:00:00     -318.774       -6.580      -28.911      148.800      115.888       55.852    22141.534    13430.009     3119.477        7.059        1.935      318.841       56.222        0.031      345.494       23.061      866.896
05/11/2013  22:01:00     -374.456       -5.656      -37.381      161.094       98.335       68.653    25951.344     9669.760     4713.262        9.098        2.017      374.499       80.442        0.046      345.530       23.123      866.908
05/11/2013  22:02:00     -239.943      -21.579       -4.398      115.356       92.012       53.116    13307.053     8466.287     2821.317        4.132        1.230      240.911       53.703        0.050      345.468       23.016      866.927
05/11/2013  22:03:00     -224.076       -0.221        0.908      107.817       75.772       47.749    11624.402     5741.343     2279.995        3.493        0.982      224.076       52.229        0.054      345.436       22.961      866.930
05/11/2013  22:04:00     -208.152      -12.508       -8.446       98.970       79.460       51.458     9795.153     6313.948     2647.965        3.115        0.938      208.527       54.418        0.068      345.429       22.950      866.932
05/11/2013  22:05:00     -322.874      -19.546      -25.227      102.832      150.698       57.890    10574.417    22709.865     3351.265        7.094        1.832      323.465       52.507        0.026      345.466       23.012      866.922
05/11/2013  22:06:00     -183.033       -2.362       -7.391       77.800       78.474       50.313     6052.839     6158.141     2531.349        2.415        0.737      183.048       36.588        0.040      345.391       22.886      866.928
05/11/2013  22:07:00     -241.488     -110.664      -16.944      157.195       93.731       55.990    24710.224     8785.450     3134.899        5.373        1.832      265.637       67.424        0.064      345.437       22.963      866.936
05/11/2013  22:08:00     -297.732      -56.593      -13.687      157.490      149.433       67.625    24803.030    22330.233     4573.087        7.186        2.585      303.063       76.740        0.064      345.460       23.002      866.940
05/11/2013  22:09:00     -304.104     -148.185      -10.387      143.021       90.362       57.086    20455.091     8165.307     3258.845        7.321        1.594      338.287       68.331        0.041      345.423       22.939      866.959
05/11/2013  22:10:00     -303.901      -52.234       -0.880      200.349      131.802       83.568    40139.691    17371.782     6983.562        7.978        3.225      308.357       86.828        0.079      345.451       22.986      866.967
05/11/2013  22:11:00     -279.768     -146.637       -8.166      133.657      108.693       65.836    17864.271    11814.204     4334.351        6.692        1.701      315.868       67.273        0.045      345.424       22.940      866.984
05/11/2013  22:12:00     -217.279      -63.350       -8.234      138.732      104.567       60.255    19246.638    10934.333     3630.648        4.255        1.691      226.325       51.649        0.052      345.432       22.956      866.993
05/11/2013  22:13:00     -313.915      -58.688      -21.710      189.057      112.782       62.131    35742.593    12719.827     3860.215        7.738        2.616      319.353       80.438        0.063      345.432       22.954      867.004
05/11/2013  22:14:00     -270.623     -108.729      -15.776      112.975      102.210       50.105    12763.311    10446.877     2510.485        5.551        1.286      291.649       54.367        0.035      345.432       22.954      867.014
05/11/2013  22:15:00     -242.555      -55.411       -2.263      115.167       91.521       54.080    13263.524     8376.009     2924.631        4.323        1.228      248.804       57.131        0.053      345.435       22.961      867.016
05/11/2013  22:16:00     -238.459      -72.864      -12.649       77.996       94.535       40.685     6083.384     8936.923     1655.308        3.950        0.834      249.342       11.051        0.002      345.423       22.939      867.015
05/11/2013  22:17:00     -244.960      -36.826       -4.527      113.653       77.235       45.853    12917.055     5965.232     2102.492        4.118        1.049      247.712       48.017        0.038      345.433       22.956      867.019
05/11/2013  22:18:00     -195.424      -26.268       -6.500       75.086       78.112       46.511     5637.869     6101.459     2163.290        2.641        0.695      197.181       32.302        0.027      345.390       22.884      867.030
05/11/2013  22:19:00     -133.713      -64.442       -0.976       68.084       73.570       41.266     4635.415     5412.568     1702.882        1.689        0.588      148.432       38.042        0.066      345.383       22.872      867.018
05/11/2013  22:20:00     -260.719      -16.779       -8.006      100.802       71.303       50.472    10161.126     5084.118     2547.440        4.305        0.890      261.258       55.008        0.044      345.419       22.933      867.012
05/11/2013  22:21:00     -186.195      -46.179      -10.110       74.594       93.624       43.749     5564.222     8765.429     1914.009        2.657        0.812      191.836       34.882        0.033      345.369       22.848      867.019
05/11/2013  22:22:00     -166.705      -78.678       -3.395      103.417      103.944       59.714    10695.016    10804.453     3565.733        2.952        1.253      184.338       51.995        0.080      345.415       22.927      867.016
05/11/2013  22:23:00     -261.088     -114.281       -9.311      115.739       85.136       52.107    13395.548     7248.186     2715.128        5.233        1.168      285.004       40.745        0.020      345.401       22.902      867.016
05/11/2013  22:24:00     -242.217      -95.926      -16.748      161.326       74.936       52.630    26025.990     5615.430     2769.874        5.128        1.721      260.520       72.577        0.078      345.398       22.897      867.029
05/11/2013  22:25:00     -182.273      -53.566       -5.365       92.647       72.324       46.344     8583.547     5230.780     2147.806        2.604        0.798      189.981       40.733        0.046      345.388       22.881      867.038
05/11/2013  22:26:00     -219.697      -55.405      -12.748      135.532       78.059       51.559    18368.957     6093.217     2658.286        3.931        1.356      226.576       62.108        0.075      345.320       22.763      867.047
05/11/2013  22:27:00     -234.548      -50.515        1.285      117.681      100.971       52.595    13848.784    10195.155     2766.224        4.218        1.341      239.926       57.377        0.057      345.289       22.710      867.057
05/11/2013  22:28:00     -149.549      -22.610       -0.030      111.268       81.598       55.642    12380.604     6658.163     3095.994        2.250        1.107      151.249       60.489        0.160      345.300       22.729      867.062
05/11/2013  22:29:00     -213.789      -68.383      -11.187       80.294       85.299       40.445     6447.112     7275.965     1635.793        3.293        0.768      224.459       33.616        0.022      345.292       22.714      867.068
05/11/2013  22:30:00     -186.755       -1.782        3.848      128.673       88.507       50.742    16556.849     7833.495     2574.798        3.093        1.348      186.763       52.094        0.078      345.340       22.797      867.067
05/11/2013  22:31:00     -190.299      -31.936      -19.813       59.284       55.001       28.892     3514.575     3025.117      834.733        2.250        0.369      192.960       19.319        0.010      345.384       22.874      867.059
05/11/2013  22:32:00     -202.250        3.336       -7.239      152.733       86.274       50.154    23327.268     7443.260     2515.386        3.712        1.664      202.277       61.005        0.091      345.309       22.745      867.055
05/11/2013  22:33:00     -207.515       52.045      -24.702      140.545       98.764       41.226    19752.889     9754.345     1699.599        3.879        1.560      213.942       50.135        0.055      345.340       22.799      867.062
05/11/2013  22:34:00     -206.943      -75.218      -14.518       83.242       63.869       38.174     6929.288     4079.226     1457.222        3.058        0.623      220.189       33.468        0.023      345.289       22.709      867.072
05/11/2013  22:35:00     -206.317      -60.555      -16.904       62.171       69.452       33.435     3865.251     4823.523     1117.917        2.816        0.490      215.020       33.489        0.024      345.284       22.702      867.084
05/11/2013  22:36:00     -223.384      -48.039      -21.813       72.414       56.209       39.386     5243.830     3159.435     1551.256        3.132        0.498      228.491       39.118        0.029      345.262       22.661      867.097
05/11/2013  22:37:00     -120.701      -40.133        2.445      102.927       47.157       34.970    10594.031     2223.779     1222.932        1.511        0.702      127.198       42.416        0.111      345.171       22.509      867.106
05/11/2013  22:38:00     -173.349     -118.732       -4.348      103.081       80.427       55.613    10625.600     6468.506     3092.858        3.217        1.009      210.112       46.041        0.048      345.268       22.673      867.113
05/11/2013  22:39:00     -128.179      -76.332        9.193      110.355       84.071       53.291    12178.228     7067.987     2839.940        2.221        1.104      149.185       65.494        0.193      345.258       22.658      867.123
05/11/2013  22:40:00     -156.224     -175.773       -4.714      101.100       66.692       37.489    10221.298     4447.838     1405.449        3.570        0.804      235.164       39.101        0.028      345.375       22.857      867.126
05/11/2013  22:41:00     -222.670      -31.059      -12.805       97.961       64.157       39.964     9596.418     4116.113     1597.125        3.301        0.765      224.826       39.908        0.032      345.365       22.840      867.131
05/11/2013  22:42:00     -142.979      -56.626       -4.805       78.884       65.187       43.960     6222.735     4249.301     1932.480        1.804        0.620      153.784       36.212        0.055      345.311       22.750      867.127
05/11/2013  22:43:00     -127.213      -69.806        5.503       76.606       56.730       39.681     5868.480     3218.251     1574.573        1.587        0.533      145.107       40.987        0.080      345.278       22.693      867.126
05/11/2013  22:44:00     -113.185      -75.079      -10.016       52.066       54.125       22.908     2710.895     2929.527      524.780        1.236        0.308      135.822       18.060        0.018      345.272       22.682      867.126
05/11/2013  22:45:00      -58.105      -68.308       18.308       79.064       73.411       46.921     6251.169     5389.218     2201.575        1.111        0.692       89.678       51.228        0.326      345.281       22.697      867.135
05/11/2013  22:46:00     -130.637     -105.207        5.224      157.756      107.696       43.946    24886.890    11598.398     1931.290        3.328        1.921      167.734       62.667        0.140      345.254       22.652      867.139
05/11/2013  22:47:00     -195.023      -26.596       -9.239       48.831       58.310       37.638     2384.424     3400.002     1416.636        2.301        0.360      196.829       31.564        0.026      345.210       22.575      867.144
05/11/2013  22:48:00     -198.000      -63.977       -3.178       88.745       83.569       46.785     7875.622     6983.738     2188.849        3.017        0.852      208.080       44.568        0.046      345.285       22.702      867.133
05/11/2013  22:49:00     -187.788     -130.385      -11.240      108.265      108.588       54.170    11721.222    11791.379     2934.378        3.941        1.322      228.614       60.622        0.070      345.298       22.723      867.135
05/11/2013  22:50:00     -117.465      -55.296        6.929       67.174       62.621       45.576     4512.375     3921.364     2077.192        1.371        0.526      129.829       38.874        0.090      345.229       22.608      867.151
05/11/2013  22:51:00     -190.286      -48.411       -9.071       82.191       68.432       39.883     6755.435     4682.883     1590.632        2.583        0.651      196.348       39.026        0.040      345.243       22.632      867.159
05/11/2013  22:52:00     -171.052      -43.180       -3.850      119.962       76.577       44.686    14390.939     5864.025     1996.837        2.669        1.113      176.418       60.778        0.119      345.180       22.524      867.163
05/11/2013  22:53:00     -159.500      -95.391       -8.647       81.071       57.150       40.708     6572.573     3266.099     1657.169        2.305        0.575      185.848       29.154        0.025      345.232       22.613      867.172
05/11/2013  22:54:00     -192.696      -60.687        0.476      150.786       79.805       43.588    22736.271     6368.833     1899.896        3.590        1.550      202.026       57.800        0.082      345.217       22.589      867.187
05/11/2013  22:55:00     -289.264     -104.618      -14.060      111.199       72.692       49.835    12365.157     5284.116     2483.501        5.747        1.007      307.602       56.009        0.033      345.263       22.665      867.186
05/11/2013  22:56:00     -202.577      -10.809      -11.757       53.640       72.379       34.661     2877.302     5238.790     1201.399        2.530        0.466      202.865       25.435        0.016      345.174       22.513      867.188
05/11/2013  22:57:00     -165.990      -79.869       -6.891       81.014       68.445       36.316     6563.237     4684.707     1318.846        2.327        0.628      184.206       27.953        0.023      345.167       22.501      867.192
05/11/2013  22:58:00     -229.064      -77.228        1.631       76.710       60.846       36.645     5884.382     3702.289     1342.863        3.468        0.546      241.732       39.230        0.026      345.172       22.509      867.220
05/11/2013  22:59:00     -251.219      -72.469       -8.141      105.033       70.695       48.970    11032.036     4997.713     2398.100        4.343        0.921      261.463       47.673        0.033      345.163       22.493      867.232
05/11/2013  23:00:00      -63.332      -81.704       14.587      108.222       99.551       46.243    11711.981     9910.460     2138.410        1.733        1.188      103.376       53.970        0.273      345.153       22.479      867.237
05/11/2013  23:01:00     -102.249      -56.175        2.912       78.155       91.988       38.869     6108.176     8461.702     1510.768        1.485        0.804      116.664       29.003        0.062      345.178       22.521      867.238
05/11/2013  23:02:00     -166.227      -17.071       -3.553       90.253       72.775       36.852     8145.643     5296.139     1358.087        2.137        0.740      167.102       45.789        0.075      345.187       22.536      867.238
05/11/2013  23:03:00     -123.422        6.963       -3.499       78.300       50.063       29.513     6130.850     2506.313      870.998        1.240        0.475      123.618       36.888        0.089      345.142       22.461      867.246
05/11/2013  23:04:00     -141.272      -23.952       -5.043       43.972       30.594       22.791     1933.506      935.987      519.408        1.197        0.169      143.289       23.200        0.026      345.094       22.380      867.247
05/11/2013  23:05:00     -167.772      -25.665      -16.192       61.146       41.690       24.601     3738.832     1738.032      605.187        1.757        0.304      169.724       23.325        0.019      345.067       22.334      867.247
05/11/2013  23:06:00     -114.592      -20.214       -7.233       41.765       44.671       23.195     1744.311     1995.524      537.993        0.893        0.214      116.361        6.814        0.003      345.051       22.306      867.251
05/11/2013  23:07:00      -78.433      -50.516       -1.719       40.588       34.861       25.641     1647.396     1215.317      657.468        0.611        0.176       93.293       20.627        0.049      345.005       22.228      867.254
05/11/2013  23:08:00     -114.446      -43.070       -2.251       35.335       26.846       21.967     1248.587      720.715      482.564        0.870        0.123      122.282       16.005        0.017      345.004       22.227      867.262
05/11/2013  23:09:00     -118.647      -41.310      -13.386       20.549       19.435       12.050      422.257      377.710      145.202        0.845        0.047      125.633        9.732        0.006      345.017       22.247      867.280
05/11/2013  23:10:00     -105.151      -27.252       -5.516       23.960       24.838       16.244      574.096      616.927      263.861        0.664        0.073      108.625       11.859        0.012      344.973       22.172      867.281
05/11/2013  23:11:00     -122.125      -16.035      -17.979       32.623       26.733       14.338     1064.264      714.656      205.587        0.874        0.099      123.174       12.856        0.011      344.924       22.089      867.282
05/11/2013  23:12:00     -111.638      -32.671       -7.522       22.703       25.539       13.811      515.427      652.265      190.734        0.747        0.068      116.320       11.879        0.010      344.913       22.070      867.277
05/11/2013  23:13:00      -78.945      -32.223       -4.700       24.014       13.947       15.576      576.659      194.516      242.599        0.415        0.051       85.268       13.281        0.024      344.974       22.173      867.273
05/11/2013  23:14:00      -70.868        1.559      -11.065       21.712       25.957       18.048      471.395      673.776      325.733        0.331        0.074       70.885       14.591        0.042      344.912       22.067      867.272
05/11/2013  23:15:00      -47.118      -27.949      -11.665       27.625       19.386       13.169      763.117      375.816      173.425        0.222        0.066       54.784        7.306        0.018      344.863       21.985      867.262
05/11/2013  23:16:00      -31.157      -28.579        0.134       26.858       12.611       12.619      721.332      159.030      159.241        0.141        0.052       42.279        9.341        0.049      344.869       21.993      867.257
05/11/2013  23:17:00      -77.339      -51.516        5.819       38.358       34.712       20.207     1471.353     1204.902      408.343        0.588        0.154       92.926       20.895        0.051      344.856       21.972      867.252
05/11/2013  23:18:00      -71.527      -50.733        1.323       38.492       19.589       15.904     1481.653      383.726      252.925        0.490        0.106       87.692       17.879        0.042      344.812       21.896      867.255
05/11/2013  23:19:00      -64.725       -8.484       -2.091       36.422       25.500       17.469     1326.548      650.238      305.181        0.327        0.114       65.278       20.495        0.099      344.794       21.865      867.264
05/11/2013  23:20:00      -39.149      -14.577      -13.580       41.193       40.669       18.990     1696.833     1653.951      360.616        0.282        0.186       41.775       23.341        0.312      344.999       22.216      867.256
05/11/2013  23:21:00      -81.318      -62.716       -3.492       49.433       26.678       17.759     2443.650      711.703      315.369        0.701        0.174      102.693       16.602        0.026      344.928       22.096      867.255
05/11/2013  23:22:00      -65.012      -42.165        2.436       40.839       31.657       16.111     1667.802     1002.164      259.553        0.447        0.146       77.488       17.648        0.052      344.865       21.987      867.256
05/11/2013  23:23:00      -77.006      -25.533        4.750       41.910       25.973       18.970     1756.424      674.585      359.843        0.470        0.140       81.129       22.092        0.074      344.885       22.022      867.257
05/11/2013  23:24:00      -84.453      -27.690       -3.049       52.432       34.818       19.235     2749.129     1212.306      369.993        0.612        0.217       88.877       22.445        0.064      344.742       21.776      867.276
05/11/2013  23:25:00     -155.266      -24.566        2.474       51.498       33.855       25.310     2651.996     1146.152      640.591        1.458        0.222      157.198       23.855        0.023      344.618       21.564      867.285
05/11/2013  23:26:00     -125.510      -72.961       -3.960       47.793       29.063       18.040     2284.202      844.658      325.434        1.227        0.173      145.176       19.476        0.018      344.747       21.787      867.296
05/11/2013  23:27:00      -59.457      -52.877       -1.943       34.377       25.895       21.210     1181.759      670.554      449.872        0.432        0.115       79.568       13.778        0.030      344.647       21.614      867.312
05/11/2013  23:28:00      -41.551      -27.946        0.112       25.407       23.148       12.754      645.534      535.842      162.652        0.193        0.067       50.074       11.827        0.056      344.578       21.496      867.317
05/11/2013  23:29:00      -85.395      -31.748       -8.217       39.061       29.645       19.957     1525.790      878.823      398.284        0.558        0.140       91.105       22.453        0.061      344.548       21.446      867.329
05/11/2013  23:30:00      -49.759      -45.643        9.268       59.126       20.328       21.031     3495.852      413.212      442.286        0.450        0.218       67.522       26.027        0.149      344.547       21.443      867.345
05/11/2013  23:31:00     -102.211      -11.497       -6.877       40.174       20.385       17.432     1613.950      415.528      303.873        0.648        0.117      102.856       18.287        0.032      344.471       21.313      867.354
05/11/2013  23:32:00     -126.874      -37.954       -6.986       31.250       44.062       18.535      976.560     1941.490      343.544        1.042        0.163      132.430       18.352        0.019      344.357       21.119      867.374
05/11/2013  23:33:00     -106.714      -42.758       -6.596       25.542       29.712       14.977      652.403      882.806      224.301        0.751        0.088      114.962       14.118        0.015      344.353       21.115      867.373
05/11/2013  23:34:00      -77.803      -40.404       -7.092       34.295       24.153       10.798     1176.171      583.349      116.592        0.481        0.094       87.669       10.885        0.015      344.354       21.115      867.372
05/11/2013  23:35:00       13.293      -34.657        8.521       11.892       19.325       15.273      141.412      373.441      233.273        0.110        0.037       37.119       10.907        0.086      344.401       21.193      867.364
05/11/2013  23:36:00      -47.818      -19.375       -2.216       29.837       28.725       17.681      890.228      825.135      312.628        0.235        0.101       51.594        7.825        0.023      344.545       21.440      867.372
05/11/2013  23:37:00      -48.611      -40.438        1.544       46.720       30.440       26.311     2182.769      926.609      692.256        0.390        0.190       63.232       19.380        0.094      344.412       21.211      867.386
05/11/2013  23:38:00     -107.420      -69.363      -11.469       43.447       32.967       25.069     1887.682     1086.846      628.433        1.004        0.180      127.868       23.538        0.034      344.298       21.017      867.402
05/11/2013  23:39:00     -104.697      -21.540       -5.422       27.787       29.360       18.341      772.127      862.026      336.400        0.671        0.099      106.889       15.445        0.021      344.316       21.050      867.416
05/11/2013  23:40:00     -116.754      -44.365       -6.900       28.210       24.280       18.276      795.782      589.540      334.015        0.868        0.086      124.899       16.693        0.018      344.378       21.155      867.423
05/11/2013  23:41:00      -91.641      -30.848       -1.149       30.014       25.075       16.043      900.844      628.747      257.368        0.557        0.089       96.694       13.501        0.019      344.265       20.962      867.423
05/11/2013  23:42:00      -73.036      -47.298       -7.872       31.109       32.010       17.118      967.780     1024.667      293.029        0.496        0.114       87.014       16.818        0.037      344.296       21.014      867.420
05/11/2013  23:43:00     -147.940      -29.691       -8.561       42.915       24.387       17.052     1841.717      594.732      290.787        1.278        0.136      150.890       15.854        0.011      344.318       21.052      867.424
05/11/2013  23:44:00     -164.709      -35.430       -9.468       51.357       34.125       25.051     2637.550     1164.491      627.573        1.645        0.221      168.477       24.915        0.022      344.213       20.873      867.443
05/11/2013  23:45:00     -119.523      -42.991       -5.224       64.654       39.854       24.009     4180.120     1588.331      576.426        1.125        0.317      127.019       29.130        0.053      344.162       20.785      867.458
05/11/2013  23:46:00     -164.932      -58.613       -8.864       28.121       29.279       17.047      790.787      857.275      290.605        1.633        0.097      175.038       12.648        0.005      344.211       20.868      867.450
05/11/2013  23:47:00     -124.905      -12.105      -13.493       29.297       26.327       19.405      858.341      693.108      376.543        0.893        0.096      125.490       17.789        0.020      344.148       20.763      867.445
05/11/2013  23:48:00     -184.013      -51.530       -2.398       77.537       55.078       24.975     6012.022     3033.616      623.730        2.309        0.483      191.092       23.047        0.015      344.075       20.638      867.447
05/11/2013  23:49:00     -153.501      -51.935       -1.515       83.074       61.780       26.470     6901.247     3816.715      700.636        1.884        0.571      162.048       30.561        0.036      344.074       20.634      867.476
05/11/2013  23:50:00     -135.723       30.110      -16.116       38.598       44.797       18.530     1489.818     2006.745      343.351        1.171        0.192      139.023       16.919        0.015      344.139       20.747      867.480
05/11/2013  23:51:00     -125.524      -46.712       -4.003       39.518       30.191       24.146     1561.664      911.508      583.014        1.050        0.153      133.934       21.090        0.025      344.112       20.702      867.468
05/11/2013  23:52:00     -119.649      -36.553       -4.563       31.770       24.646       17.653     1009.333      607.443      311.644        0.880        0.096      125.108       16.449        0.017      344.114       20.703      867.471
05/11/2013  23:53:00     -166.896      -51.338      -13.152       32.425       42.009       18.499     1051.349     1764.773      342.212        1.691        0.158      174.613       14.759        0.007      343.999       20.507      867.495
05/11/2013  23:54:00      -82.838       -3.507      -10.910       43.356       24.829       19.145     1879.708      616.472      366.538        0.493        0.143       82.913       19.868        0.057      343.959       20.439      867.503
05/11/2013  23:55:00      -35.719       -3.116       -6.858       22.209       16.683       10.124      493.260      278.337      102.499        0.110        0.044       35.855        7.663        0.046      344.055       20.603      867.487
05/11/2013  23:56:00     -115.929      -36.231       -8.624       58.378       34.422       14.064     3407.940     1184.845      197.797        0.981        0.240      121.458       14.214        0.014      344.105       20.687      867.489
05/11/2013  23:57:00     -141.882      -60.472       -8.666       49.832       43.461       22.215     2483.179     1888.898      493.485        1.436        0.243      154.232       21.258        0.019      343.869       20.285      867.506
05/11/2013  23:58:00     -141.633      -34.001       -8.212       33.577       29.718       17.796     1127.446      883.132      316.708        1.180        0.116      145.657       18.990        0.017      343.836       20.229      867.517
05/11/2013  23:59:00      -81.786      -41.646        0.274       41.572       33.983       20.389     1728.246     1154.870      415.696        0.586        0.165       91.779       21.444        0.055      343.743       20.070      867.529
